<?xml version="1.0" encoding="UTF-8" standalone="no" ?>
<gpx xmlns="http://www.topografix.com/GPX/1/1" xmlns:xsi="http://www.w3.org/2001/XMLSchema-instance" xsi:schemaLocation="http://www.topografix.com/GPX/1/1 http://www.topografix.com/GPX/1/1/gpx.xsd" version="1.1" creator="VisuGPX - https://www.visugpx.com">
  <metadata>
    <name>St Romain de lerps</name>
    <desc><![CDATA[Monter par plats]]></desc>
  </metadata>
  <trk>
    <name><![CDATA[St Romain par plats]]></name>
    <cmt><![CDATA[Jean Pierre, Bruno, thierry2, gilles, edouard, jacques, keck]]></cmt>
    <trkseg>
      <trkpt lat="45.11982" lon="4.97758">
        <ele>217.65800476074</ele>
        <time>2010-01-30T12:37:54Z</time>
      </trkpt>
      <trkpt lat="45.11969" lon="4.97683">
        <ele>217.54200744629</ele>
        <time>2010-01-30T12:38:03Z</time>
      </trkpt>
      <trkpt lat="45.11958" lon="4.97621">
        <ele>217.24299621582</ele>
        <time>2010-01-30T12:38:11Z</time>
      </trkpt>
      <trkpt lat="45.11956" lon="4.97613">
        <ele>217.50100708008</ele>
        <time>2010-01-30T12:38:12Z</time>
      </trkpt>
      <trkpt lat="45.11948" lon="4.97567">
        <ele>217.30900573731</ele>
        <time>2010-01-30T12:38:18Z</time>
      </trkpt>
      <trkpt lat="45.11936" lon="4.97498">
        <ele>216.07400512695</ele>
        <time>2010-01-30T12:38:25Z</time>
      </trkpt>
      <trkpt lat="45.11929" lon="4.97463">
        <ele>216.04800415039</ele>
        <time>2010-01-30T12:38:30Z</time>
      </trkpt>
      <trkpt lat="45.11914" lon="4.97376">
        <ele>214.64599609375</ele>
        <time>2010-01-30T12:38:40Z</time>
      </trkpt>
      <trkpt lat="45.11901" lon="4.97306">
        <ele>214.0890045166</ele>
        <time>2010-01-30T12:38:49Z</time>
      </trkpt>
      <trkpt lat="45.1189" lon="4.9724">
        <ele>214.44200134277</ele>
        <time>2010-01-30T12:38:58Z</time>
      </trkpt>
      <trkpt lat="45.11879" lon="4.97177">
        <ele>214.82200622559</ele>
        <time>2010-01-30T12:39:06Z</time>
      </trkpt>
      <trkpt lat="45.11879" lon="4.97161">
        <ele>214.60800170898</ele>
        <time>2010-01-30T12:39:08Z</time>
      </trkpt>
      <trkpt lat="45.11881" lon="4.97114">
        <ele>215.84899902344</ele>
        <time>2010-01-30T12:39:14Z</time>
      </trkpt>
      <trkpt lat="45.11883" lon="4.97093">
        <ele>216.80499267578</ele>
        <time>2010-01-30T12:39:18Z</time>
      </trkpt>
      <trkpt lat="45.11905" lon="4.97073">
        <ele>216.23699951172</ele>
        <time>2010-01-30T12:39:21Z</time>
      </trkpt>
      <trkpt lat="45.11898" lon="4.97058">
        <ele>216.16600036621</ele>
        <time>2010-01-30T12:39:23Z</time>
      </trkpt>
      <trkpt lat="45.11857" lon="4.97025">
        <ele>215.7380065918</ele>
        <time>2010-01-30T12:39:31Z</time>
      </trkpt>
      <trkpt lat="45.11819" lon="4.96969">
        <ele>215.39900207519</ele>
        <time>2010-01-30T12:39:40Z</time>
      </trkpt>
      <trkpt lat="45.11779" lon="4.96905">
        <ele>215.31700134277</ele>
        <time>2010-01-30T12:39:50Z</time>
      </trkpt>
      <trkpt lat="45.11775" lon="4.96898">
        <ele>215.30900573731</ele>
        <time>2010-01-30T12:39:51Z</time>
      </trkpt>
      <trkpt lat="45.11761" lon="4.96871">
        <ele>215.11399841309</ele>
        <time>2010-01-30T12:39:55Z</time>
      </trkpt>
      <trkpt lat="45.11762" lon="4.96834">
        <ele>214.75999450684</ele>
        <time>2010-01-30T12:39:59Z</time>
      </trkpt>
      <trkpt lat="45.1175" lon="4.96823">
        <ele>214.32099914551</ele>
        <time>2010-01-30T12:40:02Z</time>
      </trkpt>
      <trkpt lat="45.11719" lon="4.96809">
        <ele>214.52099609375</ele>
        <time>2010-01-30T12:40:08Z</time>
      </trkpt>
      <trkpt lat="45.11691" lon="4.96767">
        <ele>213.73100280762</ele>
        <time>2010-01-30T12:40:15Z</time>
      </trkpt>
      <trkpt lat="45.1166" lon="4.96702">
        <ele>213.07699584961</ele>
        <time>2010-01-30T12:40:24Z</time>
      </trkpt>
      <trkpt lat="45.1163" lon="4.96626">
        <ele>212.10800170898</ele>
        <time>2010-01-30T12:40:34Z</time>
      </trkpt>
      <trkpt lat="45.116" lon="4.96555">
        <ele>211.92999267578</ele>
        <time>2010-01-30T12:40:43Z</time>
      </trkpt>
      <trkpt lat="45.11564" lon="4.96482">
        <ele>212.06799316406</ele>
        <time>2010-01-30T12:40:53Z</time>
      </trkpt>
      <trkpt lat="45.11519" lon="4.96409">
        <ele>212.59899902344</ele>
        <time>2010-01-30T12:41:04Z</time>
      </trkpt>
      <trkpt lat="45.1147" lon="4.96331">
        <ele>213.19400024414</ele>
        <time>2010-01-30T12:41:16Z</time>
      </trkpt>
      <trkpt lat="45.11432" lon="4.96261">
        <ele>214.23100280762</ele>
        <time>2010-01-30T12:41:26Z</time>
      </trkpt>
      <trkpt lat="45.11395" lon="4.96185">
        <ele>213.99000549316</ele>
        <time>2010-01-30T12:41:36Z</time>
      </trkpt>
      <trkpt lat="45.11359" lon="4.96109">
        <ele>212.61700439453</ele>
        <time>2010-01-30T12:41:45Z</time>
      </trkpt>
      <trkpt lat="45.1132" lon="4.96049">
        <ele>211.8869934082</ele>
        <time>2010-01-30T12:41:53Z</time>
      </trkpt>
      <trkpt lat="45.11295" lon="4.96011">
        <ele>211.35800170898</ele>
        <time>2010-01-30T12:42:00Z</time>
      </trkpt>
      <trkpt lat="45.1125" lon="4.95933">
        <ele>210.62199401856</ele>
        <time>2010-01-30T12:42:08Z</time>
      </trkpt>
      <trkpt lat="45.11216" lon="4.95879">
        <ele>209.92300415039</ele>
        <time>2010-01-30T12:42:15Z</time>
      </trkpt>
      <trkpt lat="45.11161" lon="4.95799">
        <ele>209.38200378418</ele>
        <time>2010-01-30T12:42:26Z</time>
      </trkpt>
      <trkpt lat="45.11128" lon="4.95737">
        <ele>210.06100463867</ele>
        <time>2010-01-30T12:42:34Z</time>
      </trkpt>
      <trkpt lat="45.11098" lon="4.95691">
        <ele>210.14999389648</ele>
        <time>2010-01-30T12:42:41Z</time>
      </trkpt>
      <trkpt lat="45.11057" lon="4.95649">
        <ele>210.6309967041</ele>
        <time>2010-01-30T12:42:49Z</time>
      </trkpt>
      <trkpt lat="45.11016" lon="4.95604">
        <ele>209.99800109863</ele>
        <time>2010-01-30T12:42:57Z</time>
      </trkpt>
      <trkpt lat="45.1098" lon="4.95546">
        <ele>209.37699890137</ele>
        <time>2010-01-30T12:43:05Z</time>
      </trkpt>
      <trkpt lat="45.10955" lon="4.95484">
        <ele>208.48599243164</ele>
        <time>2010-01-30T12:43:12Z</time>
      </trkpt>
      <trkpt lat="45.10938" lon="4.95404">
        <ele>207.76100158691</ele>
        <time>2010-01-30T12:43:20Z</time>
      </trkpt>
      <trkpt lat="45.10922" lon="4.95342">
        <ele>207.67599487305</ele>
        <time>2010-01-30T12:43:28Z</time>
      </trkpt>
      <trkpt lat="45.10903" lon="4.95286">
        <ele>207.47999572754</ele>
        <time>2010-01-30T12:43:33Z</time>
      </trkpt>
      <trkpt lat="45.10879" lon="4.95222">
        <ele>209.31500244141</ele>
        <time>2010-01-30T12:43:42Z</time>
      </trkpt>
      <trkpt lat="45.10856" lon="4.9515">
        <ele>211.74099731445</ele>
        <time>2010-01-30T12:43:51Z</time>
      </trkpt>
      <trkpt lat="45.10849" lon="4.95101">
        <ele>214.25100708008</ele>
        <time>2010-01-30T12:43:58Z</time>
      </trkpt>
      <trkpt lat="45.1085" lon="4.95045">
        <ele>217.3630065918</ele>
        <time>2010-01-30T12:44:07Z</time>
      </trkpt>
      <trkpt lat="45.10852" lon="4.94993">
        <ele>220.2619934082</ele>
        <time>2010-01-30T12:44:16Z</time>
      </trkpt>
      <trkpt lat="45.10853" lon="4.94964">
        <ele>222.08200073242</ele>
        <time>2010-01-30T12:44:21Z</time>
      </trkpt>
      <trkpt lat="45.10853" lon="4.94958">
        <ele>222.34199523926</ele>
        <time>2010-01-30T12:44:22Z</time>
      </trkpt>
      <trkpt lat="45.10855" lon="4.94901">
        <ele>225.07099914551</ele>
        <time>2010-01-30T12:44:32Z</time>
      </trkpt>
      <trkpt lat="45.10856" lon="4.94872">
        <ele>226.47900390625</ele>
        <time>2010-01-30T12:44:37Z</time>
      </trkpt>
      <trkpt lat="45.10857" lon="4.94855">
        <ele>227.15299987793</ele>
        <time>2010-01-30T12:44:40Z</time>
      </trkpt>
      <trkpt lat="45.10859" lon="4.94826">
        <ele>227.65800476074</ele>
        <time>2010-01-30T12:44:45Z</time>
      </trkpt>
      <trkpt lat="45.10861" lon="4.94821">
        <ele>227.66900634766</ele>
        <time>2010-01-30T12:44:46Z</time>
      </trkpt>
      <trkpt lat="45.10865" lon="4.94806">
        <ele>227.77400207519</ele>
        <time>2010-01-30T12:44:49Z</time>
      </trkpt>
      <trkpt lat="45.10878" lon="4.94767">
        <ele>227.41299438477</ele>
        <time>2010-01-30T12:44:56Z</time>
      </trkpt>
      <trkpt lat="45.10881" lon="4.94755">
        <ele>227.44000244141</ele>
        <time>2010-01-30T12:44:58Z</time>
      </trkpt>
      <trkpt lat="45.10883" lon="4.94749">
        <ele>227.625</ele>
        <time>2010-01-30T12:44:59Z</time>
      </trkpt>
      <trkpt lat="45.10897" lon="4.94706">
        <ele>227.63999938965</ele>
        <time>2010-01-30T12:45:06Z</time>
      </trkpt>
      <trkpt lat="45.10915" lon="4.94647">
        <ele>227.90699768066</ele>
        <time>2010-01-30T12:45:15Z</time>
      </trkpt>
      <trkpt lat="45.10918" lon="4.94633">
        <ele>227.46099853516</ele>
        <time>2010-01-30T12:45:17Z</time>
      </trkpt>
      <trkpt lat="45.1092" lon="4.94619">
        <ele>227.37100219727</ele>
        <time>2010-01-30T12:45:19Z</time>
      </trkpt>
      <trkpt lat="45.10925" lon="4.94574">
        <ele>227.47599792481</ele>
        <time>2010-01-30T12:45:25Z</time>
      </trkpt>
      <trkpt lat="45.10925" lon="4.94535">
        <ele>226.99899291992</ele>
        <time>2010-01-30T12:45:30Z</time>
      </trkpt>
      <trkpt lat="45.10925" lon="4.94527">
        <ele>227.01699829102</ele>
        <time>2010-01-30T12:45:31Z</time>
      </trkpt>
      <trkpt lat="45.10922" lon="4.94457">
        <ele>226.70399475098</ele>
        <time>2010-01-30T12:45:40Z</time>
      </trkpt>
      <trkpt lat="45.1092" lon="4.94411">
        <ele>226.84199523926</ele>
        <time>2010-01-30T12:45:46Z</time>
      </trkpt>
      <trkpt lat="45.10914" lon="4.94333">
        <ele>227.18400573731</ele>
        <time>2010-01-30T12:45:56Z</time>
      </trkpt>
      <trkpt lat="45.10897" lon="4.94291">
        <ele>226.45700073242</ele>
        <time>2010-01-30T12:46:02Z</time>
      </trkpt>
      <trkpt lat="45.10861" lon="4.94251">
        <ele>225.53100585938</ele>
        <time>2010-01-30T12:46:09Z</time>
      </trkpt>
      <trkpt lat="45.10822" lon="4.94208">
        <ele>224.80000305176</ele>
        <time>2010-01-30T12:46:16Z</time>
      </trkpt>
      <trkpt lat="45.1077" lon="4.94141">
        <ele>225.52600097656</ele>
        <time>2010-01-30T12:46:26Z</time>
      </trkpt>
      <trkpt lat="45.10735" lon="4.94088">
        <ele>226.79100036621</ele>
        <time>2010-01-30T12:46:34Z</time>
      </trkpt>
      <trkpt lat="45.10712" lon="4.94026">
        <ele>227.93800354004</ele>
        <time>2010-01-30T12:46:42Z</time>
      </trkpt>
      <trkpt lat="45.10695" lon="4.93954">
        <ele>229.46899414062</ele>
        <time>2010-01-30T12:46:51Z</time>
      </trkpt>
      <trkpt lat="45.10682" lon="4.93858">
        <ele>229.35800170898</ele>
        <time>2010-01-30T12:47:02Z</time>
      </trkpt>
      <trkpt lat="45.10674" lon="4.93791">
        <ele>228.10200500488</ele>
        <time>2010-01-30T12:47:09Z</time>
      </trkpt>
      <trkpt lat="45.10661" lon="4.937">
        <ele>225.51100158691</ele>
        <time>2010-01-30T12:47:18Z</time>
      </trkpt>
      <trkpt lat="45.1065" lon="4.93615">
        <ele>221.42300415039</ele>
        <time>2010-01-30T12:47:25Z</time>
      </trkpt>
      <trkpt lat="45.10643" lon="4.93561">
        <ele>215.86399841309</ele>
        <time>2010-01-30T12:47:32Z</time>
      </trkpt>
      <trkpt lat="45.10611" lon="4.93399">
        <ele>213.11000061035</ele>
        <time>2010-01-30T12:47:40Z</time>
      </trkpt>
      <trkpt lat="45.10595" lon="4.93315">
        <ele>212.74000549316</ele>
        <time>2010-01-30T12:47:46Z</time>
      </trkpt>
      <trkpt lat="45.10571" lon="4.9319">
        <ele>209.8809967041</ele>
        <time>2010-01-30T12:47:56Z</time>
      </trkpt>
      <trkpt lat="45.10553" lon="4.93102">
        <ele>208.95399475098</ele>
        <time>2010-01-30T12:48:04Z</time>
      </trkpt>
      <trkpt lat="45.10545" lon="4.93054">
        <ele>208.05700683594</ele>
        <time>2010-01-30T12:48:12Z</time>
      </trkpt>
      <trkpt lat="45.10522" lon="4.92949">
        <ele>207.70599365234</ele>
        <time>2010-01-30T12:48:20Z</time>
      </trkpt>
      <trkpt lat="45.10507" lon="4.92863">
        <ele>207.0950012207</ele>
        <time>2010-01-30T12:48:29Z</time>
      </trkpt>
      <trkpt lat="45.10501" lon="4.92825">
        <ele>207.52499389648</ele>
        <time>2010-01-30T12:48:33Z</time>
      </trkpt>
      <trkpt lat="45.10495" lon="4.9279">
        <ele>207.70399475098</ele>
        <time>2010-01-30T12:48:37Z</time>
      </trkpt>
      <trkpt lat="45.1049" lon="4.92768">
        <ele>207.74299621582</ele>
        <time>2010-01-30T12:48:40Z</time>
      </trkpt>
      <trkpt lat="45.10503" lon="4.9276">
        <ele>207.97999572754</ele>
        <time>2010-01-30T12:48:42Z</time>
      </trkpt>
      <trkpt lat="45.10544" lon="4.92753">
        <ele>208.98599243164</ele>
        <time>2010-01-30T12:48:50Z</time>
      </trkpt>
      <trkpt lat="45.10579" lon="4.92747">
        <ele>208.97999572754</ele>
        <time>2010-01-30T12:48:57Z</time>
      </trkpt>
      <trkpt lat="45.10612" lon="4.92758">
        <ele>208.82600402832</ele>
        <time>2010-01-30T12:49:04Z</time>
      </trkpt>
      <trkpt lat="45.1063" lon="4.92767">
        <ele>208.97900390625</ele>
        <time>2010-01-30T12:49:09Z</time>
      </trkpt>
      <trkpt lat="45.10635" lon="4.92769">
        <ele>209.11999511719</ele>
        <time>2010-01-30T12:49:12Z</time>
      </trkpt>
      <trkpt lat="45.10648" lon="4.92773">
        <ele>208.97599792481</ele>
        <time>2010-01-30T12:49:18Z</time>
      </trkpt>
      <trkpt lat="45.10636" lon="4.9277">
        <ele>208.66299438477</ele>
        <time>2010-01-30T12:49:23Z</time>
      </trkpt>
      <trkpt lat="45.10633" lon="4.92769">
        <ele>208.85400390625</ele>
        <time>2010-01-30T12:49:25Z</time>
      </trkpt>
      <trkpt lat="45.10633" lon="4.92768">
        <ele>208.71499633789</ele>
        <time>2010-01-30T12:49:28Z</time>
      </trkpt>
      <trkpt lat="45.10624" lon="4.92764">
        <ele>208.70799255371</ele>
        <time>2010-01-30T12:50:29Z</time>
      </trkpt>
      <trkpt lat="45.10616" lon="4.9276">
        <ele>208.61099243164</ele>
        <time>2010-01-30T12:50:32Z</time>
      </trkpt>
      <trkpt lat="45.10594" lon="4.92749">
        <ele>208.38600158691</ele>
        <time>2010-01-30T12:50:38Z</time>
      </trkpt>
      <trkpt lat="45.10563" lon="4.9275">
        <ele>207.55599975586</ele>
        <time>2010-01-30T12:50:44Z</time>
      </trkpt>
      <trkpt lat="45.10535" lon="4.92754">
        <ele>207.33299255371</ele>
        <time>2010-01-30T12:50:49Z</time>
      </trkpt>
      <trkpt lat="45.10509" lon="4.92759">
        <ele>207.70599365234</ele>
        <time>2010-01-30T12:50:54Z</time>
      </trkpt>
      <trkpt lat="45.10495" lon="4.92761">
        <ele>207.41499328613</ele>
        <time>2010-01-30T12:50:57Z</time>
      </trkpt>
      <trkpt lat="45.10483" lon="4.92762">
        <ele>207.0890045166</ele>
        <time>2010-01-30T12:51:01Z</time>
      </trkpt>
      <trkpt lat="45.10478" lon="4.92709">
        <ele>206.88600158691</ele>
        <time>2010-01-30T12:51:07Z</time>
      </trkpt>
      <trkpt lat="45.10465" lon="4.92644">
        <ele>206.81500244141</ele>
        <time>2010-01-30T12:51:15Z</time>
      </trkpt>
      <trkpt lat="45.10455" lon="4.92592">
        <ele>206.66900634766</ele>
        <time>2010-01-30T12:51:22Z</time>
      </trkpt>
      <trkpt lat="45.10442" lon="4.92515">
        <ele>205.44099426269</ele>
        <time>2010-01-30T12:51:31Z</time>
      </trkpt>
      <trkpt lat="45.10433" lon="4.92462">
        <ele>203.80400085449</ele>
        <time>2010-01-30T12:51:40Z</time>
      </trkpt>
      <trkpt lat="45.10411" lon="4.92342">
        <ele>202.49800109863</ele>
        <time>2010-01-30T12:51:49Z</time>
      </trkpt>
      <trkpt lat="45.10394" lon="4.92249">
        <ele>202.12600708008</ele>
        <time>2010-01-30T12:51:59Z</time>
      </trkpt>
      <trkpt lat="45.10381" lon="4.92176">
        <ele>201.62300109863</ele>
        <time>2010-01-30T12:52:08Z</time>
      </trkpt>
      <trkpt lat="45.10369" lon="4.9211">
        <ele>201.94599914551</ele>
        <time>2010-01-30T12:52:16Z</time>
      </trkpt>
      <trkpt lat="45.10357" lon="4.92044">
        <ele>203.0950012207</ele>
        <time>2010-01-30T12:52:24Z</time>
      </trkpt>
      <trkpt lat="45.10348" lon="4.91997">
        <ele>203.40100097656</ele>
        <time>2010-01-30T12:52:30Z</time>
      </trkpt>
      <trkpt lat="45.10344" lon="4.91973">
        <ele>203.51400756836</ele>
        <time>2010-01-30T12:52:33Z</time>
      </trkpt>
      <trkpt lat="45.10342" lon="4.91965">
        <ele>203.91400146484</ele>
        <time>2010-01-30T12:52:34Z</time>
      </trkpt>
      <trkpt lat="45.10331" lon="4.91901">
        <ele>204.35099792481</ele>
        <time>2010-01-30T12:52:42Z</time>
      </trkpt>
      <trkpt lat="45.10324" lon="4.91862">
        <ele>205.44299316406</ele>
        <time>2010-01-30T12:52:47Z</time>
      </trkpt>
      <trkpt lat="45.10321" lon="4.91847">
        <ele>205.47500610352</ele>
        <time>2010-01-30T12:52:49Z</time>
      </trkpt>
      <trkpt lat="45.10318" lon="4.91831">
        <ele>205.01899719238</ele>
        <time>2010-01-30T12:52:51Z</time>
      </trkpt>
      <trkpt lat="45.10316" lon="4.91823">
        <ele>204.91200256348</ele>
        <time>2010-01-30T12:52:52Z</time>
      </trkpt>
      <trkpt lat="45.10313" lon="4.91801">
        <ele>205.4880065918</ele>
        <time>2010-01-30T12:52:55Z</time>
      </trkpt>
      <trkpt lat="45.10307" lon="4.9178">
        <ele>205.30299377441</ele>
        <time>2010-01-30T12:52:58Z</time>
      </trkpt>
      <trkpt lat="45.10305" lon="4.91773">
        <ele>205.19599914551</ele>
        <time>2010-01-30T12:52:59Z</time>
      </trkpt>
      <trkpt lat="45.10291" lon="4.91765">
        <ele>205.07099914551</ele>
        <time>2010-01-30T12:53:02Z</time>
      </trkpt>
      <trkpt lat="45.10286" lon="4.91762">
        <ele>204.78500366211</ele>
        <time>2010-01-30T12:53:03Z</time>
      </trkpt>
      <trkpt lat="45.10262" lon="4.91762">
        <ele>204.85000610352</ele>
        <time>2010-01-30T12:53:07Z</time>
      </trkpt>
      <trkpt lat="45.10226" lon="4.91769">
        <ele>204.21299743652</ele>
        <time>2010-01-30T12:53:13Z</time>
      </trkpt>
      <trkpt lat="45.10212" lon="4.91772">
        <ele>205.14599609375</ele>
        <time>2010-01-30T12:53:16Z</time>
      </trkpt>
      <trkpt lat="45.10215" lon="4.91764">
        <ele>205.0059967041</ele>
        <time>2010-01-30T12:53:17Z</time>
      </trkpt>
      <trkpt lat="45.10219" lon="4.91741">
        <ele>204.96899414062</ele>
        <time>2010-01-30T12:53:21Z</time>
      </trkpt>
      <trkpt lat="45.10221" lon="4.91728">
        <ele>205.38800048828</ele>
        <time>2010-01-30T12:53:23Z</time>
      </trkpt>
      <trkpt lat="45.10222" lon="4.91721">
        <ele>205.21600341797</ele>
        <time>2010-01-30T12:53:24Z</time>
      </trkpt>
      <trkpt lat="45.10223" lon="4.91714">
        <ele>206.10400390625</ele>
        <time>2010-01-30T12:53:25Z</time>
      </trkpt>
      <trkpt lat="45.10229" lon="4.91679">
        <ele>207.01499938965</ele>
        <time>2010-01-30T12:53:30Z</time>
      </trkpt>
      <trkpt lat="45.1024" lon="4.91607">
        <ele>207.22099304199</ele>
        <time>2010-01-30T12:53:40Z</time>
      </trkpt>
      <trkpt lat="45.10251" lon="4.91539">
        <ele>207.94000244141</ele>
        <time>2010-01-30T12:53:49Z</time>
      </trkpt>
      <trkpt lat="45.10261" lon="4.91475">
        <ele>209.23699951172</ele>
        <time>2010-01-30T12:53:58Z</time>
      </trkpt>
      <trkpt lat="45.10272" lon="4.91404">
        <ele>209.3390045166</ele>
        <time>2010-01-30T12:54:08Z</time>
      </trkpt>
      <trkpt lat="45.10276" lon="4.91353">
        <ele>210.71000671387</ele>
        <time>2010-01-30T12:54:15Z</time>
      </trkpt>
      <trkpt lat="45.10281" lon="4.91278">
        <ele>211.49600219727</ele>
        <time>2010-01-30T12:54:25Z</time>
      </trkpt>
      <trkpt lat="45.10281" lon="4.91271">
        <ele>211.53199768066</ele>
        <time>2010-01-30T12:54:26Z</time>
      </trkpt>
      <trkpt lat="45.10276" lon="4.91243">
        <ele>211.4109954834</ele>
        <time>2010-01-30T12:54:30Z</time>
      </trkpt>
      <trkpt lat="45.10271" lon="4.91243">
        <ele>211.22599792481</ele>
        <time>2010-01-30T12:54:31Z</time>
      </trkpt>
      <trkpt lat="45.10235" lon="4.91238">
        <ele>211.2200012207</ele>
        <time>2010-01-30T12:54:38Z</time>
      </trkpt>
      <trkpt lat="45.10176" lon="4.91224">
        <ele>212.03500366211</ele>
        <time>2010-01-30T12:54:49Z</time>
      </trkpt>
      <trkpt lat="45.10155" lon="4.91219">
        <ele>212.37300109863</ele>
        <time>2010-01-30T12:54:53Z</time>
      </trkpt>
      <trkpt lat="45.10149" lon="4.91218">
        <ele>212.46800231934</ele>
        <time>2010-01-30T12:54:54Z</time>
      </trkpt>
      <trkpt lat="45.10102" lon="4.912">
        <ele>213.68499755859</ele>
        <time>2010-01-30T12:55:03Z</time>
      </trkpt>
      <trkpt lat="45.10063" lon="4.91185">
        <ele>214.94200134277</ele>
        <time>2010-01-30T12:55:11Z</time>
      </trkpt>
      <trkpt lat="45.1002" lon="4.91158">
        <ele>217.31399536133</ele>
        <time>2010-01-30T12:55:21Z</time>
      </trkpt>
      <trkpt lat="45.09969" lon="4.91125">
        <ele>219.85600280762</ele>
        <time>2010-01-30T12:55:33Z</time>
      </trkpt>
      <trkpt lat="45.09936" lon="4.91098">
        <ele>221.51699829102</ele>
        <time>2010-01-30T12:55:41Z</time>
      </trkpt>
      <trkpt lat="45.099" lon="4.91059">
        <ele>223.61799621582</ele>
        <time>2010-01-30T12:55:51Z</time>
      </trkpt>
      <trkpt lat="45.0987" lon="4.91028">
        <ele>226.04100036621</ele>
        <time>2010-01-30T12:56:00Z</time>
      </trkpt>
      <trkpt lat="45.09854" lon="4.91004">
        <ele>227.95500183106</ele>
        <time>2010-01-30T12:56:06Z</time>
      </trkpt>
      <trkpt lat="45.09846" lon="4.90992">
        <ele>228.87600708008</ele>
        <time>2010-01-30T12:56:09Z</time>
      </trkpt>
      <trkpt lat="45.0983" lon="4.90964">
        <ele>231.17399597168</ele>
        <time>2010-01-30T12:56:16Z</time>
      </trkpt>
      <trkpt lat="45.09822" lon="4.90931">
        <ele>233.70199584961</ele>
        <time>2010-01-30T12:56:23Z</time>
      </trkpt>
      <trkpt lat="45.09813" lon="4.90901">
        <ele>236.28500366211</ele>
        <time>2010-01-30T12:56:30Z</time>
      </trkpt>
      <trkpt lat="45.09802" lon="4.90882">
        <ele>238.16900634766</ele>
        <time>2010-01-30T12:56:36Z</time>
      </trkpt>
      <trkpt lat="45.09791" lon="4.90866">
        <ele>240.29800415039</ele>
        <time>2010-01-30T12:56:42Z</time>
      </trkpt>
      <trkpt lat="45.09777" lon="4.90849">
        <ele>242.41200256348</ele>
        <time>2010-01-30T12:56:49Z</time>
      </trkpt>
      <trkpt lat="45.0976" lon="4.90828">
        <ele>244.75900268555</ele>
        <time>2010-01-30T12:56:57Z</time>
      </trkpt>
      <trkpt lat="45.09745" lon="4.908">
        <ele>246.24099731445</ele>
        <time>2010-01-30T12:57:05Z</time>
      </trkpt>
      <trkpt lat="45.09732" lon="4.90773">
        <ele>248.70399475098</ele>
        <time>2010-01-30T12:57:12Z</time>
      </trkpt>
      <trkpt lat="45.09723" lon="4.90756">
        <ele>250.25700378418</ele>
        <time>2010-01-30T12:57:18Z</time>
      </trkpt>
      <trkpt lat="45.09716" lon="4.90741">
        <ele>251.54100036621</ele>
        <time>2010-01-30T12:57:23Z</time>
      </trkpt>
      <trkpt lat="45.09713" lon="4.90735">
        <ele>251.92700195312</ele>
        <time>2010-01-30T12:57:25Z</time>
      </trkpt>
      <trkpt lat="45.09711" lon="4.90732">
        <ele>252.32699584961</ele>
        <time>2010-01-30T12:57:26Z</time>
      </trkpt>
      <trkpt lat="45.09702" lon="4.90712">
        <ele>253.85800170898</ele>
        <time>2010-01-30T12:57:32Z</time>
      </trkpt>
      <trkpt lat="45.0969" lon="4.90691">
        <ele>255.43899536133</ele>
        <time>2010-01-30T12:57:38Z</time>
      </trkpt>
      <trkpt lat="45.09678" lon="4.90672">
        <ele>256.9469909668</ele>
        <time>2010-01-30T12:57:42Z</time>
      </trkpt>
      <trkpt lat="45.09668" lon="4.90659">
        <ele>257.71499633789</ele>
        <time>2010-01-30T12:57:45Z</time>
      </trkpt>
      <trkpt lat="45.09658" lon="4.90649">
        <ele>258.68499755859</ele>
        <time>2010-01-30T12:57:48Z</time>
      </trkpt>
      <trkpt lat="45.09636" lon="4.90627">
        <ele>260.77099609375</ele>
        <time>2010-01-30T12:57:55Z</time>
      </trkpt>
      <trkpt lat="45.09624" lon="4.90615">
        <ele>261.5539855957</ele>
        <time>2010-01-30T12:57:59Z</time>
      </trkpt>
      <trkpt lat="45.09622" lon="4.90613">
        <ele>261.68798828125</ele>
        <time>2010-01-30T12:58:00Z</time>
      </trkpt>
      <trkpt lat="45.09619" lon="4.90611">
        <ele>261.71899414062</ele>
        <time>2010-01-30T12:58:01Z</time>
      </trkpt>
      <trkpt lat="45.09589" lon="4.90598">
        <ele>261.72601318359</ele>
        <time>2010-01-30T12:58:10Z</time>
      </trkpt>
      <trkpt lat="45.09578" lon="4.90595">
        <ele>261.32299804688</ele>
        <time>2010-01-30T12:58:13Z</time>
      </trkpt>
      <trkpt lat="45.09574" lon="4.90594">
        <ele>261.375</ele>
        <time>2010-01-30T12:58:14Z</time>
      </trkpt>
      <trkpt lat="45.09565" lon="4.90591">
        <ele>261.06900024414</ele>
        <time>2010-01-30T12:58:16Z</time>
      </trkpt>
      <trkpt lat="45.0955" lon="4.90587">
        <ele>260.24301147461</ele>
        <time>2010-01-30T12:58:19Z</time>
      </trkpt>
      <trkpt lat="45.09544" lon="4.90586">
        <ele>259.64199829102</ele>
        <time>2010-01-30T12:58:20Z</time>
      </trkpt>
      <trkpt lat="45.09533" lon="4.90583">
        <ele>259.36898803711</ele>
        <time>2010-01-30T12:58:22Z</time>
      </trkpt>
      <trkpt lat="45.09488" lon="4.90596">
        <ele>257.02200317383</ele>
        <time>2010-01-30T12:58:29Z</time>
      </trkpt>
      <trkpt lat="45.09444" lon="4.9061">
        <ele>255.125</ele>
        <time>2010-01-30T12:58:35Z</time>
      </trkpt>
      <trkpt lat="45.09392" lon="4.90627">
        <ele>252.79600524902</ele>
        <time>2010-01-30T12:58:42Z</time>
      </trkpt>
      <trkpt lat="45.09367" lon="4.90635">
        <ele>251.06199645996</ele>
        <time>2010-01-30T12:58:45Z</time>
      </trkpt>
      <trkpt lat="45.09323" lon="4.90645">
        <ele>247.46600341797</ele>
        <time>2010-01-30T12:58:50Z</time>
      </trkpt>
      <trkpt lat="45.09264" lon="4.90644">
        <ele>244.36500549316</ele>
        <time>2010-01-30T12:58:56Z</time>
      </trkpt>
      <trkpt lat="45.09214" lon="4.90635">
        <ele>241.9049987793</ele>
        <time>2010-01-30T12:59:01Z</time>
      </trkpt>
      <trkpt lat="45.09195" lon="4.90627">
        <ele>241.30099487305</ele>
        <time>2010-01-30T12:59:03Z</time>
      </trkpt>
      <trkpt lat="45.09155" lon="4.90616">
        <ele>239.23399353027</ele>
        <time>2010-01-30T12:59:07Z</time>
      </trkpt>
      <trkpt lat="45.09069" lon="4.90611">
        <ele>238.36399841309</ele>
        <time>2010-01-30T12:59:15Z</time>
      </trkpt>
      <trkpt lat="45.08994" lon="4.90603">
        <ele>234.33999633789</ele>
        <time>2010-01-30T12:59:22Z</time>
      </trkpt>
      <trkpt lat="45.08926" lon="4.90581">
        <ele>233.64700317383</ele>
        <time>2010-01-30T12:59:29Z</time>
      </trkpt>
      <trkpt lat="45.08857" lon="4.90554">
        <ele>231.5119934082</ele>
        <time>2010-01-30T12:59:37Z</time>
      </trkpt>
      <trkpt lat="45.08849" lon="4.9055">
        <ele>232.08799743652</ele>
        <time>2010-01-30T12:59:38Z</time>
      </trkpt>
      <trkpt lat="45.0881" lon="4.90525">
        <ele>230.97599792481</ele>
        <time>2010-01-30T12:59:43Z</time>
      </trkpt>
      <trkpt lat="45.08794" lon="4.90514">
        <ele>230.18400573731</ele>
        <time>2010-01-30T12:59:45Z</time>
      </trkpt>
      <trkpt lat="45.08731" lon="4.9049">
        <ele>228.06700134277</ele>
        <time>2010-01-30T12:59:52Z</time>
      </trkpt>
      <trkpt lat="45.08644" lon="4.90465">
        <ele>226.17900085449</ele>
        <time>2010-01-30T13:00:01Z</time>
      </trkpt>
      <trkpt lat="45.08581" lon="4.90447">
        <ele>226.04499816894</ele>
        <time>2010-01-30T13:00:08Z</time>
      </trkpt>
      <trkpt lat="45.08531" lon="4.90438">
        <ele>224.95399475098</ele>
        <time>2010-01-30T13:00:14Z</time>
      </trkpt>
      <trkpt lat="45.08501" lon="4.90424">
        <ele>222.51499938965</ele>
        <time>2010-01-30T13:00:18Z</time>
      </trkpt>
      <trkpt lat="45.08501" lon="4.90424">
        <ele>219.42700195312</ele>
        <time>2010-01-30T13:00:21Z</time>
      </trkpt>
      <trkpt lat="45.08461" lon="4.90392">
        <ele>218.43299865723</ele>
        <time>2010-01-30T13:00:22Z</time>
      </trkpt>
      <trkpt lat="45.08413" lon="4.90345">
        <ele>215.23199462891</ele>
        <time>2010-01-30T13:00:27Z</time>
      </trkpt>
      <trkpt lat="45.08393" lon="4.90326">
        <ele>213.46000671387</ele>
        <time>2010-01-30T13:00:29Z</time>
      </trkpt>
      <trkpt lat="45.08383" lon="4.90316">
        <ele>213.24899291992</ele>
        <time>2010-01-30T13:00:30Z</time>
      </trkpt>
      <trkpt lat="45.08374" lon="4.90307">
        <ele>212.72099304199</ele>
        <time>2010-01-30T13:00:31Z</time>
      </trkpt>
      <trkpt lat="45.08319" lon="4.90257">
        <ele>209.58799743652</ele>
        <time>2010-01-30T13:00:37Z</time>
      </trkpt>
      <trkpt lat="45.08289" lon="4.90232">
        <ele>207.26400756836</ele>
        <time>2010-01-30T13:00:40Z</time>
      </trkpt>
      <trkpt lat="45.08269" lon="4.90215">
        <ele>206.36099243164</ele>
        <time>2010-01-30T13:00:42Z</time>
      </trkpt>
      <trkpt lat="45.08258" lon="4.90206">
        <ele>206.03300476074</ele>
        <time>2010-01-30T13:00:43Z</time>
      </trkpt>
      <trkpt lat="45.08228" lon="4.90181">
        <ele>204.71499633789</ele>
        <time>2010-01-30T13:00:46Z</time>
      </trkpt>
      <trkpt lat="45.08218" lon="4.90173">
        <ele>204.38499450684</ele>
        <time>2010-01-30T13:00:47Z</time>
      </trkpt>
      <trkpt lat="45.08152" lon="4.90103">
        <ele>200.66200256348</ele>
        <time>2010-01-30T13:00:54Z</time>
      </trkpt>
      <trkpt lat="45.08133" lon="4.90083">
        <ele>199.94900512695</ele>
        <time>2010-01-30T13:00:56Z</time>
      </trkpt>
      <trkpt lat="45.08115" lon="4.90063">
        <ele>199.14399719238</ele>
        <time>2010-01-30T13:00:58Z</time>
      </trkpt>
      <trkpt lat="45.08111" lon="4.90059">
        <ele>198.61199951172</ele>
        <time>2010-01-30T13:00:59Z</time>
      </trkpt>
      <trkpt lat="45.08064" lon="4.90016">
        <ele>195.93800354004</ele>
        <time>2010-01-30T13:01:04Z</time>
      </trkpt>
      <trkpt lat="45.08064" lon="4.90016">
        <ele>195.75300598144</ele>
        <time>2010-01-30T13:01:05Z</time>
      </trkpt>
      <trkpt lat="45.08032" lon="4.89978">
        <ele>195.17799377441</ele>
        <time>2010-01-30T13:01:07Z</time>
      </trkpt>
      <trkpt lat="45.08026" lon="4.89966">
        <ele>194.70700073242</ele>
        <time>2010-01-30T13:01:08Z</time>
      </trkpt>
      <trkpt lat="45.08008" lon="4.89942">
        <ele>193.40899658203</ele>
        <time>2010-01-30T13:01:11Z</time>
      </trkpt>
      <trkpt lat="45.08001" lon="4.89946">
        <ele>193.12600708008</ele>
        <time>2010-01-30T13:01:12Z</time>
      </trkpt>
      <trkpt lat="45.07968" lon="4.89949">
        <ele>191.94299316406</ele>
        <time>2010-01-30T13:01:16Z</time>
      </trkpt>
      <trkpt lat="45.07964" lon="4.89937">
        <ele>191.1369934082</ele>
        <time>2010-01-30T13:01:17Z</time>
      </trkpt>
      <trkpt lat="45.07951" lon="4.89908">
        <ele>190.20799255371</ele>
        <time>2010-01-30T13:01:20Z</time>
      </trkpt>
      <trkpt lat="45.07948" lon="4.89898">
        <ele>189.89900207519</ele>
        <time>2010-01-30T13:01:21Z</time>
      </trkpt>
      <trkpt lat="45.07921" lon="4.89835">
        <ele>188.83000183106</ele>
        <time>2010-01-30T13:01:28Z</time>
      </trkpt>
      <trkpt lat="45.07895" lon="4.89775">
        <ele>188.19299316406</ele>
        <time>2010-01-30T13:01:35Z</time>
      </trkpt>
      <trkpt lat="45.07887" lon="4.8976">
        <ele>187.95799255371</ele>
        <time>2010-01-30T13:01:37Z</time>
      </trkpt>
      <trkpt lat="45.07875" lon="4.89741">
        <ele>187.59800720215</ele>
        <time>2010-01-30T13:01:41Z</time>
      </trkpt>
      <trkpt lat="45.07882" lon="4.8968">
        <ele>187.18299865723</ele>
        <time>2010-01-30T13:01:45Z</time>
      </trkpt>
      <trkpt lat="45.07886" lon="4.89637">
        <ele>186.36599731445</ele>
        <time>2010-01-30T13:01:49Z</time>
      </trkpt>
      <trkpt lat="45.07892" lon="4.89565">
        <ele>186.31500244141</ele>
        <time>2010-01-30T13:01:56Z</time>
      </trkpt>
      <trkpt lat="45.07892" lon="4.89509">
        <ele>186.02400207519</ele>
        <time>2010-01-30T13:02:02Z</time>
      </trkpt>
      <trkpt lat="45.07883" lon="4.89432">
        <ele>186.10099792481</ele>
        <time>2010-01-30T13:02:11Z</time>
      </trkpt>
      <trkpt lat="45.0787" lon="4.89382">
        <ele>185.99200439453</ele>
        <time>2010-01-30T13:02:17Z</time>
      </trkpt>
      <trkpt lat="45.07848" lon="4.893">
        <ele>186.82499694824</ele>
        <time>2010-01-30T13:02:27Z</time>
      </trkpt>
      <trkpt lat="45.07824" lon="4.89239">
        <ele>186.73899841309</ele>
        <time>2010-01-30T13:02:35Z</time>
      </trkpt>
      <trkpt lat="45.07798" lon="4.89183">
        <ele>185.62399291992</ele>
        <time>2010-01-30T13:02:41Z</time>
      </trkpt>
      <trkpt lat="45.07791" lon="4.89163">
        <ele>184.40800476074</ele>
        <time>2010-01-30T13:02:43Z</time>
      </trkpt>
      <trkpt lat="45.0777" lon="4.89104">
        <ele>181.39700317383</ele>
        <time>2010-01-30T13:02:48Z</time>
      </trkpt>
      <trkpt lat="45.07765" lon="4.8909">
        <ele>179.75999450684</ele>
        <time>2010-01-30T13:02:49Z</time>
      </trkpt>
      <trkpt lat="45.07753" lon="4.89066">
        <ele>179.07000732422</ele>
        <time>2010-01-30T13:02:51Z</time>
      </trkpt>
      <trkpt lat="45.07726" lon="4.89021">
        <ele>177.84300231934</ele>
        <time>2010-01-30T13:02:55Z</time>
      </trkpt>
      <trkpt lat="45.07692" lon="4.8899">
        <ele>177.19599914551</ele>
        <time>2010-01-30T13:02:59Z</time>
      </trkpt>
      <trkpt lat="45.07656" lon="4.88967">
        <ele>175.89999389648</ele>
        <time>2010-01-30T13:03:03Z</time>
      </trkpt>
      <trkpt lat="45.07594" lon="4.88962">
        <ele>175.52000427246</ele>
        <time>2010-01-30T13:03:10Z</time>
      </trkpt>
      <trkpt lat="45.07577" lon="4.88964">
        <ele>175.70599365234</ele>
        <time>2010-01-30T13:03:12Z</time>
      </trkpt>
      <trkpt lat="45.07562" lon="4.88965">
        <ele>174.80099487305</ele>
        <time>2010-01-30T13:03:15Z</time>
      </trkpt>
      <trkpt lat="45.07536" lon="4.88952">
        <ele>174.30299377441</ele>
        <time>2010-01-30T13:03:19Z</time>
      </trkpt>
      <trkpt lat="45.07536" lon="4.88952">
        <ele>173.91499328613</ele>
        <time>2010-01-30T13:03:20Z</time>
      </trkpt>
      <trkpt lat="45.07457" lon="4.88928">
        <ele>173.48199462891</ele>
        <time>2010-01-30T13:03:26Z</time>
      </trkpt>
      <trkpt lat="45.07425" lon="4.88899">
        <ele>173.21299743652</ele>
        <time>2010-01-30T13:03:30Z</time>
      </trkpt>
      <trkpt lat="45.074" lon="4.8886">
        <ele>171.30400085449</ele>
        <time>2010-01-30T13:03:34Z</time>
      </trkpt>
      <trkpt lat="45.07385" lon="4.88813">
        <ele>171.56100463867</ele>
        <time>2010-01-30T13:03:38Z</time>
      </trkpt>
      <trkpt lat="45.07375" lon="4.88754">
        <ele>169.96600341797</ele>
        <time>2010-01-30T13:03:43Z</time>
      </trkpt>
      <trkpt lat="45.07365" lon="4.88669">
        <ele>168.83500671387</ele>
        <time>2010-01-30T13:03:51Z</time>
      </trkpt>
      <trkpt lat="45.07351" lon="4.88595">
        <ele>167.09599304199</ele>
        <time>2010-01-30T13:03:58Z</time>
      </trkpt>
      <trkpt lat="45.07328" lon="4.88513">
        <ele>165.77799987793</ele>
        <time>2010-01-30T13:04:06Z</time>
      </trkpt>
      <trkpt lat="45.07301" lon="4.88424">
        <ele>165.63000488281</ele>
        <time>2010-01-30T13:04:15Z</time>
      </trkpt>
      <trkpt lat="45.07276" lon="4.88369">
        <ele>164.10099792481</ele>
        <time>2010-01-30T13:04:21Z</time>
      </trkpt>
      <trkpt lat="45.07232" lon="4.88288">
        <ele>162.62199401856</ele>
        <time>2010-01-30T13:04:30Z</time>
      </trkpt>
      <trkpt lat="45.07168" lon="4.88178">
        <ele>160.96099853516</ele>
        <time>2010-01-30T13:04:42Z</time>
      </trkpt>
      <trkpt lat="45.07125" lon="4.88105">
        <ele>160.08500671387</ele>
        <time>2010-01-30T13:04:50Z</time>
      </trkpt>
      <trkpt lat="45.07095" lon="4.88037">
        <ele>162.58700561523</ele>
        <time>2010-01-30T13:04:57Z</time>
      </trkpt>
      <trkpt lat="45.07091" lon="4.88027">
        <ele>161.62199401856</ele>
        <time>2010-01-30T13:04:58Z</time>
      </trkpt>
      <trkpt lat="45.0708" lon="4.87998">
        <ele>160.2859954834</ele>
        <time>2010-01-30T13:05:01Z</time>
      </trkpt>
      <trkpt lat="45.07063" lon="4.87952">
        <ele>160.15600585938</ele>
        <time>2010-01-30T13:05:06Z</time>
      </trkpt>
      <trkpt lat="45.07035" lon="4.87865">
        <ele>159.76300048828</ele>
        <time>2010-01-30T13:05:15Z</time>
      </trkpt>
      <trkpt lat="45.07016" lon="4.87796">
        <ele>158.69000244141</ele>
        <time>2010-01-30T13:05:22Z</time>
      </trkpt>
      <trkpt lat="45.0699" lon="4.87704">
        <ele>156.88000488281</ele>
        <time>2010-01-30T13:05:31Z</time>
      </trkpt>
      <trkpt lat="45.06987" lon="4.87693">
        <ele>156.68600463867</ele>
        <time>2010-01-30T13:05:32Z</time>
      </trkpt>
      <trkpt lat="45.06974" lon="4.8765">
        <ele>155.96699523926</ele>
        <time>2010-01-30T13:05:36Z</time>
      </trkpt>
      <trkpt lat="45.06971" lon="4.87639">
        <ele>155.87300109863</ele>
        <time>2010-01-30T13:05:37Z</time>
      </trkpt>
      <trkpt lat="45.06946" lon="4.87575">
        <ele>154.42700195312</ele>
        <time>2010-01-30T13:05:43Z</time>
      </trkpt>
      <trkpt lat="45.06912" lon="4.8751">
        <ele>153.34100341797</ele>
        <time>2010-01-30T13:05:50Z</time>
      </trkpt>
      <trkpt lat="45.06887" lon="4.87467">
        <ele>152.45500183106</ele>
        <time>2010-01-30T13:05:55Z</time>
      </trkpt>
      <trkpt lat="45.06867" lon="4.87435">
        <ele>153.68299865723</ele>
        <time>2010-01-30T13:05:59Z</time>
      </trkpt>
      <trkpt lat="45.0685" lon="4.87407">
        <ele>154.30299377441</ele>
        <time>2010-01-30T13:06:03Z</time>
      </trkpt>
      <trkpt lat="45.06845" lon="4.87398">
        <ele>155.48500061035</ele>
        <time>2010-01-30T13:06:04Z</time>
      </trkpt>
      <trkpt lat="45.06845" lon="4.87398">
        <ele>153.41799926758</ele>
        <time>2010-01-30T13:06:07Z</time>
      </trkpt>
      <trkpt lat="45.06869" lon="4.87285">
        <ele>151.53999328613</ele>
        <time>2010-01-30T13:06:15Z</time>
      </trkpt>
      <trkpt lat="45.06879" lon="4.87235">
        <ele>152.13299560547</ele>
        <time>2010-01-30T13:06:21Z</time>
      </trkpt>
      <trkpt lat="45.069" lon="4.87187">
        <ele>152.14999389648</ele>
        <time>2010-01-30T13:06:26Z</time>
      </trkpt>
      <trkpt lat="45.06932" lon="4.87122">
        <ele>150.43499755859</ele>
        <time>2010-01-30T13:06:34Z</time>
      </trkpt>
      <trkpt lat="45.06968" lon="4.87054">
        <ele>150.88400268555</ele>
        <time>2010-01-30T13:06:43Z</time>
      </trkpt>
      <trkpt lat="45.06987" lon="4.87008">
        <ele>151.99200439453</ele>
        <time>2010-01-30T13:06:50Z</time>
      </trkpt>
      <trkpt lat="45.07006" lon="4.86922">
        <ele>150.61399841309</ele>
        <time>2010-01-30T13:06:59Z</time>
      </trkpt>
      <trkpt lat="45.07021" lon="4.8684">
        <ele>149.82800292969</ele>
        <time>2010-01-30T13:07:08Z</time>
      </trkpt>
      <trkpt lat="45.07023" lon="4.86821">
        <ele>148.88999938965</ele>
        <time>2010-01-30T13:07:10Z</time>
      </trkpt>
      <trkpt lat="45.07029" lon="4.86767">
        <ele>147.57000732422</ele>
        <time>2010-01-30T13:07:15Z</time>
      </trkpt>
      <trkpt lat="45.07036" lon="4.8671">
        <ele>145.69599914551</ele>
        <time>2010-01-30T13:07:20Z</time>
      </trkpt>
      <trkpt lat="45.07057" lon="4.86657">
        <ele>144.09100341797</ele>
        <time>2010-01-30T13:07:25Z</time>
      </trkpt>
      <trkpt lat="45.07068" lon="4.86638">
        <ele>143.23300170898</ele>
        <time>2010-01-30T13:07:27Z</time>
      </trkpt>
      <trkpt lat="45.07078" lon="4.86618">
        <ele>142.64199829102</ele>
        <time>2010-01-30T13:07:29Z</time>
      </trkpt>
      <trkpt lat="45.07093" lon="4.86565">
        <ele>140.86500549316</ele>
        <time>2010-01-30T13:07:34Z</time>
      </trkpt>
      <trkpt lat="45.0709" lon="4.8653">
        <ele>139.56500244141</ele>
        <time>2010-01-30T13:07:37Z</time>
      </trkpt>
      <trkpt lat="45.07076" lon="4.86503">
        <ele>138.58799743652</ele>
        <time>2010-01-30T13:07:40Z</time>
      </trkpt>
      <trkpt lat="45.07068" lon="4.86488">
        <ele>139.11500549316</ele>
        <time>2010-01-30T13:07:44Z</time>
      </trkpt>
      <trkpt lat="45.07064" lon="4.8645">
        <ele>138.39799499512</ele>
        <time>2010-01-30T13:07:48Z</time>
      </trkpt>
      <trkpt lat="45.07055" lon="4.86391">
        <ele>138.02900695801</ele>
        <time>2010-01-30T13:07:51Z</time>
      </trkpt>
      <trkpt lat="45.0705" lon="4.86385">
        <ele>138.15600585938</ele>
        <time>2010-01-30T13:07:52Z</time>
      </trkpt>
      <trkpt lat="45.07025" lon="4.86368">
        <ele>139.16700744629</ele>
        <time>2010-01-30T13:07:56Z</time>
      </trkpt>
      <trkpt lat="45.07038" lon="4.86337">
        <ele>138.42399597168</ele>
        <time>2010-01-30T13:07:58Z</time>
      </trkpt>
      <trkpt lat="45.07064" lon="4.86269">
        <ele>138.01699829102</ele>
        <time>2010-01-30T13:08:06Z</time>
      </trkpt>
      <trkpt lat="45.07074" lon="4.86213">
        <ele>137.18699645996</ele>
        <time>2010-01-30T13:08:12Z</time>
      </trkpt>
      <trkpt lat="45.07074" lon="4.86144">
        <ele>136.92799377441</ele>
        <time>2010-01-30T13:08:19Z</time>
      </trkpt>
      <trkpt lat="45.0707" lon="4.8607">
        <ele>136.68299865723</ele>
        <time>2010-01-30T13:08:26Z</time>
      </trkpt>
      <trkpt lat="45.07068" lon="4.86005">
        <ele>136.16700744629</ele>
        <time>2010-01-30T13:08:32Z</time>
      </trkpt>
      <trkpt lat="45.07068" lon="4.85995">
        <ele>135.86700439453</ele>
        <time>2010-01-30T13:08:33Z</time>
      </trkpt>
      <trkpt lat="45.07068" lon="4.85921">
        <ele>136.05000305176</ele>
        <time>2010-01-30T13:08:40Z</time>
      </trkpt>
      <trkpt lat="45.07076" lon="4.85864">
        <ele>136.8809967041</ele>
        <time>2010-01-30T13:08:46Z</time>
      </trkpt>
      <trkpt lat="45.07078" lon="4.85855">
        <ele>137.53399658203</ele>
        <time>2010-01-30T13:08:47Z</time>
      </trkpt>
      <trkpt lat="45.07081" lon="4.85836">
        <ele>137.65800476074</ele>
        <time>2010-01-30T13:08:52Z</time>
      </trkpt>
      <trkpt lat="45.07081" lon="4.85836">
        <ele>136.81599426269</ele>
        <time>2010-01-30T13:08:54Z</time>
      </trkpt>
      <trkpt lat="45.07086" lon="4.85785">
        <ele>136.13600158691</ele>
        <time>2010-01-30T13:08:57Z</time>
      </trkpt>
      <trkpt lat="45.07087" lon="4.85776">
        <ele>135.67700195312</ele>
        <time>2010-01-30T13:08:58Z</time>
      </trkpt>
      <trkpt lat="45.0709" lon="4.85663">
        <ele>132.77699279785</ele>
        <time>2010-01-30T13:09:08Z</time>
      </trkpt>
      <trkpt lat="45.07095" lon="4.85573">
        <ele>131.45399475098</ele>
        <time>2010-01-30T13:09:16Z</time>
      </trkpt>
      <trkpt lat="45.07098" lon="4.85497">
        <ele>131.1609954834</ele>
        <time>2010-01-30T13:09:23Z</time>
      </trkpt>
      <trkpt lat="45.07098" lon="4.85432">
        <ele>131.07200622559</ele>
        <time>2010-01-30T13:09:29Z</time>
      </trkpt>
      <trkpt lat="45.07095" lon="4.85342">
        <ele>129.85200500488</ele>
        <time>2010-01-30T13:09:37Z</time>
      </trkpt>
      <trkpt lat="45.07094" lon="4.85264">
        <ele>129.39999389648</ele>
        <time>2010-01-30T13:09:44Z</time>
      </trkpt>
      <trkpt lat="45.07094" lon="4.85253">
        <ele>129.06900024414</ele>
        <time>2010-01-30T13:09:45Z</time>
      </trkpt>
      <trkpt lat="45.07084" lon="4.85147">
        <ele>128.2380065918</ele>
        <time>2010-01-30T13:09:55Z</time>
      </trkpt>
      <trkpt lat="45.07077" lon="4.85076">
        <ele>127.97599792481</ele>
        <time>2010-01-30T13:10:02Z</time>
      </trkpt>
      <trkpt lat="45.07076" lon="4.85023">
        <ele>128.14300537109</ele>
        <time>2010-01-30T13:10:07Z</time>
      </trkpt>
      <trkpt lat="45.07077" lon="4.85014">
        <ele>128.45399475098</ele>
        <time>2010-01-30T13:10:08Z</time>
      </trkpt>
      <trkpt lat="45.07084" lon="4.84956">
        <ele>128.02000427246</ele>
        <time>2010-01-30T13:10:14Z</time>
      </trkpt>
      <trkpt lat="45.07087" lon="4.8493">
        <ele>128.23199462891</ele>
        <time>2010-01-30T13:10:17Z</time>
      </trkpt>
      <trkpt lat="45.07093" lon="4.84882">
        <ele>127.68800354004</ele>
        <time>2010-01-30T13:10:22Z</time>
      </trkpt>
      <trkpt lat="45.07102" lon="4.84813">
        <ele>127.51599884033</ele>
        <time>2010-01-30T13:10:29Z</time>
      </trkpt>
      <trkpt lat="45.07109" lon="4.84755">
        <ele>127.91600036621</ele>
        <time>2010-01-30T13:10:35Z</time>
      </trkpt>
      <trkpt lat="45.07119" lon="4.84673">
        <ele>127.65000152588</ele>
        <time>2010-01-30T13:10:44Z</time>
      </trkpt>
      <trkpt lat="45.07128" lon="4.84602">
        <ele>126.49600219727</ele>
        <time>2010-01-30T13:10:51Z</time>
      </trkpt>
      <trkpt lat="45.0714" lon="4.84511">
        <ele>125.51899719238</ele>
        <time>2010-01-30T13:11:00Z</time>
      </trkpt>
      <trkpt lat="45.07176" lon="4.8443">
        <ele>125.17099761963</ele>
        <time>2010-01-30T13:11:09Z</time>
      </trkpt>
      <trkpt lat="45.07187" lon="4.84395">
        <ele>125.0830001831</ele>
        <time>2010-01-30T13:11:13Z</time>
      </trkpt>
      <trkpt lat="45.07198" lon="4.84351">
        <ele>125.47399902344</ele>
        <time>2010-01-30T13:11:18Z</time>
      </trkpt>
      <trkpt lat="45.07188" lon="4.84329">
        <ele>125.15200042725</ele>
        <time>2010-01-30T13:11:21Z</time>
      </trkpt>
      <trkpt lat="45.07172" lon="4.84325">
        <ele>125.32900238037</ele>
        <time>2010-01-30T13:11:24Z</time>
      </trkpt>
      <trkpt lat="45.07142" lon="4.84323">
        <ele>125.7679977417</ele>
        <time>2010-01-30T13:11:28Z</time>
      </trkpt>
      <trkpt lat="45.07135" lon="4.84322">
        <ele>125.53900146484</ele>
        <time>2010-01-30T13:11:29Z</time>
      </trkpt>
      <trkpt lat="45.07084" lon="4.84326">
        <ele>125.87400054932</ele>
        <time>2010-01-30T13:11:38Z</time>
      </trkpt>
      <trkpt lat="45.07067" lon="4.84328">
        <ele>125.70300292969</ele>
        <time>2010-01-30T13:11:41Z</time>
      </trkpt>
      <trkpt lat="45.07053" lon="4.84329">
        <ele>125.57199859619</ele>
        <time>2010-01-30T13:11:44Z</time>
      </trkpt>
      <trkpt lat="45.07051" lon="4.8433">
        <ele>125.43299865723</ele>
        <time>2010-01-30T13:11:45Z</time>
      </trkpt>
      <trkpt lat="45.07051" lon="4.8433">
        <ele>125.46099853516</ele>
        <time>2010-01-30T13:11:47Z</time>
      </trkpt>
      <trkpt lat="45.07051" lon="4.8433">
        <ele>125.40100097656</ele>
        <time>2010-01-30T13:11:52Z</time>
      </trkpt>
      <trkpt lat="45.0703" lon="4.84332">
        <ele>125.79599761963</ele>
        <time>2010-01-30T13:11:57Z</time>
      </trkpt>
      <trkpt lat="45.0703" lon="4.84334">
        <ele>125.71199798584</ele>
        <time>2010-01-30T13:11:59Z</time>
      </trkpt>
      <trkpt lat="45.06975" lon="4.84338">
        <ele>125.1429977417</ele>
        <time>2010-01-30T13:12:07Z</time>
      </trkpt>
      <trkpt lat="45.06928" lon="4.84342">
        <ele>124.92600250244</ele>
        <time>2010-01-30T13:12:15Z</time>
      </trkpt>
      <trkpt lat="45.06923" lon="4.84343">
        <ele>125.28600311279</ele>
        <time>2010-01-30T13:12:16Z</time>
      </trkpt>
      <trkpt lat="45.06902" lon="4.84344">
        <ele>124.672996521</ele>
        <time>2010-01-30T13:12:21Z</time>
      </trkpt>
      <trkpt lat="45.06893" lon="4.84345">
        <ele>124.57499694824</ele>
        <time>2010-01-30T13:12:27Z</time>
      </trkpt>
      <trkpt lat="45.06892" lon="4.84345">
        <ele>124.6549987793</ele>
        <time>2010-01-30T13:12:28Z</time>
      </trkpt>
      <trkpt lat="45.0689" lon="4.84345">
        <ele>124.62400054932</ele>
        <time>2010-01-30T13:12:31Z</time>
      </trkpt>
      <trkpt lat="45.06889" lon="4.84345">
        <ele>124.6070022583</ele>
        <time>2010-01-30T13:13:34Z</time>
      </trkpt>
      <trkpt lat="45.06888" lon="4.84345">
        <ele>124.63899993897</ele>
        <time>2010-01-30T13:13:36Z</time>
      </trkpt>
      <trkpt lat="45.06888" lon="4.84345">
        <ele>124.27300262451</ele>
        <time>2010-01-30T13:13:55Z</time>
      </trkpt>
      <trkpt lat="45.06881" lon="4.84346">
        <ele>124.37300109863</ele>
        <time>2010-01-30T13:13:57Z</time>
      </trkpt>
      <trkpt lat="45.06873" lon="4.84337">
        <ele>124.24299621582</ele>
        <time>2010-01-30T13:14:01Z</time>
      </trkpt>
      <trkpt lat="45.06875" lon="4.84332">
        <ele>124.5059967041</ele>
        <time>2010-01-30T13:14:02Z</time>
      </trkpt>
      <trkpt lat="45.06889" lon="4.84281">
        <ele>124.60099792481</ele>
        <time>2010-01-30T13:14:11Z</time>
      </trkpt>
      <trkpt lat="45.06898" lon="4.8425">
        <ele>124.58599853516</ele>
        <time>2010-01-30T13:14:18Z</time>
      </trkpt>
      <trkpt lat="45.06898" lon="4.84248">
        <ele>124.53199768066</ele>
        <time>2010-01-30T13:14:19Z</time>
      </trkpt>
      <trkpt lat="45.069" lon="4.84242">
        <ele>124.56300354004</ele>
        <time>2010-01-30T13:14:23Z</time>
      </trkpt>
      <trkpt lat="45.06894" lon="4.84249">
        <ele>124.45600128174</ele>
        <time>2010-01-30T13:14:27Z</time>
      </trkpt>
      <trkpt lat="45.06903" lon="4.8423">
        <ele>124.44699859619</ele>
        <time>2010-01-30T13:15:10Z</time>
      </trkpt>
      <trkpt lat="45.06893" lon="4.84213">
        <ele>125.07399749756</ele>
        <time>2010-01-30T13:15:15Z</time>
      </trkpt>
      <trkpt lat="45.06886" lon="4.84207">
        <ele>125.28800201416</ele>
        <time>2010-01-30T13:15:17Z</time>
      </trkpt>
      <trkpt lat="45.06876" lon="4.842">
        <ele>125.98600006103</ele>
        <time>2010-01-30T13:15:20Z</time>
      </trkpt>
      <trkpt lat="45.06836" lon="4.84174">
        <ele>126.82099914551</ele>
        <time>2010-01-30T13:15:29Z</time>
      </trkpt>
      <trkpt lat="45.06798" lon="4.8415">
        <ele>128.40699768066</ele>
        <time>2010-01-30T13:15:39Z</time>
      </trkpt>
      <trkpt lat="45.06771" lon="4.84127">
        <ele>128.79100036621</ele>
        <time>2010-01-30T13:15:43Z</time>
      </trkpt>
      <trkpt lat="45.06767" lon="4.84123">
        <ele>129.24200439453</ele>
        <time>2010-01-30T13:15:44Z</time>
      </trkpt>
      <trkpt lat="45.06741" lon="4.84097">
        <ele>129.93600463867</ele>
        <time>2010-01-30T13:15:50Z</time>
      </trkpt>
      <trkpt lat="45.06736" lon="4.84092">
        <ele>130.97799682617</ele>
        <time>2010-01-30T13:15:51Z</time>
      </trkpt>
      <trkpt lat="45.06713" lon="4.84068">
        <ele>131.21499633789</ele>
        <time>2010-01-30T13:15:56Z</time>
      </trkpt>
      <trkpt lat="45.06663" lon="4.84019">
        <ele>131.30700683594</ele>
        <time>2010-01-30T13:16:06Z</time>
      </trkpt>
      <trkpt lat="45.06626" lon="4.84042">
        <ele>130.77600097656</ele>
        <time>2010-01-30T13:16:12Z</time>
      </trkpt>
      <trkpt lat="45.06575" lon="4.84013">
        <ele>129.25900268555</ele>
        <time>2010-01-30T13:16:17Z</time>
      </trkpt>
      <trkpt lat="45.06568" lon="4.84009">
        <ele>129.18499755859</ele>
        <time>2010-01-30T13:16:18Z</time>
      </trkpt>
      <trkpt lat="45.06566" lon="4.84008">
        <ele>128.74600219727</ele>
        <time>2010-01-30T13:16:22Z</time>
      </trkpt>
      <trkpt lat="45.06527" lon="4.83986">
        <ele>127.7919998169</ele>
        <time>2010-01-30T13:16:25Z</time>
      </trkpt>
      <trkpt lat="45.06532" lon="4.84008">
        <ele>127.60800170898</ele>
        <time>2010-01-30T13:16:27Z</time>
      </trkpt>
      <trkpt lat="45.06532" lon="4.84008">
        <ele>128.27600097656</ele>
        <time>2010-01-30T13:16:32Z</time>
      </trkpt>
      <trkpt lat="45.06536" lon="4.84063">
        <ele>126.58399963379</ele>
        <time>2010-01-30T13:16:34Z</time>
      </trkpt>
      <trkpt lat="45.06532" lon="4.84081">
        <ele>126.04299926758</ele>
        <time>2010-01-30T13:16:36Z</time>
      </trkpt>
      <trkpt lat="45.06526" lon="4.84107">
        <ele>125.94300079346</ele>
        <time>2010-01-30T13:16:39Z</time>
      </trkpt>
      <trkpt lat="45.06524" lon="4.84115">
        <ele>125.61100006103</ele>
        <time>2010-01-30T13:16:40Z</time>
      </trkpt>
      <trkpt lat="45.0652" lon="4.84131">
        <ele>125.87100219727</ele>
        <time>2010-01-30T13:16:42Z</time>
      </trkpt>
      <trkpt lat="45.0651" lon="4.84171">
        <ele>125.49700164795</ele>
        <time>2010-01-30T13:16:49Z</time>
      </trkpt>
      <trkpt lat="45.06497" lon="4.8423">
        <ele>125.91200256348</ele>
        <time>2010-01-30T13:16:55Z</time>
      </trkpt>
      <trkpt lat="45.0649" lon="4.84262">
        <ele>125.8450012207</ele>
        <time>2010-01-30T13:16:59Z</time>
      </trkpt>
      <trkpt lat="45.06483" lon="4.84294">
        <ele>125.96399688721</ele>
        <time>2010-01-30T13:17:03Z</time>
      </trkpt>
      <trkpt lat="45.06468" lon="4.84369">
        <ele>126.21199798584</ele>
        <time>2010-01-30T13:17:12Z</time>
      </trkpt>
      <trkpt lat="45.06461" lon="4.84427">
        <ele>125.47699737549</ele>
        <time>2010-01-30T13:17:19Z</time>
      </trkpt>
      <trkpt lat="45.06459" lon="4.8445">
        <ele>125.6309967041</ele>
        <time>2010-01-30T13:17:26Z</time>
      </trkpt>
      <trkpt lat="45.06446" lon="4.84536">
        <ele>125.48400115967</ele>
        <time>2010-01-30T13:17:34Z</time>
      </trkpt>
      <trkpt lat="45.06431" lon="4.84618">
        <ele>124.89199829102</ele>
        <time>2010-01-30T13:17:43Z</time>
      </trkpt>
      <trkpt lat="45.06419" lon="4.84676">
        <ele>125.23699951172</ele>
        <time>2010-01-30T13:17:50Z</time>
      </trkpt>
      <trkpt lat="45.06399" lon="4.84765">
        <ele>125.06800079346</ele>
        <time>2010-01-30T13:18:01Z</time>
      </trkpt>
      <trkpt lat="45.06386" lon="4.84822">
        <ele>125.51899719238</ele>
        <time>2010-01-30T13:18:08Z</time>
      </trkpt>
      <trkpt lat="45.0637" lon="4.84874">
        <ele>125.43599700928</ele>
        <time>2010-01-30T13:18:15Z</time>
      </trkpt>
      <trkpt lat="45.06348" lon="4.84943">
        <ele>125.46299743652</ele>
        <time>2010-01-30T13:18:24Z</time>
      </trkpt>
      <trkpt lat="45.06329" lon="4.85007">
        <ele>125.0299987793</ele>
        <time>2010-01-30T13:18:32Z</time>
      </trkpt>
      <trkpt lat="45.06314" lon="4.85055">
        <ele>124.80200195312</ele>
        <time>2010-01-30T13:18:38Z</time>
      </trkpt>
      <trkpt lat="45.06296" lon="4.85094">
        <ele>123.97299957275</ele>
        <time>2010-01-30T13:18:43Z</time>
      </trkpt>
      <trkpt lat="45.06296" lon="4.85094">
        <ele>123.00199890137</ele>
        <time>2010-01-30T13:18:46Z</time>
      </trkpt>
      <trkpt lat="45.06242" lon="4.85159">
        <ele>122.40799713135</ele>
        <time>2010-01-30T13:18:53Z</time>
      </trkpt>
      <trkpt lat="45.06231" lon="4.8517">
        <ele>122.31300354004</ele>
        <time>2010-01-30T13:18:55Z</time>
      </trkpt>
      <trkpt lat="45.06214" lon="4.85196">
        <ele>122.65000152588</ele>
        <time>2010-01-30T13:18:59Z</time>
      </trkpt>
      <trkpt lat="45.0621" lon="4.85204">
        <ele>122.38600158691</ele>
        <time>2010-01-30T13:19:00Z</time>
      </trkpt>
      <trkpt lat="45.06189" lon="4.85261">
        <ele>121.75099945068</ele>
        <time>2010-01-30T13:19:08Z</time>
      </trkpt>
      <trkpt lat="45.06152" lon="4.8534">
        <ele>121.18800354004</ele>
        <time>2010-01-30T13:19:16Z</time>
      </trkpt>
      <trkpt lat="45.06116" lon="4.85401">
        <ele>121.09700012207</ele>
        <time>2010-01-30T13:19:24Z</time>
      </trkpt>
      <trkpt lat="45.06084" lon="4.85453">
        <ele>120.91400146484</ele>
        <time>2010-01-30T13:19:31Z</time>
      </trkpt>
      <trkpt lat="45.06041" lon="4.8552">
        <ele>121.00099945068</ele>
        <time>2010-01-30T13:19:40Z</time>
      </trkpt>
      <trkpt lat="45.06003" lon="4.85567">
        <ele>120.96499633789</ele>
        <time>2010-01-30T13:19:47Z</time>
      </trkpt>
      <trkpt lat="45.05949" lon="4.85616">
        <ele>121.09899902344</ele>
        <time>2010-01-30T13:19:56Z</time>
      </trkpt>
      <trkpt lat="45.05909" lon="4.85642">
        <ele>120.73000335693</ele>
        <time>2010-01-30T13:20:02Z</time>
      </trkpt>
      <trkpt lat="45.05847" lon="4.85671">
        <ele>120.63999938965</ele>
        <time>2010-01-30T13:20:11Z</time>
      </trkpt>
      <trkpt lat="45.05815" lon="4.85686">
        <ele>120.48300170898</ele>
        <time>2010-01-30T13:20:19Z</time>
      </trkpt>
      <trkpt lat="45.0573" lon="4.85686">
        <ele>120.44799804688</ele>
        <time>2010-01-30T13:20:27Z</time>
      </trkpt>
      <trkpt lat="45.05672" lon="4.85677">
        <ele>120.32199859619</ele>
        <time>2010-01-30T13:20:35Z</time>
      </trkpt>
      <trkpt lat="45.05644" lon="4.85665">
        <ele>120.66999816894</ele>
        <time>2010-01-30T13:20:39Z</time>
      </trkpt>
      <trkpt lat="45.0559" lon="4.85639">
        <ele>120.35600280762</ele>
        <time>2010-01-30T13:20:47Z</time>
      </trkpt>
      <trkpt lat="45.05565" lon="4.85618">
        <ele>120.38600158691</ele>
        <time>2010-01-30T13:20:52Z</time>
      </trkpt>
      <trkpt lat="45.05519" lon="4.85608">
        <ele>120.87899780273</ele>
        <time>2010-01-30T13:20:59Z</time>
      </trkpt>
      <trkpt lat="45.05482" lon="4.85592">
        <ele>121.63300323486</ele>
        <time>2010-01-30T13:21:05Z</time>
      </trkpt>
      <trkpt lat="45.05433" lon="4.85566">
        <ele>123.20099639893</ele>
        <time>2010-01-30T13:21:14Z</time>
      </trkpt>
      <trkpt lat="45.05422" lon="4.85561">
        <ele>122.98699951172</ele>
        <time>2010-01-30T13:21:16Z</time>
      </trkpt>
      <trkpt lat="45.05395" lon="4.85501">
        <ele>122.577003479</ele>
        <time>2010-01-30T13:21:23Z</time>
      </trkpt>
      <trkpt lat="45.0536" lon="4.85456">
        <ele>123.08699798584</ele>
        <time>2010-01-30T13:21:30Z</time>
      </trkpt>
      <trkpt lat="45.05316" lon="4.85401">
        <ele>123.61499786377</ele>
        <time>2010-01-30T13:21:39Z</time>
      </trkpt>
      <trkpt lat="45.05259" lon="4.85335">
        <ele>123.08599853516</ele>
        <time>2010-01-30T13:21:50Z</time>
      </trkpt>
      <trkpt lat="45.05207" lon="4.85274">
        <ele>123.36599731445</ele>
        <time>2010-01-30T13:22:00Z</time>
      </trkpt>
      <trkpt lat="45.05154" lon="4.85213">
        <ele>123.202003479</ele>
        <time>2010-01-30T13:22:10Z</time>
      </trkpt>
      <trkpt lat="45.0511" lon="4.85162">
        <ele>123.15100097656</ele>
        <time>2010-01-30T13:22:18Z</time>
      </trkpt>
      <trkpt lat="45.05062" lon="4.85108">
        <ele>122.94999694824</ele>
        <time>2010-01-30T13:22:27Z</time>
      </trkpt>
      <trkpt lat="45.05002" lon="4.8504">
        <ele>122.60500335693</ele>
        <time>2010-01-30T13:22:38Z</time>
      </trkpt>
      <trkpt lat="45.0498" lon="4.85018">
        <ele>123.27799987793</ele>
        <time>2010-01-30T13:22:42Z</time>
      </trkpt>
      <trkpt lat="45.04942" lon="4.8498">
        <ele>123.93299865723</ele>
        <time>2010-01-30T13:22:49Z</time>
      </trkpt>
      <trkpt lat="45.04907" lon="4.84945">
        <ele>122.44499969482</ele>
        <time>2010-01-30T13:22:56Z</time>
      </trkpt>
      <trkpt lat="45.04871" lon="4.84909">
        <ele>122.54599761963</ele>
        <time>2010-01-30T13:23:04Z</time>
      </trkpt>
      <trkpt lat="45.04817" lon="4.84866">
        <ele>122.92800140381</ele>
        <time>2010-01-30T13:23:13Z</time>
      </trkpt>
      <trkpt lat="45.04785" lon="4.8484">
        <ele>124.19999694824</ele>
        <time>2010-01-30T13:23:20Z</time>
      </trkpt>
      <trkpt lat="45.0475" lon="4.84801">
        <ele>123.47100067139</ele>
        <time>2010-01-30T13:23:26Z</time>
      </trkpt>
      <trkpt lat="45.04727" lon="4.84735">
        <ele>120.19400024414</ele>
        <time>2010-01-30T13:23:33Z</time>
      </trkpt>
      <trkpt lat="45.04723" lon="4.84726">
        <ele>120.18399810791</ele>
        <time>2010-01-30T13:23:34Z</time>
      </trkpt>
      <trkpt lat="45.04699" lon="4.8469">
        <ele>120.15799713135</ele>
        <time>2010-01-30T13:23:39Z</time>
      </trkpt>
      <trkpt lat="45.04639" lon="4.84639">
        <ele>119.93900299072</ele>
        <time>2010-01-30T13:23:49Z</time>
      </trkpt>
      <trkpt lat="45.04574" lon="4.84584">
        <ele>118.40299987793</ele>
        <time>2010-01-30T13:24:00Z</time>
      </trkpt>
      <trkpt lat="45.04531" lon="4.84548">
        <ele>118.375</ele>
        <time>2010-01-30T13:24:08Z</time>
      </trkpt>
      <trkpt lat="45.04476" lon="4.84502">
        <ele>118.7679977417</ele>
        <time>2010-01-30T13:24:16Z</time>
      </trkpt>
      <trkpt lat="45.0442" lon="4.84455">
        <ele>118.98899841309</ele>
        <time>2010-01-30T13:24:25Z</time>
      </trkpt>
      <trkpt lat="45.04383" lon="4.84424">
        <ele>118.9700012207</ele>
        <time>2010-01-30T13:24:33Z</time>
      </trkpt>
      <trkpt lat="45.04316" lon="4.84384">
        <ele>118.47299957275</ele>
        <time>2010-01-30T13:24:41Z</time>
      </trkpt>
      <trkpt lat="45.04307" lon="4.84373">
        <ele>118.46800231934</ele>
        <time>2010-01-30T13:24:42Z</time>
      </trkpt>
      <trkpt lat="45.04295" lon="4.8434">
        <ele>118.45600128174</ele>
        <time>2010-01-30T13:24:46Z</time>
      </trkpt>
      <trkpt lat="45.0429" lon="4.84322">
        <ele>120.08999633789</ele>
        <time>2010-01-30T13:24:48Z</time>
      </trkpt>
      <trkpt lat="45.04271" lon="4.84232">
        <ele>120.19200134277</ele>
        <time>2010-01-30T13:24:58Z</time>
      </trkpt>
      <trkpt lat="45.04258" lon="4.84173">
        <ele>119.59600067139</ele>
        <time>2010-01-30T13:25:05Z</time>
      </trkpt>
      <trkpt lat="45.04239" lon="4.84095">
        <ele>119.15200042725</ele>
        <time>2010-01-30T13:25:14Z</time>
      </trkpt>
      <trkpt lat="45.0421" lon="4.84021">
        <ele>118.74700164795</ele>
        <time>2010-01-30T13:25:23Z</time>
      </trkpt>
      <trkpt lat="45.04184" lon="4.83955">
        <ele>118.94799804688</ele>
        <time>2010-01-30T13:25:31Z</time>
      </trkpt>
      <trkpt lat="45.04144" lon="4.83859">
        <ele>118.52600097656</ele>
        <time>2010-01-30T13:25:43Z</time>
      </trkpt>
      <trkpt lat="45.0411" lon="4.83781">
        <ele>118.62200164795</ele>
        <time>2010-01-30T13:25:53Z</time>
      </trkpt>
      <trkpt lat="45.04076" lon="4.83704">
        <ele>119.30500030518</ele>
        <time>2010-01-30T13:26:03Z</time>
      </trkpt>
      <trkpt lat="45.04039" lon="4.8362">
        <ele>118.87999725342</ele>
        <time>2010-01-30T13:26:14Z</time>
      </trkpt>
      <trkpt lat="45.04003" lon="4.83536">
        <ele>117.85600280762</ele>
        <time>2010-01-30T13:26:25Z</time>
      </trkpt>
      <trkpt lat="45.03961" lon="4.83441">
        <ele>118.15699768066</ele>
        <time>2010-01-30T13:26:37Z</time>
      </trkpt>
      <trkpt lat="45.03925" lon="4.83359">
        <ele>117.56999969482</ele>
        <time>2010-01-30T13:26:47Z</time>
      </trkpt>
      <trkpt lat="45.03885" lon="4.8326">
        <ele>118.375</ele>
        <time>2010-01-30T13:26:59Z</time>
      </trkpt>
      <trkpt lat="45.03875" lon="4.83235">
        <ele>118.63800048828</ele>
        <time>2010-01-30T13:27:07Z</time>
      </trkpt>
      <trkpt lat="45.0386" lon="4.83192">
        <ele>119.10500335693</ele>
        <time>2010-01-30T13:27:08Z</time>
      </trkpt>
      <trkpt lat="45.0385" lon="4.83155">
        <ele>119.33699798584</ele>
        <time>2010-01-30T13:27:13Z</time>
      </trkpt>
      <trkpt lat="45.03853" lon="4.83134">
        <ele>119.5120010376</ele>
        <time>2010-01-30T13:27:16Z</time>
      </trkpt>
      <trkpt lat="45.03855" lon="4.83119">
        <ele>119.11000061035</ele>
        <time>2010-01-30T13:27:18Z</time>
      </trkpt>
      <trkpt lat="45.03859" lon="4.8307">
        <ele>119.68800354004</ele>
        <time>2010-01-30T13:27:25Z</time>
      </trkpt>
      <trkpt lat="45.03861" lon="4.83045">
        <ele>119.92099761963</ele>
        <time>2010-01-30T13:27:29Z</time>
      </trkpt>
      <trkpt lat="45.03862" lon="4.83029">
        <ele>120.45400238037</ele>
        <time>2010-01-30T13:27:33Z</time>
      </trkpt>
      <trkpt lat="45.03869" lon="4.83029">
        <ele>120.4700012207</ele>
        <time>2010-01-30T13:27:34Z</time>
      </trkpt>
      <trkpt lat="45.03881" lon="4.83028">
        <ele>120.50299835205</ele>
        <time>2010-01-30T13:27:37Z</time>
      </trkpt>
      <trkpt lat="45.03929" lon="4.83024">
        <ele>121.06800079346</ele>
        <time>2010-01-30T13:27:48Z</time>
      </trkpt>
      <trkpt lat="45.03967" lon="4.8302">
        <ele>121.69999694824</ele>
        <time>2010-01-30T13:27:56Z</time>
      </trkpt>
      <trkpt lat="45.04008" lon="4.83017">
        <ele>122.19000244141</ele>
        <time>2010-01-30T13:28:05Z</time>
      </trkpt>
      <trkpt lat="45.04046" lon="4.83012">
        <ele>124.18900299072</ele>
        <time>2010-01-30T13:28:13Z</time>
      </trkpt>
      <trkpt lat="45.04087" lon="4.83005">
        <ele>123.78099822998</ele>
        <time>2010-01-30T13:28:21Z</time>
      </trkpt>
      <trkpt lat="45.04125" lon="4.83001">
        <ele>124.89700317383</ele>
        <time>2010-01-30T13:28:29Z</time>
      </trkpt>
      <trkpt lat="45.04169" lon="4.82998">
        <ele>125.70999908447</ele>
        <time>2010-01-30T13:28:38Z</time>
      </trkpt>
      <trkpt lat="45.04218" lon="4.82995">
        <ele>126.94200134277</ele>
        <time>2010-01-30T13:28:48Z</time>
      </trkpt>
      <trkpt lat="45.0427" lon="4.82991">
        <ele>128.01400756836</ele>
        <time>2010-01-30T13:28:59Z</time>
      </trkpt>
      <trkpt lat="45.04304" lon="4.82988">
        <ele>128.33000183106</ele>
        <time>2010-01-30T13:29:06Z</time>
      </trkpt>
      <trkpt lat="45.04317" lon="4.82987">
        <ele>128.77000427246</ele>
        <time>2010-01-30T13:29:09Z</time>
      </trkpt>
      <trkpt lat="45.04312" lon="4.82962">
        <ele>128.80599975586</ele>
        <time>2010-01-30T13:29:12Z</time>
      </trkpt>
      <trkpt lat="45.04296" lon="4.82902">
        <ele>129.39500427246</ele>
        <time>2010-01-30T13:29:21Z</time>
      </trkpt>
      <trkpt lat="45.04287" lon="4.82851">
        <ele>130.05299377441</ele>
        <time>2010-01-30T13:29:29Z</time>
      </trkpt>
      <trkpt lat="45.04275" lon="4.82805">
        <ele>131.81799316406</ele>
        <time>2010-01-30T13:29:37Z</time>
      </trkpt>
      <trkpt lat="45.04263" lon="4.82762">
        <ele>133.79800415039</ele>
        <time>2010-01-30T13:29:45Z</time>
      </trkpt>
      <trkpt lat="45.0426" lon="4.82751">
        <ele>134.18400573731</ele>
        <time>2010-01-30T13:29:47Z</time>
      </trkpt>
      <trkpt lat="45.04261" lon="4.82733">
        <ele>134.23699951172</ele>
        <time>2010-01-30T13:29:52Z</time>
      </trkpt>
      <trkpt lat="45.04261" lon="4.82733">
        <ele>134.86099243164</ele>
        <time>2010-01-30T13:29:53Z</time>
      </trkpt>
      <trkpt lat="45.04272" lon="4.82666">
        <ele>136.77400207519</ele>
        <time>2010-01-30T13:30:03Z</time>
      </trkpt>
      <trkpt lat="45.04273" lon="4.82623">
        <ele>138.7140045166</ele>
        <time>2010-01-30T13:30:11Z</time>
      </trkpt>
      <trkpt lat="45.0427" lon="4.8258">
        <ele>141.41299438477</ele>
        <time>2010-01-30T13:30:19Z</time>
      </trkpt>
      <trkpt lat="45.04259" lon="4.82553">
        <ele>143.09599304199</ele>
        <time>2010-01-30T13:30:25Z</time>
      </trkpt>
      <trkpt lat="45.04247" lon="4.82526">
        <ele>144.80900573731</ele>
        <time>2010-01-30T13:30:31Z</time>
      </trkpt>
      <trkpt lat="45.0424" lon="4.82491">
        <ele>146.28700256348</ele>
        <time>2010-01-30T13:30:38Z</time>
      </trkpt>
      <trkpt lat="45.04237" lon="4.8245">
        <ele>148.10400390625</ele>
        <time>2010-01-30T13:30:46Z</time>
      </trkpt>
      <trkpt lat="45.04238" lon="4.82408">
        <ele>150.2200012207</ele>
        <time>2010-01-30T13:30:54Z</time>
      </trkpt>
      <trkpt lat="45.04245" lon="4.82356">
        <ele>152.34300231934</ele>
        <time>2010-01-30T13:31:04Z</time>
      </trkpt>
      <trkpt lat="45.04251" lon="4.82305">
        <ele>154.84199523926</ele>
        <time>2010-01-30T13:31:14Z</time>
      </trkpt>
      <trkpt lat="45.04256" lon="4.8226">
        <ele>157.29100036621</ele>
        <time>2010-01-30T13:31:23Z</time>
      </trkpt>
      <trkpt lat="45.04253" lon="4.82224">
        <ele>159.6309967041</ele>
        <time>2010-01-30T13:31:30Z</time>
      </trkpt>
      <trkpt lat="45.04243" lon="4.82196">
        <ele>160.89300537109</ele>
        <time>2010-01-30T13:31:36Z</time>
      </trkpt>
      <trkpt lat="45.04226" lon="4.82167">
        <ele>162.82800292969</ele>
        <time>2010-01-30T13:31:43Z</time>
      </trkpt>
      <trkpt lat="45.04188" lon="4.82136">
        <ele>165.02499389648</ele>
        <time>2010-01-30T13:31:54Z</time>
      </trkpt>
      <trkpt lat="45.04156" lon="4.82112">
        <ele>166.91700744629</ele>
        <time>2010-01-30T13:32:03Z</time>
      </trkpt>
      <trkpt lat="45.04126" lon="4.82086">
        <ele>169.05999755859</ele>
        <time>2010-01-30T13:32:12Z</time>
      </trkpt>
      <trkpt lat="45.04093" lon="4.82052">
        <ele>171.01100158691</ele>
        <time>2010-01-30T13:32:23Z</time>
      </trkpt>
      <trkpt lat="45.0406" lon="4.82015">
        <ele>173.57200622559</ele>
        <time>2010-01-30T13:32:34Z</time>
      </trkpt>
      <trkpt lat="45.04039" lon="4.81992">
        <ele>174.99099731445</ele>
        <time>2010-01-30T13:32:41Z</time>
      </trkpt>
      <trkpt lat="45.0402" lon="4.81975">
        <ele>176.84700012207</ele>
        <time>2010-01-30T13:32:47Z</time>
      </trkpt>
      <trkpt lat="45.03989" lon="4.81949">
        <ele>179.00900268555</ele>
        <time>2010-01-30T13:32:56Z</time>
      </trkpt>
      <trkpt lat="45.03951" lon="4.81914">
        <ele>181.99099731445</ele>
        <time>2010-01-30T13:33:08Z</time>
      </trkpt>
      <trkpt lat="45.03936" lon="4.81881">
        <ele>183.18499755859</ele>
        <time>2010-01-30T13:33:15Z</time>
      </trkpt>
      <trkpt lat="45.03919" lon="4.81844">
        <ele>185.03700256348</ele>
        <time>2010-01-30T13:33:23Z</time>
      </trkpt>
      <trkpt lat="45.03899" lon="4.818">
        <ele>186.78500366211</ele>
        <time>2010-01-30T13:33:32Z</time>
      </trkpt>
      <trkpt lat="45.03878" lon="4.81759">
        <ele>188.92199707031</ele>
        <time>2010-01-30T13:33:41Z</time>
      </trkpt>
      <trkpt lat="45.03857" lon="4.81726">
        <ele>191.23599243164</ele>
        <time>2010-01-30T13:33:49Z</time>
      </trkpt>
      <trkpt lat="45.03835" lon="4.8169">
        <ele>193.40199279785</ele>
        <time>2010-01-30T13:33:58Z</time>
      </trkpt>
      <trkpt lat="45.03824" lon="4.81673">
        <ele>194.26600646973</ele>
        <time>2010-01-30T13:34:02Z</time>
      </trkpt>
      <trkpt lat="45.03806" lon="4.81643">
        <ele>195.60200500488</ele>
        <time>2010-01-30T13:34:09Z</time>
      </trkpt>
      <trkpt lat="45.0378" lon="4.81601">
        <ele>197.80999755859</ele>
        <time>2010-01-30T13:34:19Z</time>
      </trkpt>
      <trkpt lat="45.03762" lon="4.81568">
        <ele>199.92199707031</ele>
        <time>2010-01-30T13:34:27Z</time>
      </trkpt>
      <trkpt lat="45.03744" lon="4.81535">
        <ele>201.67399597168</ele>
        <time>2010-01-30T13:34:35Z</time>
      </trkpt>
      <trkpt lat="45.03724" lon="4.81497">
        <ele>203.77400207519</ele>
        <time>2010-01-30T13:34:44Z</time>
      </trkpt>
      <trkpt lat="45.03708" lon="4.81462">
        <ele>205.72300720215</ele>
        <time>2010-01-30T13:34:52Z</time>
      </trkpt>
      <trkpt lat="45.03696" lon="4.81429">
        <ele>207.88800048828</ele>
        <time>2010-01-30T13:35:00Z</time>
      </trkpt>
      <trkpt lat="45.03683" lon="4.81394">
        <ele>209.33799743652</ele>
        <time>2010-01-30T13:35:08Z</time>
      </trkpt>
      <trkpt lat="45.03674" lon="4.81367">
        <ele>210.90100097656</ele>
        <time>2010-01-30T13:35:14Z</time>
      </trkpt>
      <trkpt lat="45.03659" lon="4.8133">
        <ele>212.26600646973</ele>
        <time>2010-01-30T13:35:22Z</time>
      </trkpt>
      <trkpt lat="45.03642" lon="4.81291">
        <ele>214.28999328613</ele>
        <time>2010-01-30T13:35:31Z</time>
      </trkpt>
      <trkpt lat="45.03623" lon="4.8125">
        <ele>216.18400573731</ele>
        <time>2010-01-30T13:35:40Z</time>
      </trkpt>
      <trkpt lat="45.03607" lon="4.81215">
        <ele>217.77600097656</ele>
        <time>2010-01-30T13:35:48Z</time>
      </trkpt>
      <trkpt lat="45.03596" lon="4.81189">
        <ele>219.31199645996</ele>
        <time>2010-01-30T13:35:54Z</time>
      </trkpt>
      <trkpt lat="45.03584" lon="4.81157">
        <ele>220.91900634766</ele>
        <time>2010-01-30T13:36:01Z</time>
      </trkpt>
      <trkpt lat="45.03571" lon="4.81124">
        <ele>222.22399902344</ele>
        <time>2010-01-30T13:36:08Z</time>
      </trkpt>
      <trkpt lat="45.0356" lon="4.81096">
        <ele>223.25999450684</ele>
        <time>2010-01-30T13:36:14Z</time>
      </trkpt>
      <trkpt lat="45.03544" lon="4.81083">
        <ele>224.42500305176</ele>
        <time>2010-01-30T13:36:19Z</time>
      </trkpt>
      <trkpt lat="45.03523" lon="4.81072">
        <ele>226.00199890137</ele>
        <time>2010-01-30T13:36:25Z</time>
      </trkpt>
      <trkpt lat="45.03521" lon="4.81069">
        <ele>226.21699523926</ele>
        <time>2010-01-30T13:36:26Z</time>
      </trkpt>
      <trkpt lat="45.03508" lon="4.81046">
        <ele>227.63400268555</ele>
        <time>2010-01-30T13:36:32Z</time>
      </trkpt>
      <trkpt lat="45.03502" lon="4.81019">
        <ele>228.78399658203</ele>
        <time>2010-01-30T13:36:38Z</time>
      </trkpt>
      <trkpt lat="45.03493" lon="4.80985">
        <ele>230.79400634766</ele>
        <time>2010-01-30T13:36:46Z</time>
      </trkpt>
      <trkpt lat="45.03478" lon="4.80945">
        <ele>232.69400024414</ele>
        <time>2010-01-30T13:36:55Z</time>
      </trkpt>
      <trkpt lat="45.03461" lon="4.80906">
        <ele>234.4940032959</ele>
        <time>2010-01-30T13:37:04Z</time>
      </trkpt>
      <trkpt lat="45.03445" lon="4.80876">
        <ele>236.37399291992</ele>
        <time>2010-01-30T13:37:11Z</time>
      </trkpt>
      <trkpt lat="45.03427" lon="4.80849">
        <ele>237.60000610352</ele>
        <time>2010-01-30T13:37:18Z</time>
      </trkpt>
      <trkpt lat="45.03425" lon="4.80845">
        <ele>237.95399475098</ele>
        <time>2010-01-30T13:37:19Z</time>
      </trkpt>
      <trkpt lat="45.03419" lon="4.80814">
        <ele>239.87199401856</ele>
        <time>2010-01-30T13:37:25Z</time>
      </trkpt>
      <trkpt lat="45.0341" lon="4.80794">
        <ele>241.49200439453</ele>
        <time>2010-01-30T13:37:30Z</time>
      </trkpt>
      <trkpt lat="45.03406" lon="4.80792">
        <ele>241.49699401856</ele>
        <time>2010-01-30T13:37:31Z</time>
      </trkpt>
      <trkpt lat="45.03389" lon="4.80782">
        <ele>242.34899902344</ele>
        <time>2010-01-30T13:37:36Z</time>
      </trkpt>
      <trkpt lat="45.03379" lon="4.80766">
        <ele>244.16700744629</ele>
        <time>2010-01-30T13:37:40Z</time>
      </trkpt>
      <trkpt lat="45.03383" lon="4.80751">
        <ele>245.08700561523</ele>
        <time>2010-01-30T13:37:43Z</time>
      </trkpt>
      <trkpt lat="45.03389" lon="4.80736">
        <ele>245.78799438477</ele>
        <time>2010-01-30T13:37:46Z</time>
      </trkpt>
      <trkpt lat="45.03394" lon="4.80711">
        <ele>246.60400390625</ele>
        <time>2010-01-30T13:37:51Z</time>
      </trkpt>
      <trkpt lat="45.03391" lon="4.80695">
        <ele>247.25300598144</ele>
        <time>2010-01-30T13:37:54Z</time>
      </trkpt>
      <trkpt lat="45.03374" lon="4.80653">
        <ele>249.17500305176</ele>
        <time>2010-01-30T13:38:03Z</time>
      </trkpt>
      <trkpt lat="45.03359" lon="4.80641">
        <ele>250.28700256348</ele>
        <time>2010-01-30T13:38:08Z</time>
      </trkpt>
      <trkpt lat="45.0334" lon="4.80631">
        <ele>251.69500732422</ele>
        <time>2010-01-30T13:38:14Z</time>
      </trkpt>
      <trkpt lat="45.03328" lon="4.8062">
        <ele>252.17300415039</ele>
        <time>2010-01-30T13:38:18Z</time>
      </trkpt>
      <trkpt lat="45.03332" lon="4.80601">
        <ele>253.93699645996</ele>
        <time>2010-01-30T13:38:22Z</time>
      </trkpt>
      <trkpt lat="45.03344" lon="4.80574">
        <ele>255.1369934082</ele>
        <time>2010-01-30T13:38:28Z</time>
      </trkpt>
      <trkpt lat="45.03345" lon="4.8054">
        <ele>257.16900634766</ele>
        <time>2010-01-30T13:38:34Z</time>
      </trkpt>
      <trkpt lat="45.0334" lon="4.80502">
        <ele>258.04699707031</ele>
        <time>2010-01-30T13:38:41Z</time>
      </trkpt>
      <trkpt lat="45.03325" lon="4.80477">
        <ele>259.27200317383</ele>
        <time>2010-01-30T13:38:47Z</time>
      </trkpt>
      <trkpt lat="45.03315" lon="4.80472">
        <ele>259.95001220703</ele>
        <time>2010-01-30T13:38:50Z</time>
      </trkpt>
      <trkpt lat="45.03281" lon="4.80472">
        <ele>261.65301513672</ele>
        <time>2010-01-30T13:38:59Z</time>
      </trkpt>
      <trkpt lat="45.03268" lon="4.80468">
        <ele>262.83801269531</ele>
        <time>2010-01-30T13:39:03Z</time>
      </trkpt>
      <trkpt lat="45.03266" lon="4.80451">
        <ele>263.81201171875</ele>
        <time>2010-01-30T13:39:07Z</time>
      </trkpt>
      <trkpt lat="45.03272" lon="4.80425">
        <ele>265.59399414062</ele>
        <time>2010-01-30T13:39:13Z</time>
      </trkpt>
      <trkpt lat="45.03285" lon="4.80395">
        <ele>266.76400756836</ele>
        <time>2010-01-30T13:39:20Z</time>
      </trkpt>
      <trkpt lat="45.03288" lon="4.8039">
        <ele>267.54501342773</ele>
        <time>2010-01-30T13:39:24Z</time>
      </trkpt>
      <trkpt lat="45.03271" lon="4.80341">
        <ele>269.39700317383</ele>
        <time>2010-01-30T13:39:31Z</time>
      </trkpt>
      <trkpt lat="45.03255" lon="4.80335">
        <ele>271.14099121094</ele>
        <time>2010-01-30T13:39:36Z</time>
      </trkpt>
      <trkpt lat="45.03233" lon="4.80342">
        <ele>271.75100708008</ele>
        <time>2010-01-30T13:39:42Z</time>
      </trkpt>
      <trkpt lat="45.03219" lon="4.80347">
        <ele>273.71301269531</ele>
        <time>2010-01-30T13:39:49Z</time>
      </trkpt>
      <trkpt lat="45.03191" lon="4.80328">
        <ele>274.60299682617</ele>
        <time>2010-01-30T13:39:54Z</time>
      </trkpt>
      <trkpt lat="45.0319" lon="4.80304">
        <ele>276.27700805664</ele>
        <time>2010-01-30T13:39:59Z</time>
      </trkpt>
      <trkpt lat="45.03194" lon="4.80279">
        <ele>277.66101074219</ele>
        <time>2010-01-30T13:40:04Z</time>
      </trkpt>
      <trkpt lat="45.03195" lon="4.80269">
        <ele>277.81201171875</ele>
        <time>2010-01-30T13:40:06Z</time>
      </trkpt>
      <trkpt lat="45.03194" lon="4.80244">
        <ele>279.04299926758</ele>
        <time>2010-01-30T13:40:11Z</time>
      </trkpt>
      <trkpt lat="45.03185" lon="4.80225">
        <ele>279.99499511719</ele>
        <time>2010-01-30T13:40:15Z</time>
      </trkpt>
      <trkpt lat="45.03177" lon="4.80213">
        <ele>280.78201293945</ele>
        <time>2010-01-30T13:40:18Z</time>
      </trkpt>
      <trkpt lat="45.0316" lon="4.80211">
        <ele>282.10501098633</ele>
        <time>2010-01-30T13:40:23Z</time>
      </trkpt>
      <trkpt lat="45.03131" lon="4.80213">
        <ele>283.81201171875</ele>
        <time>2010-01-30T13:40:31Z</time>
      </trkpt>
      <trkpt lat="45.03104" lon="4.80209">
        <ele>284.9169921875</ele>
        <time>2010-01-30T13:40:39Z</time>
      </trkpt>
      <trkpt lat="45.03082" lon="4.802">
        <ele>286.46200561523</ele>
        <time>2010-01-30T13:40:46Z</time>
      </trkpt>
      <trkpt lat="45.03077" lon="4.80185">
        <ele>287.45700073242</ele>
        <time>2010-01-30T13:40:50Z</time>
      </trkpt>
      <trkpt lat="45.03077" lon="4.80163">
        <ele>289.11898803711</ele>
        <time>2010-01-30T13:40:55Z</time>
      </trkpt>
      <trkpt lat="45.03089" lon="4.80141">
        <ele>290.09899902344</ele>
        <time>2010-01-30T13:41:01Z</time>
      </trkpt>
      <trkpt lat="45.03107" lon="4.80119">
        <ele>291.66198730469</ele>
        <time>2010-01-30T13:41:09Z</time>
      </trkpt>
      <trkpt lat="45.03111" lon="4.80101">
        <ele>292.42700195312</ele>
        <time>2010-01-30T13:41:13Z</time>
      </trkpt>
      <trkpt lat="45.03104" lon="4.80083">
        <ele>293.86700439453</ele>
        <time>2010-01-30T13:41:18Z</time>
      </trkpt>
      <trkpt lat="45.03085" lon="4.80073">
        <ele>295.34399414062</ele>
        <time>2010-01-30T13:41:24Z</time>
      </trkpt>
      <trkpt lat="45.03057" lon="4.80059">
        <ele>296.40798950195</ele>
        <time>2010-01-30T13:41:32Z</time>
      </trkpt>
      <trkpt lat="45.03042" lon="4.80045">
        <ele>297.31298828125</ele>
        <time>2010-01-30T13:41:37Z</time>
      </trkpt>
      <trkpt lat="45.03033" lon="4.80028">
        <ele>298.70300292969</ele>
        <time>2010-01-30T13:41:41Z</time>
      </trkpt>
      <trkpt lat="45.0303" lon="4.79993">
        <ele>300.42199707031</ele>
        <time>2010-01-30T13:41:48Z</time>
      </trkpt>
      <trkpt lat="45.03017" lon="4.79963">
        <ele>301.85998535156</ele>
        <time>2010-01-30T13:41:55Z</time>
      </trkpt>
      <trkpt lat="45.03009" lon="4.79928">
        <ele>303.59399414062</ele>
        <time>2010-01-30T13:42:02Z</time>
      </trkpt>
      <trkpt lat="45.03002" lon="4.7992">
        <ele>304.15399169922</ele>
        <time>2010-01-30T13:42:04Z</time>
      </trkpt>
      <trkpt lat="45.02983" lon="4.79902">
        <ele>305.19198608398</ele>
        <time>2010-01-30T13:42:10Z</time>
      </trkpt>
      <trkpt lat="45.02961" lon="4.79888">
        <ele>306.78900146484</ele>
        <time>2010-01-30T13:42:17Z</time>
      </trkpt>
      <trkpt lat="45.0295" lon="4.79872">
        <ele>308.33599853516</ele>
        <time>2010-01-30T13:42:22Z</time>
      </trkpt>
      <trkpt lat="45.02932" lon="4.79846">
        <ele>307.92599487305</ele>
        <time>2010-01-30T13:42:30Z</time>
      </trkpt>
      <trkpt lat="45.02912" lon="4.79818">
        <ele>309.23300170898</ele>
        <time>2010-01-30T13:42:38Z</time>
      </trkpt>
      <trkpt lat="45.02893" lon="4.7981">
        <ele>311.32000732422</ele>
        <time>2010-01-30T13:42:44Z</time>
      </trkpt>
      <trkpt lat="45.02874" lon="4.79796">
        <ele>312.48199462891</ele>
        <time>2010-01-30T13:42:50Z</time>
      </trkpt>
      <trkpt lat="45.02867" lon="4.79777">
        <ele>313.79299926758</ele>
        <time>2010-01-30T13:42:54Z</time>
      </trkpt>
      <trkpt lat="45.02873" lon="4.79752">
        <ele>314.39700317383</ele>
        <time>2010-01-30T13:42:59Z</time>
      </trkpt>
      <trkpt lat="45.02874" lon="4.79747">
        <ele>314.69400024414</ele>
        <time>2010-01-30T13:43:00Z</time>
      </trkpt>
      <trkpt lat="45.02877" lon="4.79716">
        <ele>315.94299316406</ele>
        <time>2010-01-30T13:43:06Z</time>
      </trkpt>
      <trkpt lat="45.02875" lon="4.79707">
        <ele>316.20999145508</ele>
        <time>2010-01-30T13:43:08Z</time>
      </trkpt>
      <trkpt lat="45.02861" lon="4.79663">
        <ele>318.34100341797</ele>
        <time>2010-01-30T13:43:18Z</time>
      </trkpt>
      <trkpt lat="45.02844" lon="4.79619">
        <ele>320.88800048828</ele>
        <time>2010-01-30T13:43:27Z</time>
      </trkpt>
      <trkpt lat="45.0283" lon="4.79582">
        <ele>322.72900390625</ele>
        <time>2010-01-30T13:43:35Z</time>
      </trkpt>
      <trkpt lat="45.02813" lon="4.79556">
        <ele>324.34600830078</ele>
        <time>2010-01-30T13:43:42Z</time>
      </trkpt>
      <trkpt lat="45.02797" lon="4.7955">
        <ele>325.5719909668</ele>
        <time>2010-01-30T13:43:47Z</time>
      </trkpt>
      <trkpt lat="45.02778" lon="4.79549">
        <ele>327.10101318359</ele>
        <time>2010-01-30T13:43:53Z</time>
      </trkpt>
      <trkpt lat="45.02755" lon="4.79549">
        <ele>327.85000610352</ele>
        <time>2010-01-30T13:44:00Z</time>
      </trkpt>
      <trkpt lat="45.02733" lon="4.79549">
        <ele>329.39599609375</ele>
        <time>2010-01-30T13:44:07Z</time>
      </trkpt>
      <trkpt lat="45.02714" lon="4.79549">
        <ele>330.54000854492</ele>
        <time>2010-01-30T13:44:13Z</time>
      </trkpt>
      <trkpt lat="45.02703" lon="4.79541">
        <ele>331.74499511719</ele>
        <time>2010-01-30T13:44:17Z</time>
      </trkpt>
      <trkpt lat="45.02687" lon="4.79518">
        <ele>333.33898925781</ele>
        <time>2010-01-30T13:44:24Z</time>
      </trkpt>
      <trkpt lat="45.02679" lon="4.79486">
        <ele>334.87899780273</ele>
        <time>2010-01-30T13:44:32Z</time>
      </trkpt>
      <trkpt lat="45.02682" lon="4.79467">
        <ele>336.1780090332</ele>
        <time>2010-01-30T13:44:36Z</time>
      </trkpt>
      <trkpt lat="45.02701" lon="4.79443">
        <ele>337.74899291992</ele>
        <time>2010-01-30T13:44:43Z</time>
      </trkpt>
      <trkpt lat="45.02716" lon="4.79421">
        <ele>338.99899291992</ele>
        <time>2010-01-30T13:44:49Z</time>
      </trkpt>
      <trkpt lat="45.0272" lon="4.79406">
        <ele>339.83700561523</ele>
        <time>2010-01-30T13:44:53Z</time>
      </trkpt>
      <trkpt lat="45.02716" lon="4.7939">
        <ele>341.24600219727</ele>
        <time>2010-01-30T13:44:57Z</time>
      </trkpt>
      <trkpt lat="45.02702" lon="4.79377">
        <ele>341.96798706055</ele>
        <time>2010-01-30T13:45:02Z</time>
      </trkpt>
      <trkpt lat="45.02684" lon="4.79359">
        <ele>343.04501342773</ele>
        <time>2010-01-30T13:45:08Z</time>
      </trkpt>
      <trkpt lat="45.02664" lon="4.79327">
        <ele>345.14498901367</ele>
        <time>2010-01-30T13:45:16Z</time>
      </trkpt>
      <trkpt lat="45.02646" lon="4.79323">
        <ele>346.3330078125</ele>
        <time>2010-01-30T13:45:21Z</time>
      </trkpt>
      <trkpt lat="45.02621" lon="4.79323">
        <ele>347.9049987793</ele>
        <time>2010-01-30T13:45:28Z</time>
      </trkpt>
      <trkpt lat="45.02604" lon="4.79309">
        <ele>349.52700805664</ele>
        <time>2010-01-30T13:45:34Z</time>
      </trkpt>
      <trkpt lat="45.02597" lon="4.79289">
        <ele>349.93701171875</ele>
        <time>2010-01-30T13:45:39Z</time>
      </trkpt>
      <trkpt lat="45.02591" lon="4.79261">
        <ele>351.39898681641</ele>
        <time>2010-01-30T13:45:45Z</time>
      </trkpt>
      <trkpt lat="45.02584" lon="4.79234">
        <ele>352.5539855957</ele>
        <time>2010-01-30T13:45:51Z</time>
      </trkpt>
      <trkpt lat="45.02584" lon="4.79231">
        <ele>353.41500854492</ele>
        <time>2010-01-30T13:45:55Z</time>
      </trkpt>
      <trkpt lat="45.02586" lon="4.79201">
        <ele>355.06900024414</ele>
        <time>2010-01-30T13:46:00Z</time>
      </trkpt>
      <trkpt lat="45.02599" lon="4.79182">
        <ele>356.39199829102</ele>
        <time>2010-01-30T13:46:06Z</time>
      </trkpt>
      <trkpt lat="45.02612" lon="4.79161">
        <ele>357.25601196289</ele>
        <time>2010-01-30T13:46:12Z</time>
      </trkpt>
      <trkpt lat="45.02612" lon="4.79136">
        <ele>358.76400756836</ele>
        <time>2010-01-30T13:46:18Z</time>
      </trkpt>
      <trkpt lat="45.02611" lon="4.7911">
        <ele>359.5950012207</ele>
        <time>2010-01-30T13:46:24Z</time>
      </trkpt>
      <trkpt lat="45.0261" lon="4.79082">
        <ele>360.89401245117</ele>
        <time>2010-01-30T13:46:31Z</time>
      </trkpt>
      <trkpt lat="45.02598" lon="4.79051">
        <ele>362.29800415039</ele>
        <time>2010-01-30T13:46:39Z</time>
      </trkpt>
      <trkpt lat="45.02584" lon="4.79034">
        <ele>363.41299438477</ele>
        <time>2010-01-30T13:46:45Z</time>
      </trkpt>
      <trkpt lat="45.02559" lon="4.79026">
        <ele>364.77899169922</ele>
        <time>2010-01-30T13:46:52Z</time>
      </trkpt>
      <trkpt lat="45.0253" lon="4.79017">
        <ele>366.1669921875</ele>
        <time>2010-01-30T13:47:00Z</time>
      </trkpt>
      <trkpt lat="45.02515" lon="4.78993">
        <ele>367.66000366211</ele>
        <time>2010-01-30T13:47:06Z</time>
      </trkpt>
      <trkpt lat="45.02506" lon="4.78964">
        <ele>369.15301513672</ele>
        <time>2010-01-30T13:47:12Z</time>
      </trkpt>
      <trkpt lat="45.02502" lon="4.78933">
        <ele>370.27899169922</ele>
        <time>2010-01-30T13:47:18Z</time>
      </trkpt>
      <trkpt lat="45.02488" lon="4.78915">
        <ele>371.39498901367</ele>
        <time>2010-01-30T13:47:23Z</time>
      </trkpt>
      <trkpt lat="45.02485" lon="4.78911">
        <ele>371.62298583984</ele>
        <time>2010-01-30T13:47:24Z</time>
      </trkpt>
      <trkpt lat="45.02473" lon="4.78897">
        <ele>372.65301513672</ele>
        <time>2010-01-30T13:47:28Z</time>
      </trkpt>
      <trkpt lat="45.02462" lon="4.78855">
        <ele>374.65600585938</ele>
        <time>2010-01-30T13:47:36Z</time>
      </trkpt>
      <trkpt lat="45.02445" lon="4.78823">
        <ele>376.35000610352</ele>
        <time>2010-01-30T13:47:43Z</time>
      </trkpt>
      <trkpt lat="45.02427" lon="4.78812">
        <ele>377.62701416016</ele>
        <time>2010-01-30T13:47:48Z</time>
      </trkpt>
      <trkpt lat="45.02394" lon="4.78802">
        <ele>379.89099121094</ele>
        <time>2010-01-30T13:47:57Z</time>
      </trkpt>
      <trkpt lat="45.02364" lon="4.788">
        <ele>381.21701049805</ele>
        <time>2010-01-30T13:48:05Z</time>
      </trkpt>
      <trkpt lat="45.02343" lon="4.78799">
        <ele>382.30599975586</ele>
        <time>2010-01-30T13:48:11Z</time>
      </trkpt>
      <trkpt lat="45.02319" lon="4.78791">
        <ele>383.53900146484</ele>
        <time>2010-01-30T13:48:18Z</time>
      </trkpt>
      <trkpt lat="45.02297" lon="4.78764">
        <ele>385.68099975586</ele>
        <time>2010-01-30T13:48:26Z</time>
      </trkpt>
      <trkpt lat="45.02283" lon="4.78741">
        <ele>387.51699829102</ele>
        <time>2010-01-30T13:48:33Z</time>
      </trkpt>
      <trkpt lat="45.02283" lon="4.7872">
        <ele>387.94500732422</ele>
        <time>2010-01-30T13:48:37Z</time>
      </trkpt>
      <trkpt lat="45.02294" lon="4.78707">
        <ele>389.09698486328</ele>
        <time>2010-01-30T13:48:42Z</time>
      </trkpt>
      <trkpt lat="45.02317" lon="4.78695">
        <ele>390.4280090332</ele>
        <time>2010-01-30T13:48:49Z</time>
      </trkpt>
      <trkpt lat="45.02344" lon="4.78682">
        <ele>391.83401489258</ele>
        <time>2010-01-30T13:48:56Z</time>
      </trkpt>
      <trkpt lat="45.02378" lon="4.78657">
        <ele>393.75201416016</ele>
        <time>2010-01-30T13:49:06Z</time>
      </trkpt>
      <trkpt lat="45.02405" lon="4.78634">
        <ele>395.64001464844</ele>
        <time>2010-01-30T13:49:15Z</time>
      </trkpt>
      <trkpt lat="45.0243" lon="4.7862">
        <ele>397.5419921875</ele>
        <time>2010-01-30T13:49:23Z</time>
      </trkpt>
      <trkpt lat="45.02442" lon="4.78609">
        <ele>398.62100219727</ele>
        <time>2010-01-30T13:49:27Z</time>
      </trkpt>
      <trkpt lat="45.02441" lon="4.78592">
        <ele>399.71701049805</ele>
        <time>2010-01-30T13:49:31Z</time>
      </trkpt>
      <trkpt lat="45.02433" lon="4.78579">
        <ele>400.51400756836</ele>
        <time>2010-01-30T13:49:35Z</time>
      </trkpt>
      <trkpt lat="45.02416" lon="4.78577">
        <ele>401.39300537109</ele>
        <time>2010-01-30T13:49:40Z</time>
      </trkpt>
      <trkpt lat="45.02395" lon="4.7858">
        <ele>402.1669921875</ele>
        <time>2010-01-30T13:49:46Z</time>
      </trkpt>
      <trkpt lat="45.02372" lon="4.78583">
        <ele>403.48999023438</ele>
        <time>2010-01-30T13:49:53Z</time>
      </trkpt>
      <trkpt lat="45.02347" lon="4.78574">
        <ele>404.95401000977</ele>
        <time>2010-01-30T13:50:00Z</time>
      </trkpt>
      <trkpt lat="45.02323" lon="4.78547">
        <ele>406.56600952148</ele>
        <time>2010-01-30T13:50:08Z</time>
      </trkpt>
      <trkpt lat="45.02294" lon="4.78523">
        <ele>408.23599243164</ele>
        <time>2010-01-30T13:50:17Z</time>
      </trkpt>
      <trkpt lat="45.02263" lon="4.78498">
        <ele>410.25201416016</ele>
        <time>2010-01-30T13:50:26Z</time>
      </trkpt>
      <trkpt lat="45.02241" lon="4.78473">
        <ele>411.38400268555</ele>
        <time>2010-01-30T13:50:33Z</time>
      </trkpt>
      <trkpt lat="45.02235" lon="4.78467">
        <ele>411.91000366211</ele>
        <time>2010-01-30T13:50:35Z</time>
      </trkpt>
      <trkpt lat="45.02221" lon="4.78456">
        <ele>412.89898681641</ele>
        <time>2010-01-30T13:50:39Z</time>
      </trkpt>
      <trkpt lat="45.02196" lon="4.7845">
        <ele>414.31201171875</ele>
        <time>2010-01-30T13:50:46Z</time>
      </trkpt>
      <trkpt lat="45.02174" lon="4.7845">
        <ele>415.40798950195</ele>
        <time>2010-01-30T13:50:52Z</time>
      </trkpt>
      <trkpt lat="45.02153" lon="4.78432">
        <ele>416.46798706055</ele>
        <time>2010-01-30T13:50:58Z</time>
      </trkpt>
      <trkpt lat="45.02132" lon="4.78411">
        <ele>417.92401123047</ele>
        <time>2010-01-30T13:51:05Z</time>
      </trkpt>
      <trkpt lat="45.02112" lon="4.7839">
        <ele>419.49200439453</ele>
        <time>2010-01-30T13:51:12Z</time>
      </trkpt>
      <trkpt lat="45.02094" lon="4.78366">
        <ele>420.81900024414</ele>
        <time>2010-01-30T13:51:19Z</time>
      </trkpt>
      <trkpt lat="45.02092" lon="4.78344">
        <ele>421.57400512695</ele>
        <time>2010-01-30T13:51:23Z</time>
      </trkpt>
      <trkpt lat="45.02103" lon="4.78334">
        <ele>422.49899291992</ele>
        <time>2010-01-30T13:51:27Z</time>
      </trkpt>
      <trkpt lat="45.0212" lon="4.78331">
        <ele>423.32699584961</ele>
        <time>2010-01-30T13:51:32Z</time>
      </trkpt>
      <trkpt lat="45.02146" lon="4.78328">
        <ele>424.71301269531</ele>
        <time>2010-01-30T13:51:39Z</time>
      </trkpt>
      <trkpt lat="45.02171" lon="4.78317">
        <ele>425.96398925781</ele>
        <time>2010-01-30T13:51:46Z</time>
      </trkpt>
      <trkpt lat="45.02192" lon="4.78301">
        <ele>427.38400268555</ele>
        <time>2010-01-30T13:51:53Z</time>
      </trkpt>
      <trkpt lat="45.02213" lon="4.78286">
        <ele>428.6960144043</ele>
        <time>2010-01-30T13:52:00Z</time>
      </trkpt>
      <trkpt lat="45.02226" lon="4.78265">
        <ele>429.26501464844</ele>
        <time>2010-01-30T13:52:06Z</time>
      </trkpt>
      <trkpt lat="45.02224" lon="4.78243">
        <ele>430.28698730469</ele>
        <time>2010-01-30T13:52:11Z</time>
      </trkpt>
      <trkpt lat="45.02214" lon="4.78221">
        <ele>431.41000366211</ele>
        <time>2010-01-30T13:52:17Z</time>
      </trkpt>
      <trkpt lat="45.022" lon="4.78198">
        <ele>432.72100830078</ele>
        <time>2010-01-30T13:52:24Z</time>
      </trkpt>
      <trkpt lat="45.0219" lon="4.78181">
        <ele>433.67199707031</ele>
        <time>2010-01-30T13:52:29Z</time>
      </trkpt>
      <trkpt lat="45.02178" lon="4.78151">
        <ele>435.01400756836</ele>
        <time>2010-01-30T13:52:35Z</time>
      </trkpt>
      <trkpt lat="45.02161" lon="4.78131">
        <ele>436.22500610352</ele>
        <time>2010-01-30T13:52:40Z</time>
      </trkpt>
      <trkpt lat="45.02125" lon="4.7811">
        <ele>437.40899658203</ele>
        <time>2010-01-30T13:52:48Z</time>
      </trkpt>
      <trkpt lat="45.02093" lon="4.78098">
        <ele>438.8210144043</ele>
        <time>2010-01-30T13:52:55Z</time>
      </trkpt>
      <trkpt lat="45.02064" lon="4.78088">
        <ele>440.43701171875</ele>
        <time>2010-01-30T13:53:02Z</time>
      </trkpt>
      <trkpt lat="45.02048" lon="4.78082">
        <ele>440.8219909668</ele>
        <time>2010-01-30T13:53:06Z</time>
      </trkpt>
      <trkpt lat="45.02021" lon="4.78063">
        <ele>442.47399902344</ele>
        <time>2010-01-30T13:53:14Z</time>
      </trkpt>
      <trkpt lat="45.01998" lon="4.78049">
        <ele>443.80099487305</ele>
        <time>2010-01-30T13:53:21Z</time>
      </trkpt>
      <trkpt lat="45.01981" lon="4.78043">
        <ele>444.43200683594</ele>
        <time>2010-01-30T13:53:26Z</time>
      </trkpt>
      <trkpt lat="45.01956" lon="4.78033">
        <ele>445.95901489258</ele>
        <time>2010-01-30T13:53:33Z</time>
      </trkpt>
      <trkpt lat="45.01925" lon="4.78011">
        <ele>447.78900146484</ele>
        <time>2010-01-30T13:53:43Z</time>
      </trkpt>
      <trkpt lat="45.01899" lon="4.77992">
        <ele>449.20901489258</ele>
        <time>2010-01-30T13:53:51Z</time>
      </trkpt>
      <trkpt lat="45.01863" lon="4.77978">
        <ele>450.69100952148</ele>
        <time>2010-01-30T13:54:01Z</time>
      </trkpt>
      <trkpt lat="45.01831" lon="4.77966">
        <ele>452.39700317383</ele>
        <time>2010-01-30T13:54:10Z</time>
      </trkpt>
      <trkpt lat="45.01797" lon="4.77954">
        <ele>454.1130065918</ele>
        <time>2010-01-30T13:54:19Z</time>
      </trkpt>
      <trkpt lat="45.01789" lon="4.77952">
        <ele>454.38598632812</ele>
        <time>2010-01-30T13:54:21Z</time>
      </trkpt>
      <trkpt lat="45.01752" lon="4.77943">
        <ele>456.38598632812</ele>
        <time>2010-01-30T13:54:30Z</time>
      </trkpt>
      <trkpt lat="45.01731" lon="4.77941">
        <ele>457.07598876953</ele>
        <time>2010-01-30T13:54:36Z</time>
      </trkpt>
      <trkpt lat="45.01717" lon="4.77944">
        <ele>457.66000366211</ele>
        <time>2010-01-30T13:54:41Z</time>
      </trkpt>
      <trkpt lat="45.01713" lon="4.77945">
        <ele>457.66598510742</ele>
        <time>2010-01-30T13:54:43Z</time>
      </trkpt>
      <trkpt lat="45.01699" lon="4.77948">
        <ele>457.52200317383</ele>
        <time>2010-01-30T13:54:48Z</time>
      </trkpt>
      <trkpt lat="45.01699" lon="4.77948">
        <ele>457.80499267578</ele>
        <time>2010-01-30T13:54:51Z</time>
      </trkpt>
      <trkpt lat="45.01701" lon="4.77948">
        <ele>457.8330078125</ele>
        <time>2010-01-30T13:54:56Z</time>
      </trkpt>
      <trkpt lat="45.01702" lon="4.77948">
        <ele>457.95199584961</ele>
        <time>2010-01-30T13:54:57Z</time>
      </trkpt>
      <trkpt lat="45.01706" lon="4.77947">
        <ele>457.87600708008</ele>
        <time>2010-01-30T13:55:00Z</time>
      </trkpt>
      <trkpt lat="45.01705" lon="4.77931">
        <ele>457.48098754883</ele>
        <time>2010-01-30T13:55:04Z</time>
      </trkpt>
      <trkpt lat="45.01699" lon="4.77948">
        <ele>457.77398681641</ele>
        <time>2010-01-30T13:55:07Z</time>
      </trkpt>
      <trkpt lat="45.01703" lon="4.77937">
        <ele>457.87799072266</ele>
        <time>2010-01-30T13:55:11Z</time>
      </trkpt>
      <trkpt lat="45.01703" lon="4.77937">
        <ele>458.17999267578</ele>
        <time>2010-01-30T13:55:15Z</time>
      </trkpt>
      <trkpt lat="45.01703" lon="4.77937">
        <ele>458.2619934082</ele>
        <time>2010-01-30T13:55:16Z</time>
      </trkpt>
      <trkpt lat="45.01703" lon="4.77937">
        <ele>457.35900878906</ele>
        <time>2010-01-30T13:57:25Z</time>
      </trkpt>
      <trkpt lat="45.01706" lon="4.77947">
        <ele>457.41900634766</ele>
        <time>2010-01-30T13:57:30Z</time>
      </trkpt>
      <trkpt lat="45.01708" lon="4.77946">
        <ele>457.51501464844</ele>
        <time>2010-01-30T13:57:31Z</time>
      </trkpt>
      <trkpt lat="45.0173" lon="4.77942">
        <ele>456.16101074219</ele>
        <time>2010-01-30T13:57:37Z</time>
      </trkpt>
      <trkpt lat="45.01745" lon="4.77941">
        <ele>455.88000488281</ele>
        <time>2010-01-30T13:57:40Z</time>
      </trkpt>
      <trkpt lat="45.01785" lon="4.77951">
        <ele>453.73999023438</ele>
        <time>2010-01-30T13:57:47Z</time>
      </trkpt>
      <trkpt lat="45.01822" lon="4.77962">
        <ele>451.86700439453</ele>
        <time>2010-01-30T13:57:53Z</time>
      </trkpt>
      <trkpt lat="45.01837" lon="4.77968">
        <ele>450.93099975586</ele>
        <time>2010-01-30T13:57:57Z</time>
      </trkpt>
      <trkpt lat="45.01839" lon="4.77969">
        <ele>450.74899291992</ele>
        <time>2010-01-30T13:58:01Z</time>
      </trkpt>
      <trkpt lat="45.01838" lon="4.77969">
        <ele>450.93399047852</ele>
        <time>2010-01-30T13:58:02Z</time>
      </trkpt>
      <trkpt lat="45.01822" lon="4.77962">
        <ele>451.90399169922</ele>
        <time>2010-01-30T13:58:07Z</time>
      </trkpt>
      <trkpt lat="45.01788" lon="4.77952">
        <ele>453.27301025391</ele>
        <time>2010-01-30T13:58:15Z</time>
      </trkpt>
      <trkpt lat="45.01772" lon="4.77948">
        <ele>454.28900146484</ele>
        <time>2010-01-30T13:58:19Z</time>
      </trkpt>
      <trkpt lat="45.01746" lon="4.77942">
        <ele>455.51300048828</ele>
        <time>2010-01-30T13:58:26Z</time>
      </trkpt>
      <trkpt lat="45.0172" lon="4.77944">
        <ele>456.41299438477</ele>
        <time>2010-01-30T13:58:34Z</time>
      </trkpt>
      <trkpt lat="45.01705" lon="4.77947">
        <ele>456.76098632812</ele>
        <time>2010-01-30T13:58:40Z</time>
      </trkpt>
      <trkpt lat="45.01699" lon="4.77948">
        <ele>457.0539855957</ele>
        <time>2010-01-30T13:58:44Z</time>
      </trkpt>
      <trkpt lat="45.01699" lon="4.77948">
        <ele>456.84698486328</ele>
        <time>2010-01-30T13:58:49Z</time>
      </trkpt>
      <trkpt lat="45.01699" lon="4.77948">
        <ele>457.00201416016</ele>
        <time>2010-01-30T13:59:44Z</time>
      </trkpt>
      <trkpt lat="45.01699" lon="4.77948">
        <ele>456.85699462891</ele>
        <time>2010-01-30T13:59:45Z</time>
      </trkpt>
      <trkpt lat="45.01683" lon="4.77963">
        <ele>456.76000976562</ele>
        <time>2010-01-30T13:59:51Z</time>
      </trkpt>
      <trkpt lat="45.01677" lon="4.77978">
        <ele>457.81799316406</ele>
        <time>2010-01-30T13:59:55Z</time>
      </trkpt>
      <trkpt lat="45.01672" lon="4.78012">
        <ele>458.33599853516</ele>
        <time>2010-01-30T14:00:02Z</time>
      </trkpt>
      <trkpt lat="45.01669" lon="4.7803">
        <ele>458.83898925781</ele>
        <time>2010-01-30T14:00:08Z</time>
      </trkpt>
      <trkpt lat="45.01669" lon="4.7803">
        <ele>459.17401123047</ele>
        <time>2010-01-30T14:00:11Z</time>
      </trkpt>
      <trkpt lat="45.01665" lon="4.78116">
        <ele>460.05700683594</ele>
        <time>2010-01-30T14:00:20Z</time>
      </trkpt>
      <trkpt lat="45.01663" lon="4.7814">
        <ele>460.41500854492</ele>
        <time>2010-01-30T14:00:24Z</time>
      </trkpt>
      <trkpt lat="45.01659" lon="4.78158">
        <ele>460.63299560547</ele>
        <time>2010-01-30T14:00:27Z</time>
      </trkpt>
      <trkpt lat="45.01653" lon="4.78174">
        <ele>461.01300048828</ele>
        <time>2010-01-30T14:00:30Z</time>
      </trkpt>
      <trkpt lat="45.01638" lon="4.78198">
        <ele>461.21899414062</ele>
        <time>2010-01-30T14:00:35Z</time>
      </trkpt>
      <trkpt lat="45.01631" lon="4.78202">
        <ele>461.47100830078</ele>
        <time>2010-01-30T14:00:37Z</time>
      </trkpt>
      <trkpt lat="45.01595" lon="4.78225">
        <ele>462.56698608398</ele>
        <time>2010-01-30T14:00:46Z</time>
      </trkpt>
      <trkpt lat="45.01554" lon="4.78251">
        <ele>463.84201049805</ele>
        <time>2010-01-30T14:00:56Z</time>
      </trkpt>
      <trkpt lat="45.01537" lon="4.78262">
        <ele>464.61999511719</ele>
        <time>2010-01-30T14:01:04Z</time>
      </trkpt>
      <trkpt lat="45.01473" lon="4.783">
        <ele>465.70001220703</ele>
        <time>2010-01-30T14:01:11Z</time>
      </trkpt>
      <trkpt lat="45.01468" lon="4.78304">
        <ele>466.15701293945</ele>
        <time>2010-01-30T14:01:17Z</time>
      </trkpt>
      <trkpt lat="45.0142" lon="4.78337">
        <ele>466.66900634766</ele>
        <time>2010-01-30T14:01:23Z</time>
      </trkpt>
      <trkpt lat="45.01373" lon="4.7837">
        <ele>468</ele>
        <time>2010-01-30T14:01:35Z</time>
      </trkpt>
      <trkpt lat="45.01341" lon="4.78391">
        <ele>469.22601318359</ele>
        <time>2010-01-30T14:01:43Z</time>
      </trkpt>
      <trkpt lat="45.0132" lon="4.78397">
        <ele>469.54000854492</ele>
        <time>2010-01-30T14:01:48Z</time>
      </trkpt>
      <trkpt lat="45.01304" lon="4.78397">
        <ele>470.20700073242</ele>
        <time>2010-01-30T14:01:52Z</time>
      </trkpt>
      <trkpt lat="45.01292" lon="4.78395">
        <ele>470.73498535156</ele>
        <time>2010-01-30T14:02:00Z</time>
      </trkpt>
      <trkpt lat="45.01241" lon="4.78348">
        <ele>471.54699707031</ele>
        <time>2010-01-30T14:02:09Z</time>
      </trkpt>
      <trkpt lat="45.01212" lon="4.78323">
        <ele>472.54598999023</ele>
        <time>2010-01-30T14:02:17Z</time>
      </trkpt>
      <trkpt lat="45.01193" lon="4.78306">
        <ele>474.10598754883</ele>
        <time>2010-01-30T14:02:22Z</time>
      </trkpt>
      <trkpt lat="45.01163" lon="4.78279">
        <ele>473.58200073242</ele>
        <time>2010-01-30T14:02:31Z</time>
      </trkpt>
      <trkpt lat="45.01121" lon="4.78245">
        <ele>474.59100341797</ele>
        <time>2010-01-30T14:02:41Z</time>
      </trkpt>
      <trkpt lat="45.01095" lon="4.78219">
        <ele>475.78799438477</ele>
        <time>2010-01-30T14:02:49Z</time>
      </trkpt>
      <trkpt lat="45.01066" lon="4.7819">
        <ele>476.56399536133</ele>
        <time>2010-01-30T14:02:58Z</time>
      </trkpt>
      <trkpt lat="45.01043" lon="4.78171">
        <ele>476.60198974609</ele>
        <time>2010-01-30T14:03:05Z</time>
      </trkpt>
      <trkpt lat="45.01024" lon="4.78153">
        <ele>476.42098999023</ele>
        <time>2010-01-30T14:03:11Z</time>
      </trkpt>
      <trkpt lat="45.01001" lon="4.78142">
        <ele>476.54098510742</ele>
        <time>2010-01-30T14:03:17Z</time>
      </trkpt>
      <trkpt lat="45.00977" lon="4.78146">
        <ele>476.97198486328</ele>
        <time>2010-01-30T14:03:23Z</time>
      </trkpt>
      <trkpt lat="45.00965" lon="4.78152">
        <ele>477.70599365234</ele>
        <time>2010-01-30T14:03:27Z</time>
      </trkpt>
      <trkpt lat="45.00962" lon="4.78169">
        <ele>478.95199584961</ele>
        <time>2010-01-30T14:03:31Z</time>
      </trkpt>
      <trkpt lat="45.00964" lon="4.78178">
        <ele>480.29501342773</ele>
        <time>2010-01-30T14:03:34Z</time>
      </trkpt>
      <trkpt lat="45.00968" lon="4.78189">
        <ele>481.55599975586</ele>
        <time>2010-01-30T14:03:37Z</time>
      </trkpt>
      <trkpt lat="45.00963" lon="4.7822">
        <ele>482.85198974609</ele>
        <time>2010-01-30T14:03:43Z</time>
      </trkpt>
      <trkpt lat="45.00959" lon="4.78235">
        <ele>483.26599121094</ele>
        <time>2010-01-30T14:03:46Z</time>
      </trkpt>
      <trkpt lat="45.00933" lon="4.78257">
        <ele>484.77499389648</ele>
        <time>2010-01-30T14:03:54Z</time>
      </trkpt>
      <trkpt lat="45.00927" lon="4.78262">
        <ele>486.83999633789</ele>
        <time>2010-01-30T14:04:02Z</time>
      </trkpt>
      <trkpt lat="45.00897" lon="4.7828">
        <ele>488.13500976562</ele>
        <time>2010-01-30T14:04:07Z</time>
      </trkpt>
      <trkpt lat="45.0088" lon="4.7829">
        <ele>489.90301513672</ele>
        <time>2010-01-30T14:04:13Z</time>
      </trkpt>
      <trkpt lat="45.00862" lon="4.78299">
        <ele>492.07000732422</ele>
        <time>2010-01-30T14:04:20Z</time>
      </trkpt>
      <trkpt lat="45.00844" lon="4.78306">
        <ele>493.79598999023</ele>
        <time>2010-01-30T14:04:26Z</time>
      </trkpt>
      <trkpt lat="45.00819" lon="4.78309">
        <ele>495.92300415039</ele>
        <time>2010-01-30T14:04:34Z</time>
      </trkpt>
      <trkpt lat="45.00792" lon="4.78309">
        <ele>498.34600830078</ele>
        <time>2010-01-30T14:04:42Z</time>
      </trkpt>
      <trkpt lat="45.00781" lon="4.78309">
        <ele>500.3030090332</ele>
        <time>2010-01-30T14:04:49Z</time>
      </trkpt>
      <trkpt lat="45.00734" lon="4.78312">
        <ele>501.98199462891</ele>
        <time>2010-01-30T14:04:58Z</time>
      </trkpt>
      <trkpt lat="45.00706" lon="4.78323">
        <ele>503.6130065918</ele>
        <time>2010-01-30T14:05:06Z</time>
      </trkpt>
      <trkpt lat="45.00672" lon="4.78346">
        <ele>505.66799926758</ele>
        <time>2010-01-30T14:05:16Z</time>
      </trkpt>
      <trkpt lat="45.00652" lon="4.7836">
        <ele>507.70498657227</ele>
        <time>2010-01-30T14:05:25Z</time>
      </trkpt>
      <trkpt lat="45.00624" lon="4.78402">
        <ele>509.13299560547</ele>
        <time>2010-01-30T14:05:33Z</time>
      </trkpt>
      <trkpt lat="45.0061" lon="4.78425">
        <ele>509.79998779297</ele>
        <time>2010-01-30T14:05:40Z</time>
      </trkpt>
      <trkpt lat="45.00597" lon="4.78467">
        <ele>508.76998901367</ele>
        <time>2010-01-30T14:05:46Z</time>
      </trkpt>
      <trkpt lat="45.00577" lon="4.78522">
        <ele>509.88299560547</ele>
        <time>2010-01-30T14:05:55Z</time>
      </trkpt>
      <trkpt lat="45.00572" lon="4.7854">
        <ele>509.69000244141</ele>
        <time>2010-01-30T14:05:58Z</time>
      </trkpt>
      <trkpt lat="45.00568" lon="4.78583">
        <ele>509.92401123047</ele>
        <time>2010-01-30T14:06:05Z</time>
      </trkpt>
      <trkpt lat="45.00564" lon="4.7861">
        <ele>509.84298706055</ele>
        <time>2010-01-30T14:06:09Z</time>
      </trkpt>
      <trkpt lat="45.00544" lon="4.78662">
        <ele>508.98599243164</ele>
        <time>2010-01-30T14:06:17Z</time>
      </trkpt>
      <trkpt lat="45.00526" lon="4.78688">
        <ele>509.10598754883</ele>
        <time>2010-01-30T14:06:22Z</time>
      </trkpt>
      <trkpt lat="45.00517" lon="4.78692">
        <ele>509.23098754883</ele>
        <time>2010-01-30T14:06:24Z</time>
      </trkpt>
      <trkpt lat="45.00508" lon="4.78695">
        <ele>509.77301025391</ele>
        <time>2010-01-30T14:06:26Z</time>
      </trkpt>
      <trkpt lat="45.00477" lon="4.78711">
        <ele>511.68399047852</ele>
        <time>2010-01-30T14:06:34Z</time>
      </trkpt>
      <trkpt lat="45.0045" lon="4.78742">
        <ele>511.71899414062</ele>
        <time>2010-01-30T14:06:43Z</time>
      </trkpt>
      <trkpt lat="45.0043" lon="4.78769">
        <ele>511.10699462891</ele>
        <time>2010-01-30T14:06:49Z</time>
      </trkpt>
      <trkpt lat="45.00418" lon="4.78786">
        <ele>510.60900878906</ele>
        <time>2010-01-30T14:06:52Z</time>
      </trkpt>
      <trkpt lat="45.00394" lon="4.78807">
        <ele>513.01000976562</ele>
        <time>2010-01-30T14:06:58Z</time>
      </trkpt>
      <trkpt lat="45.00357" lon="4.78835">
        <ele>514.20697021484</ele>
        <time>2010-01-30T14:07:07Z</time>
      </trkpt>
      <trkpt lat="45.00335" lon="4.78851">
        <ele>515.17797851562</ele>
        <time>2010-01-30T14:07:13Z</time>
      </trkpt>
      <trkpt lat="45.00299" lon="4.78875">
        <ele>516.23901367188</ele>
        <time>2010-01-30T14:07:22Z</time>
      </trkpt>
      <trkpt lat="45.0026" lon="4.78897">
        <ele>517.36999511719</ele>
        <time>2010-01-30T14:07:31Z</time>
      </trkpt>
      <trkpt lat="45.00231" lon="4.7891">
        <ele>517.40301513672</ele>
        <time>2010-01-30T14:07:37Z</time>
      </trkpt>
      <trkpt lat="45.00201" lon="4.78924">
        <ele>518.64501953125</ele>
        <time>2010-01-30T14:07:43Z</time>
      </trkpt>
      <trkpt lat="45.00187" lon="4.7893">
        <ele>519.64099121094</ele>
        <time>2010-01-30T14:07:46Z</time>
      </trkpt>
      <trkpt lat="45.0017" lon="4.78941">
        <ele>520.08001708984</ele>
        <time>2010-01-30T14:07:50Z</time>
      </trkpt>
      <trkpt lat="45.00148" lon="4.78959">
        <ele>519.26800537109</ele>
        <time>2010-01-30T14:07:55Z</time>
      </trkpt>
      <trkpt lat="45.00108" lon="4.78994">
        <ele>519.43200683594</ele>
        <time>2010-01-30T14:08:04Z</time>
      </trkpt>
      <trkpt lat="45.0008" lon="4.79017">
        <ele>519.05200195312</ele>
        <time>2010-01-30T14:08:10Z</time>
      </trkpt>
      <trkpt lat="45.0007" lon="4.79026">
        <ele>518.68597412109</ele>
        <time>2010-01-30T14:08:12Z</time>
      </trkpt>
      <trkpt lat="45.0006" lon="4.79034">
        <ele>518.25701904297</ele>
        <time>2010-01-30T14:08:14Z</time>
      </trkpt>
      <trkpt lat="45.00019" lon="4.79048">
        <ele>519.083984375</ele>
        <time>2010-01-30T14:08:21Z</time>
      </trkpt>
      <trkpt lat="44.99983" lon="4.79049">
        <ele>518.11102294922</ele>
        <time>2010-01-30T14:08:27Z</time>
      </trkpt>
      <trkpt lat="44.99944" lon="4.79047">
        <ele>517.49499511719</ele>
        <time>2010-01-30T14:08:35Z</time>
      </trkpt>
      <trkpt lat="44.999" lon="4.79038">
        <ele>515.42999267578</ele>
        <time>2010-01-30T14:08:40Z</time>
      </trkpt>
      <trkpt lat="44.99858" lon="4.79038">
        <ele>513.87097167969</ele>
        <time>2010-01-30T14:08:46Z</time>
      </trkpt>
      <trkpt lat="44.99807" lon="4.79038">
        <ele>511.85000610352</ele>
        <time>2010-01-30T14:08:53Z</time>
      </trkpt>
      <trkpt lat="44.99762" lon="4.79034">
        <ele>509.97500610352</ele>
        <time>2010-01-30T14:08:59Z</time>
      </trkpt>
      <trkpt lat="44.99739" lon="4.79029">
        <ele>509.67001342773</ele>
        <time>2010-01-30T14:09:02Z</time>
      </trkpt>
      <trkpt lat="44.99695" lon="4.79033">
        <ele>509.62399291992</ele>
        <time>2010-01-30T14:09:08Z</time>
      </trkpt>
      <trkpt lat="44.99669" lon="4.7905">
        <ele>510.11199951172</ele>
        <time>2010-01-30T14:09:13Z</time>
      </trkpt>
      <trkpt lat="44.99666" lon="4.79057">
        <ele>510.30801391602</ele>
        <time>2010-01-30T14:09:14Z</time>
      </trkpt>
      <trkpt lat="44.99651" lon="4.79099">
        <ele>512.27502441406</ele>
        <time>2010-01-30T14:09:21Z</time>
      </trkpt>
      <trkpt lat="44.99643" lon="4.7912">
        <ele>512.61499023438</ele>
        <time>2010-01-30T14:09:25Z</time>
      </trkpt>
      <trkpt lat="44.99628" lon="4.7916">
        <ele>514.40301513672</ele>
        <time>2010-01-30T14:09:32Z</time>
      </trkpt>
      <trkpt lat="44.99614" lon="4.79182">
        <ele>515.17797851562</ele>
        <time>2010-01-30T14:09:37Z</time>
      </trkpt>
      <trkpt lat="44.99603" lon="4.79198">
        <ele>515.65002441406</ele>
        <time>2010-01-30T14:09:42Z</time>
      </trkpt>
      <trkpt lat="44.99585" lon="4.79226">
        <ele>516.92999267578</ele>
        <time>2010-01-30T14:09:50Z</time>
      </trkpt>
      <trkpt lat="44.99572" lon="4.79246">
        <ele>517.35699462891</ele>
        <time>2010-01-30T14:09:55Z</time>
      </trkpt>
      <trkpt lat="44.99561" lon="4.79264">
        <ele>517.96697998047</ele>
        <time>2010-01-30T14:09:59Z</time>
      </trkpt>
      <trkpt lat="44.99554" lon="4.79274">
        <ele>518.29901123047</ele>
        <time>2010-01-30T14:10:02Z</time>
      </trkpt>
      <trkpt lat="44.99534" lon="4.79283">
        <ele>518.12200927734</ele>
        <time>2010-01-30T14:10:06Z</time>
      </trkpt>
      <trkpt lat="44.99504" lon="4.79297">
        <ele>515.95397949219</ele>
        <time>2010-01-30T14:10:12Z</time>
      </trkpt>
      <trkpt lat="44.99477" lon="4.79309">
        <ele>513.84100341797</ele>
        <time>2010-01-30T14:10:16Z</time>
      </trkpt>
      <trkpt lat="44.99451" lon="4.79321">
        <ele>511.11999511719</ele>
        <time>2010-01-30T14:10:22Z</time>
      </trkpt>
      <trkpt lat="44.99451" lon="4.79321">
        <ele>510.54400634766</ele>
        <time>2010-01-30T14:10:23Z</time>
      </trkpt>
      <trkpt lat="44.99394" lon="4.79361">
        <ele>508.78500366211</ele>
        <time>2010-01-30T14:10:27Z</time>
      </trkpt>
      <trkpt lat="44.99384" lon="4.79378">
        <ele>508.06698608398</ele>
        <time>2010-01-30T14:10:29Z</time>
      </trkpt>
      <trkpt lat="44.99374" lon="4.79396">
        <ele>507.73001098633</ele>
        <time>2010-01-30T14:10:31Z</time>
      </trkpt>
      <trkpt lat="44.99343" lon="4.79439">
        <ele>507.72198486328</ele>
        <time>2010-01-30T14:10:37Z</time>
      </trkpt>
      <trkpt lat="44.99316" lon="4.79468">
        <ele>508.19900512695</ele>
        <time>2010-01-30T14:10:42Z</time>
      </trkpt>
      <trkpt lat="44.99301" lon="4.79479">
        <ele>508.81500244141</ele>
        <time>2010-01-30T14:10:45Z</time>
      </trkpt>
      <trkpt lat="44.99287" lon="4.79485">
        <ele>508.61700439453</ele>
        <time>2010-01-30T14:10:48Z</time>
      </trkpt>
      <trkpt lat="44.99268" lon="4.79491">
        <ele>507.77801513672</ele>
        <time>2010-01-30T14:10:52Z</time>
      </trkpt>
      <trkpt lat="44.99218" lon="4.79484">
        <ele>506.58599853516</ele>
        <time>2010-01-30T14:11:00Z</time>
      </trkpt>
      <trkpt lat="44.99212" lon="4.7948">
        <ele>506.29699707031</ele>
        <time>2010-01-30T14:11:01Z</time>
      </trkpt>
      <trkpt lat="44.9919" lon="4.79466">
        <ele>506.55200195312</ele>
        <time>2010-01-30T14:11:05Z</time>
      </trkpt>
      <trkpt lat="44.99164" lon="4.79456">
        <ele>505.86499023438</ele>
        <time>2010-01-30T14:11:09Z</time>
      </trkpt>
      <trkpt lat="44.99144" lon="4.79458">
        <ele>505.95401000977</ele>
        <time>2010-01-30T14:11:12Z</time>
      </trkpt>
      <trkpt lat="44.991" lon="4.79445">
        <ele>506.07501220703</ele>
        <time>2010-01-30T14:11:19Z</time>
      </trkpt>
      <trkpt lat="44.99075" lon="4.79434">
        <ele>505.91900634766</ele>
        <time>2010-01-30T14:11:23Z</time>
      </trkpt>
      <trkpt lat="44.99023" lon="4.79423">
        <ele>504.6969909668</ele>
        <time>2010-01-30T14:11:31Z</time>
      </trkpt>
      <trkpt lat="44.9898" lon="4.79414">
        <ele>502.22799682617</ele>
        <time>2010-01-30T14:11:37Z</time>
      </trkpt>
      <trkpt lat="44.98964" lon="4.7941">
        <ele>501.29501342773</ele>
        <time>2010-01-30T14:11:39Z</time>
      </trkpt>
      <trkpt lat="44.98956" lon="4.79409">
        <ele>501.5419921875</ele>
        <time>2010-01-30T14:11:40Z</time>
      </trkpt>
      <trkpt lat="44.98932" lon="4.79399">
        <ele>500.01400756836</ele>
        <time>2010-01-30T14:11:43Z</time>
      </trkpt>
      <trkpt lat="44.98902" lon="4.79378">
        <ele>500.98901367188</ele>
        <time>2010-01-30T14:11:47Z</time>
      </trkpt>
      <trkpt lat="44.98893" lon="4.79366">
        <ele>501.89001464844</ele>
        <time>2010-01-30T14:11:49Z</time>
      </trkpt>
      <trkpt lat="44.98889" lon="4.79361">
        <ele>502.61898803711</ele>
        <time>2010-01-30T14:11:50Z</time>
      </trkpt>
      <trkpt lat="44.98872" lon="4.7935">
        <ele>504.8210144043</ele>
        <time>2010-01-30T14:11:55Z</time>
      </trkpt>
      <trkpt lat="44.98867" lon="4.79347">
        <ele>505.53698730469</ele>
        <time>2010-01-30T14:11:57Z</time>
      </trkpt>
      <trkpt lat="44.98864" lon="4.79346">
        <ele>505.70300292969</ele>
        <time>2010-01-30T14:11:58Z</time>
      </trkpt>
      <trkpt lat="44.98846" lon="4.79339">
        <ele>507.40600585938</ele>
        <time>2010-01-30T14:12:04Z</time>
      </trkpt>
      <trkpt lat="44.98834" lon="4.79339">
        <ele>508.81500244141</ele>
        <time>2010-01-30T14:12:08Z</time>
      </trkpt>
      <trkpt lat="44.98815" lon="4.79339">
        <ele>510.48498535156</ele>
        <time>2010-01-30T14:12:14Z</time>
      </trkpt>
      <trkpt lat="44.98791" lon="4.79341">
        <ele>512.90197753906</ele>
        <time>2010-01-30T14:12:22Z</time>
      </trkpt>
      <trkpt lat="44.98774" lon="4.79351">
        <ele>514.63897705078</ele>
        <time>2010-01-30T14:12:28Z</time>
      </trkpt>
      <trkpt lat="44.98754" lon="4.79365">
        <ele>516.04400634766</ele>
        <time>2010-01-30T14:12:34Z</time>
      </trkpt>
      <trkpt lat="44.98728" lon="4.79386">
        <ele>517.55401611328</ele>
        <time>2010-01-30T14:12:42Z</time>
      </trkpt>
      <trkpt lat="44.98703" lon="4.79386">
        <ele>519.25598144531</ele>
        <time>2010-01-30T14:12:50Z</time>
      </trkpt>
      <trkpt lat="44.98679" lon="4.79402">
        <ele>520.50799560547</ele>
        <time>2010-01-30T14:12:56Z</time>
      </trkpt>
      <trkpt lat="44.98673" lon="4.79403">
        <ele>521.6259765625</ele>
        <time>2010-01-30T14:13:03Z</time>
      </trkpt>
      <trkpt lat="44.98672" lon="4.79403">
        <ele>521.99298095703</ele>
        <time>2010-01-30T14:13:04Z</time>
      </trkpt>
      <trkpt lat="44.98664" lon="4.79398">
        <ele>522.03399658203</ele>
        <time>2010-01-30T14:13:11Z</time>
      </trkpt>
      <trkpt lat="44.98666" lon="4.79405">
        <ele>522.17901611328</ele>
        <time>2010-01-30T14:13:15Z</time>
      </trkpt>
      <trkpt lat="44.98668" lon="4.79397">
        <ele>522.666015625</ele>
        <time>2010-01-30T14:14:20Z</time>
      </trkpt>
      <trkpt lat="44.98668" lon="4.79397">
        <ele>522.53997802734</ele>
        <time>2010-01-30T14:14:21Z</time>
      </trkpt>
      <trkpt lat="44.98664" lon="4.79397">
        <ele>523.13702392578</ele>
        <time>2010-01-30T14:14:26Z</time>
      </trkpt>
      <trkpt lat="44.98663" lon="4.79394">
        <ele>523.40802001953</ele>
        <time>2010-01-30T14:14:31Z</time>
      </trkpt>
      <trkpt lat="44.98663" lon="4.79394">
        <ele>523.42602539062</ele>
        <time>2010-01-30T14:14:33Z</time>
      </trkpt>
      <trkpt lat="44.98663" lon="4.79383">
        <ele>523.57897949219</ele>
        <time>2010-01-30T14:15:35Z</time>
      </trkpt>
      <trkpt lat="44.98666" lon="4.79373">
        <ele>524.26599121094</ele>
        <time>2010-01-30T14:15:44Z</time>
      </trkpt>
      <trkpt lat="44.98668" lon="4.79369">
        <ele>524.18298339844</ele>
        <time>2010-01-30T14:15:51Z</time>
      </trkpt>
      <trkpt lat="44.98669" lon="4.79364">
        <ele>524.30700683594</ele>
        <time>2010-01-30T14:15:55Z</time>
      </trkpt>
      <trkpt lat="44.98672" lon="4.79355">
        <ele>524.89599609375</ele>
        <time>2010-01-30T14:16:01Z</time>
      </trkpt>
      <trkpt lat="44.98674" lon="4.79346">
        <ele>525.52502441406</ele>
        <time>2010-01-30T14:16:07Z</time>
      </trkpt>
      <trkpt lat="44.98673" lon="4.79344">
        <ele>525.67199707031</ele>
        <time>2010-01-30T14:16:09Z</time>
      </trkpt>
      <trkpt lat="44.9867" lon="4.79328">
        <ele>526.47399902344</ele>
        <time>2010-01-30T14:16:14Z</time>
      </trkpt>
      <trkpt lat="44.98663" lon="4.79321">
        <ele>526.84997558594</ele>
        <time>2010-01-30T14:16:17Z</time>
      </trkpt>
      <trkpt lat="44.98657" lon="4.79318">
        <ele>527.09899902344</ele>
        <time>2010-01-30T14:16:19Z</time>
      </trkpt>
      <trkpt lat="44.9864" lon="4.79324">
        <ele>527.87701416016</ele>
        <time>2010-01-30T14:16:24Z</time>
      </trkpt>
      <trkpt lat="44.98611" lon="4.79333">
        <ele>528.81402587891</ele>
        <time>2010-01-30T14:16:32Z</time>
      </trkpt>
      <trkpt lat="44.98591" lon="4.79339">
        <ele>529.54901123047</ele>
        <time>2010-01-30T14:16:38Z</time>
      </trkpt>
      <trkpt lat="44.98588" lon="4.7934">
        <ele>529.91497802734</ele>
        <time>2010-01-30T14:16:39Z</time>
      </trkpt>
      <trkpt lat="44.98575" lon="4.79337">
        <ele>530.28900146484</ele>
        <time>2010-01-30T14:16:44Z</time>
      </trkpt>
      <trkpt lat="44.98575" lon="4.79321">
        <ele>531.08898925781</ele>
        <time>2010-01-30T14:16:49Z</time>
      </trkpt>
      <trkpt lat="44.98575" lon="4.79299">
        <ele>532.36297607422</ele>
        <time>2010-01-30T14:16:57Z</time>
      </trkpt>
      <trkpt lat="44.98572" lon="4.79281">
        <ele>533.00299072266</ele>
        <time>2010-01-30T14:17:04Z</time>
      </trkpt>
      <trkpt lat="44.98569" lon="4.79277">
        <ele>533.57299804688</ele>
        <time>2010-01-30T14:17:08Z</time>
      </trkpt>
      <trkpt lat="44.98569" lon="4.79277">
        <ele>533.46997070312</ele>
        <time>2010-01-30T14:17:29Z</time>
      </trkpt>
      <trkpt lat="44.9856" lon="4.79271">
        <ele>534.08801269531</ele>
        <time>2010-01-30T14:17:36Z</time>
      </trkpt>
      <trkpt lat="44.98552" lon="4.79265">
        <ele>534.625</ele>
        <time>2010-01-30T14:17:41Z</time>
      </trkpt>
      <trkpt lat="44.98534" lon="4.79252">
        <ele>535.78900146484</ele>
        <time>2010-01-30T14:17:50Z</time>
      </trkpt>
      <trkpt lat="44.98513" lon="4.79237">
        <ele>536.71697998047</ele>
        <time>2010-01-30T14:17:59Z</time>
      </trkpt>
      <trkpt lat="44.98493" lon="4.79223">
        <ele>537.77801513672</ele>
        <time>2010-01-30T14:18:07Z</time>
      </trkpt>
      <trkpt lat="44.98467" lon="4.79204">
        <ele>538.96801757812</ele>
        <time>2010-01-30T14:18:17Z</time>
      </trkpt>
      <trkpt lat="44.98443" lon="4.79187">
        <ele>540.23297119141</ele>
        <time>2010-01-30T14:18:26Z</time>
      </trkpt>
      <trkpt lat="44.98414" lon="4.7917">
        <ele>541.89099121094</ele>
        <time>2010-01-30T14:18:35Z</time>
      </trkpt>
      <trkpt lat="44.98396" lon="4.7917">
        <ele>542.74200439453</ele>
        <time>2010-01-30T14:18:40Z</time>
      </trkpt>
      <trkpt lat="44.9838" lon="4.79182">
        <ele>542.24798583984</ele>
        <time>2010-01-30T14:18:45Z</time>
      </trkpt>
      <trkpt lat="44.98362" lon="4.79201">
        <ele>542.03002929688</ele>
        <time>2010-01-30T14:18:50Z</time>
      </trkpt>
      <trkpt lat="44.98346" lon="4.79215">
        <ele>541.65100097656</ele>
        <time>2010-01-30T14:18:55Z</time>
      </trkpt>
      <trkpt lat="44.98335" lon="4.79217">
        <ele>541.56500244141</ele>
        <time>2010-01-30T14:18:59Z</time>
      </trkpt>
      <trkpt lat="44.98323" lon="4.79211">
        <ele>541.83502197266</ele>
        <time>2010-01-30T14:19:04Z</time>
      </trkpt>
      <trkpt lat="44.98313" lon="4.79194">
        <ele>541.81896972656</ele>
        <time>2010-01-30T14:19:09Z</time>
      </trkpt>
      <trkpt lat="44.98311" lon="4.79181">
        <ele>541.82800292969</ele>
        <time>2010-01-30T14:19:12Z</time>
      </trkpt>
      <trkpt lat="44.98304" lon="4.79153">
        <ele>542.89001464844</ele>
        <time>2010-01-30T14:19:18Z</time>
      </trkpt>
      <trkpt lat="44.9829" lon="4.79147">
        <ele>543.67401123047</ele>
        <time>2010-01-30T14:19:23Z</time>
      </trkpt>
      <trkpt lat="44.98275" lon="4.79144">
        <ele>544.72900390625</ele>
        <time>2010-01-30T14:19:28Z</time>
      </trkpt>
      <trkpt lat="44.98257" lon="4.7914">
        <ele>545.95599365234</ele>
        <time>2010-01-30T14:19:34Z</time>
      </trkpt>
      <trkpt lat="44.98245" lon="4.79129">
        <ele>547.40502929688</ele>
        <time>2010-01-30T14:19:39Z</time>
      </trkpt>
      <trkpt lat="44.98245" lon="4.79108">
        <ele>548.12799072266</ele>
        <time>2010-01-30T14:19:44Z</time>
      </trkpt>
      <trkpt lat="44.98254" lon="4.79076">
        <ele>548.97900390625</ele>
        <time>2010-01-30T14:19:51Z</time>
      </trkpt>
      <trkpt lat="44.98256" lon="4.79072">
        <ele>548.63598632812</ele>
        <time>2010-01-30T14:19:52Z</time>
      </trkpt>
      <trkpt lat="44.98257" lon="4.79067">
        <ele>548.22100830078</ele>
        <time>2010-01-30T14:19:54Z</time>
      </trkpt>
      <trkpt lat="44.98257" lon="4.79067">
        <ele>552.93597412109</ele>
        <time>2010-01-30T14:21:06Z</time>
      </trkpt>
      <trkpt lat="44.98228" lon="4.78999">
        <ele>552.90698242188</ele>
        <time>2010-01-30T14:21:08Z</time>
      </trkpt>
      <trkpt lat="44.98226" lon="4.78997">
        <ele>552.97100830078</ele>
        <time>2010-01-30T14:21:09Z</time>
      </trkpt>
      <trkpt lat="44.98199" lon="4.78978">
        <ele>553.55999755859</ele>
        <time>2010-01-30T14:21:20Z</time>
      </trkpt>
      <trkpt lat="44.98174" lon="4.78964">
        <ele>554.89001464844</ele>
        <time>2010-01-30T14:21:30Z</time>
      </trkpt>
      <trkpt lat="44.98149" lon="4.78951">
        <ele>556.8759765625</ele>
        <time>2010-01-30T14:21:40Z</time>
      </trkpt>
      <trkpt lat="44.98123" lon="4.78937">
        <ele>559.30700683594</ele>
        <time>2010-01-30T14:21:51Z</time>
      </trkpt>
      <trkpt lat="44.98109" lon="4.7893">
        <ele>560.94702148438</ele>
        <time>2010-01-30T14:21:58Z</time>
      </trkpt>
      <trkpt lat="44.98107" lon="4.78929">
        <ele>561.14801025391</ele>
        <time>2010-01-30T14:22:02Z</time>
      </trkpt>
      <trkpt lat="44.98107" lon="4.78929">
        <ele>561.22802734375</ele>
        <time>2010-01-30T14:22:05Z</time>
      </trkpt>
      <trkpt lat="44.98101" lon="4.78918">
        <ele>561.70599365234</ele>
        <time>2010-01-30T14:22:13Z</time>
      </trkpt>
      <trkpt lat="44.98099" lon="4.7891">
        <ele>562.21801757812</ele>
        <time>2010-01-30T14:22:19Z</time>
      </trkpt>
      <trkpt lat="44.98099" lon="4.78897">
        <ele>563.39697265625</ele>
        <time>2010-01-30T14:22:28Z</time>
      </trkpt>
      <trkpt lat="44.98098" lon="4.78884">
        <ele>564.78497314453</ele>
        <time>2010-01-30T14:22:36Z</time>
      </trkpt>
      <trkpt lat="44.98096" lon="4.78867">
        <ele>565.18200683594</ele>
        <time>2010-01-30T14:22:46Z</time>
      </trkpt>
      <trkpt lat="44.98092" lon="4.78851">
        <ele>565.95501708984</ele>
        <time>2010-01-30T14:22:53Z</time>
      </trkpt>
      <trkpt lat="44.9808" lon="4.7884">
        <ele>566.24700927734</ele>
        <time>2010-01-30T14:23:01Z</time>
      </trkpt>
      <trkpt lat="44.98069" lon="4.78834">
        <ele>566.73901367188</ele>
        <time>2010-01-30T14:23:06Z</time>
      </trkpt>
      <trkpt lat="44.98052" lon="4.78824">
        <ele>567.71002197266</ele>
        <time>2010-01-30T14:23:13Z</time>
      </trkpt>
      <trkpt lat="44.98036" lon="4.78814">
        <ele>568.52600097656</ele>
        <time>2010-01-30T14:23:20Z</time>
      </trkpt>
      <trkpt lat="44.98016" lon="4.78804">
        <ele>569.3759765625</ele>
        <time>2010-01-30T14:23:29Z</time>
      </trkpt>
      <trkpt lat="44.97992" lon="4.78793">
        <ele>570.97100830078</ele>
        <time>2010-01-30T14:23:39Z</time>
      </trkpt>
      <trkpt lat="44.97963" lon="4.78781">
        <ele>572.80499267578</ele>
        <time>2010-01-30T14:23:50Z</time>
      </trkpt>
      <trkpt lat="44.97943" lon="4.78772">
        <ele>573.96398925781</ele>
        <time>2010-01-30T14:23:58Z</time>
      </trkpt>
      <trkpt lat="44.97919" lon="4.78761">
        <ele>575.30902099609</ele>
        <time>2010-01-30T14:24:06Z</time>
      </trkpt>
      <trkpt lat="44.97902" lon="4.78753">
        <ele>576.76702880859</ele>
        <time>2010-01-30T14:24:12Z</time>
      </trkpt>
      <trkpt lat="44.97886" lon="4.78746">
        <ele>577.17901611328</ele>
        <time>2010-01-30T14:24:18Z</time>
      </trkpt>
      <trkpt lat="44.97868" lon="4.78738">
        <ele>578.27600097656</ele>
        <time>2010-01-30T14:24:24Z</time>
      </trkpt>
      <trkpt lat="44.97858" lon="4.78723">
        <ele>579.34899902344</ele>
        <time>2010-01-30T14:24:29Z</time>
      </trkpt>
      <trkpt lat="44.97853" lon="4.78701">
        <ele>579.19897460938</ele>
        <time>2010-01-30T14:24:35Z</time>
      </trkpt>
      <trkpt lat="44.97849" lon="4.7868">
        <ele>578.89599609375</ele>
        <time>2010-01-30T14:24:42Z</time>
      </trkpt>
      <trkpt lat="44.97842" lon="4.78661">
        <ele>578.21301269531</ele>
        <time>2010-01-30T14:24:48Z</time>
      </trkpt>
      <trkpt lat="44.97834" lon="4.78655">
        <ele>578.02502441406</ele>
        <time>2010-01-30T14:24:52Z</time>
      </trkpt>
      <trkpt lat="44.97831" lon="4.78654">
        <ele>578.3759765625</ele>
        <time>2010-01-30T14:24:54Z</time>
      </trkpt>
      <trkpt lat="44.97829" lon="4.78654">
        <ele>578.02398681641</ele>
        <time>2010-01-30T14:24:57Z</time>
      </trkpt>
      <trkpt lat="44.97812" lon="4.78661">
        <ele>577.99102783203</ele>
        <time>2010-01-30T14:25:22Z</time>
      </trkpt>
      <trkpt lat="44.97833" lon="4.78655">
        <ele>577.68298339844</ele>
        <time>2010-01-30T14:25:24Z</time>
      </trkpt>
      <trkpt lat="44.97841" lon="4.78661">
        <ele>577.83099365234</ele>
        <time>2010-01-30T14:25:29Z</time>
      </trkpt>
      <trkpt lat="44.97844" lon="4.78663">
        <ele>578.22497558594</ele>
        <time>2010-01-30T14:25:31Z</time>
      </trkpt>
      <trkpt lat="44.97841" lon="4.7866">
        <ele>578.24102783203</ele>
        <time>2010-01-30T14:25:36Z</time>
      </trkpt>
      <trkpt lat="44.97829" lon="4.78653">
        <ele>577.93701171875</ele>
        <time>2010-01-30T14:25:43Z</time>
      </trkpt>
      <trkpt lat="44.97821" lon="4.78654">
        <ele>577.57800292969</ele>
        <time>2010-01-30T14:25:49Z</time>
      </trkpt>
      <trkpt lat="44.9782" lon="4.78654">
        <ele>577.74200439453</ele>
        <time>2010-01-30T14:25:51Z</time>
      </trkpt>
      <trkpt lat="44.97818" lon="4.78656">
        <ele>577.10498046875</ele>
        <time>2010-01-30T14:27:28Z</time>
      </trkpt>
      <trkpt lat="44.97812" lon="4.78661">
        <ele>577.22802734375</ele>
        <time>2010-01-30T14:27:34Z</time>
      </trkpt>
      <trkpt lat="44.97812" lon="4.78661">
        <ele>577.22302246094</ele>
        <time>2010-01-30T14:27:40Z</time>
      </trkpt>
      <trkpt lat="44.97803" lon="4.78697">
        <ele>577.60797119141</ele>
        <time>2010-01-30T14:27:46Z</time>
      </trkpt>
      <trkpt lat="44.97793" lon="4.78714">
        <ele>577.85400390625</ele>
        <time>2010-01-30T14:27:52Z</time>
      </trkpt>
      <trkpt lat="44.97777" lon="4.78737">
        <ele>578.71099853516</ele>
        <time>2010-01-30T14:27:59Z</time>
      </trkpt>
      <trkpt lat="44.97762" lon="4.78753">
        <ele>579.78497314453</ele>
        <time>2010-01-30T14:28:05Z</time>
      </trkpt>
      <trkpt lat="44.97743" lon="4.78758">
        <ele>581.00299072266</ele>
        <time>2010-01-30T14:28:11Z</time>
      </trkpt>
      <trkpt lat="44.97729" lon="4.78759">
        <ele>581.82098388672</ele>
        <time>2010-01-30T14:28:15Z</time>
      </trkpt>
      <trkpt lat="44.97718" lon="4.78758">
        <ele>582.39001464844</ele>
        <time>2010-01-30T14:28:18Z</time>
      </trkpt>
      <trkpt lat="44.97686" lon="4.78755">
        <ele>584.46502685547</ele>
        <time>2010-01-30T14:28:27Z</time>
      </trkpt>
      <trkpt lat="44.97658" lon="4.78762">
        <ele>586.12799072266</ele>
        <time>2010-01-30T14:28:36Z</time>
      </trkpt>
      <trkpt lat="44.97638" lon="4.78771">
        <ele>587.33898925781</ele>
        <time>2010-01-30T14:28:43Z</time>
      </trkpt>
      <trkpt lat="44.97631" lon="4.78788">
        <ele>587.90600585938</ele>
        <time>2010-01-30T14:28:48Z</time>
      </trkpt>
      <trkpt lat="44.97633" lon="4.78811">
        <ele>588.68402099609</ele>
        <time>2010-01-30T14:28:53Z</time>
      </trkpt>
      <trkpt lat="44.97633" lon="4.78844">
        <ele>589.416015625</ele>
        <time>2010-01-30T14:29:00Z</time>
      </trkpt>
      <trkpt lat="44.97628" lon="4.78861">
        <ele>589.68902587891</ele>
        <time>2010-01-30T14:29:04Z</time>
      </trkpt>
      <trkpt lat="44.97613" lon="4.78872">
        <ele>590.67602539062</ele>
        <time>2010-01-30T14:29:09Z</time>
      </trkpt>
      <trkpt lat="44.97581" lon="4.78877">
        <ele>591.67401123047</ele>
        <time>2010-01-30T14:29:18Z</time>
      </trkpt>
      <trkpt lat="44.97567" lon="4.78879">
        <ele>592.97998046875</ele>
        <time>2010-01-30T14:29:28Z</time>
      </trkpt>
      <trkpt lat="44.97525" lon="4.78903">
        <ele>593.56097412109</ele>
        <time>2010-01-30T14:29:35Z</time>
      </trkpt>
      <trkpt lat="44.97524" lon="4.78929">
        <ele>593.94000244141</ele>
        <time>2010-01-30T14:29:40Z</time>
      </trkpt>
      <trkpt lat="44.97528" lon="4.78942">
        <ele>593.84600830078</ele>
        <time>2010-01-30T14:29:43Z</time>
      </trkpt>
      <trkpt lat="44.97542" lon="4.78987">
        <ele>593.52801513672</ele>
        <time>2010-01-30T14:29:51Z</time>
      </trkpt>
      <trkpt lat="44.97551" lon="4.79031">
        <ele>593.20501708984</ele>
        <time>2010-01-30T14:29:58Z</time>
      </trkpt>
      <trkpt lat="44.97558" lon="4.79064">
        <ele>592.73400878906</ele>
        <time>2010-01-30T14:30:05Z</time>
      </trkpt>
      <trkpt lat="44.9758" lon="4.7911">
        <ele>592.95098876953</ele>
        <time>2010-01-30T14:30:11Z</time>
      </trkpt>
      <trkpt lat="44.97609" lon="4.79142">
        <ele>593.75402832031</ele>
        <time>2010-01-30T14:30:19Z</time>
      </trkpt>
      <trkpt lat="44.97648" lon="4.79169">
        <ele>593.71002197266</ele>
        <time>2010-01-30T14:30:29Z</time>
      </trkpt>
      <trkpt lat="44.97678" lon="4.79186">
        <ele>594.9169921875</ele>
        <time>2010-01-30T14:30:37Z</time>
      </trkpt>
      <trkpt lat="44.97699" lon="4.79192">
        <ele>595.81298828125</ele>
        <time>2010-01-30T14:30:43Z</time>
      </trkpt>
      <trkpt lat="44.97706" lon="4.79193">
        <ele>596.49200439453</ele>
        <time>2010-01-30T14:30:45Z</time>
      </trkpt>
      <trkpt lat="44.97725" lon="4.79197">
        <ele>597.05700683594</ele>
        <time>2010-01-30T14:30:51Z</time>
      </trkpt>
      <trkpt lat="44.97747" lon="4.7921">
        <ele>598.24401855469</ele>
        <time>2010-01-30T14:30:58Z</time>
      </trkpt>
      <trkpt lat="44.97768" lon="4.79223">
        <ele>599.36199951172</ele>
        <time>2010-01-30T14:31:05Z</time>
      </trkpt>
      <trkpt lat="44.97792" lon="4.79238">
        <ele>601.12200927734</ele>
        <time>2010-01-30T14:31:13Z</time>
      </trkpt>
      <trkpt lat="44.97818" lon="4.79246">
        <ele>602.48297119141</ele>
        <time>2010-01-30T14:31:21Z</time>
      </trkpt>
      <trkpt lat="44.97831" lon="4.79248">
        <ele>602.76300048828</ele>
        <time>2010-01-30T14:31:25Z</time>
      </trkpt>
      <trkpt lat="44.97854" lon="4.79268">
        <ele>603.96197509766</ele>
        <time>2010-01-30T14:31:32Z</time>
      </trkpt>
      <trkpt lat="44.97862" lon="4.79295">
        <ele>605.32000732422</ele>
        <time>2010-01-30T14:31:38Z</time>
      </trkpt>
      <trkpt lat="44.9786" lon="4.79321">
        <ele>606.13800048828</ele>
        <time>2010-01-30T14:31:44Z</time>
      </trkpt>
      <trkpt lat="44.97867" lon="4.79347">
        <ele>607.1259765625</ele>
        <time>2010-01-30T14:31:50Z</time>
      </trkpt>
      <trkpt lat="44.97889" lon="4.79368">
        <ele>608.9169921875</ele>
        <time>2010-01-30T14:31:58Z</time>
      </trkpt>
      <trkpt lat="44.97911" lon="4.79391">
        <ele>610.26202392578</ele>
        <time>2010-01-30T14:32:06Z</time>
      </trkpt>
      <trkpt lat="44.97932" lon="4.79412">
        <ele>611.20202636719</ele>
        <time>2010-01-30T14:32:15Z</time>
      </trkpt>
      <trkpt lat="44.97944" lon="4.7943">
        <ele>611.60797119141</ele>
        <time>2010-01-30T14:32:21Z</time>
      </trkpt>
      <trkpt lat="44.97961" lon="4.79462">
        <ele>613.03198242188</ele>
        <time>2010-01-30T14:32:30Z</time>
      </trkpt>
      <trkpt lat="44.97973" lon="4.79487">
        <ele>613.79302978516</ele>
        <time>2010-01-30T14:32:37Z</time>
      </trkpt>
      <trkpt lat="44.97974" lon="4.79489">
        <ele>615.00897216797</ele>
        <time>2010-01-30T14:32:45Z</time>
      </trkpt>
      <trkpt lat="44.97999" lon="4.79544">
        <ele>616.57897949219</ele>
        <time>2010-01-30T14:32:53Z</time>
      </trkpt>
      <trkpt lat="44.98005" lon="4.79572">
        <ele>616.96197509766</ele>
        <time>2010-01-30T14:33:00Z</time>
      </trkpt>
      <trkpt lat="44.98003" lon="4.79592">
        <ele>616.95202636719</ele>
        <time>2010-01-30T14:33:05Z</time>
      </trkpt>
      <trkpt lat="44.97995" lon="4.796">
        <ele>619.18200683594</ele>
        <time>2010-01-30T14:33:09Z</time>
      </trkpt>
      <trkpt lat="44.97974" lon="4.79613">
        <ele>620.79400634766</ele>
        <time>2010-01-30T14:33:18Z</time>
      </trkpt>
      <trkpt lat="44.97964" lon="4.7962">
        <ele>621.67498779297</ele>
        <time>2010-01-30T14:33:23Z</time>
      </trkpt>
      <trkpt lat="44.97947" lon="4.79631">
        <ele>623.12799072266</ele>
        <time>2010-01-30T14:33:30Z</time>
      </trkpt>
      <trkpt lat="44.97937" lon="4.79647">
        <ele>624.57000732422</ele>
        <time>2010-01-30T14:33:36Z</time>
      </trkpt>
      <trkpt lat="44.97932" lon="4.79666">
        <ele>625.4169921875</ele>
        <time>2010-01-30T14:33:42Z</time>
      </trkpt>
      <trkpt lat="44.97924" lon="4.79677">
        <ele>625.24798583984</ele>
        <time>2010-01-30T14:33:48Z</time>
      </trkpt>
      <trkpt lat="44.97911" lon="4.7968">
        <ele>624.29302978516</ele>
        <time>2010-01-30T14:33:52Z</time>
      </trkpt>
      <trkpt lat="44.97899" lon="4.79684">
        <ele>624.09497070312</ele>
        <time>2010-01-30T14:33:55Z</time>
      </trkpt>
      <trkpt lat="44.97879" lon="4.79704">
        <ele>623.54901123047</ele>
        <time>2010-01-30T14:34:01Z</time>
      </trkpt>
      <trkpt lat="44.97855" lon="4.79725">
        <ele>623.30999755859</ele>
        <time>2010-01-30T14:34:09Z</time>
      </trkpt>
      <trkpt lat="44.97838" lon="4.79739">
        <ele>623.23498535156</ele>
        <time>2010-01-30T14:34:14Z</time>
      </trkpt>
      <trkpt lat="44.97812" lon="4.7976">
        <ele>622.57702636719</ele>
        <time>2010-01-30T14:34:21Z</time>
      </trkpt>
      <trkpt lat="44.97775" lon="4.7979">
        <ele>622.66101074219</ele>
        <time>2010-01-30T14:34:30Z</time>
      </trkpt>
      <trkpt lat="44.9775" lon="4.7981">
        <ele>622.59100341797</ele>
        <time>2010-01-30T14:34:37Z</time>
      </trkpt>
      <trkpt lat="44.97737" lon="4.7982">
        <ele>622.31402587891</ele>
        <time>2010-01-30T14:34:41Z</time>
      </trkpt>
      <trkpt lat="44.97698" lon="4.7985">
        <ele>621.66802978516</ele>
        <time>2010-01-30T14:34:51Z</time>
      </trkpt>
      <trkpt lat="44.9767" lon="4.79857">
        <ele>620.56402587891</ele>
        <time>2010-01-30T14:34:57Z</time>
      </trkpt>
      <trkpt lat="44.97657" lon="4.7986">
        <ele>620.12799072266</ele>
        <time>2010-01-30T14:35:00Z</time>
      </trkpt>
      <trkpt lat="44.9765" lon="4.79862">
        <ele>619.66998291016</ele>
        <time>2010-01-30T14:35:03Z</time>
      </trkpt>
      <trkpt lat="44.97648" lon="4.79862">
        <ele>619.37701416016</ele>
        <time>2010-01-30T14:35:07Z</time>
      </trkpt>
      <trkpt lat="44.97618" lon="4.79865">
        <ele>618.16101074219</ele>
        <time>2010-01-30T14:35:13Z</time>
      </trkpt>
      <trkpt lat="44.97601" lon="4.79867">
        <ele>616.60400390625</ele>
        <time>2010-01-30T14:35:20Z</time>
      </trkpt>
      <trkpt lat="44.97564" lon="4.79878">
        <ele>615.05700683594</ele>
        <time>2010-01-30T14:35:24Z</time>
      </trkpt>
      <trkpt lat="44.97519" lon="4.79882">
        <ele>612.22601318359</ele>
        <time>2010-01-30T14:35:31Z</time>
      </trkpt>
      <trkpt lat="44.97482" lon="4.79881">
        <ele>610.26397705078</ele>
        <time>2010-01-30T14:35:36Z</time>
      </trkpt>
      <trkpt lat="44.97449" lon="4.79882">
        <ele>607.95202636719</ele>
        <time>2010-01-30T14:35:40Z</time>
      </trkpt>
      <trkpt lat="44.97407" lon="4.79887">
        <ele>605.47802734375</ele>
        <time>2010-01-30T14:35:46Z</time>
      </trkpt>
      <trkpt lat="44.97364" lon="4.79891">
        <ele>603.09399414062</ele>
        <time>2010-01-30T14:35:53Z</time>
      </trkpt>
      <trkpt lat="44.97324" lon="4.79894">
        <ele>601.6669921875</ele>
        <time>2010-01-30T14:35:59Z</time>
      </trkpt>
      <trkpt lat="44.97298" lon="4.79896">
        <ele>599.75201416016</ele>
        <time>2010-01-30T14:36:03Z</time>
      </trkpt>
      <trkpt lat="44.97265" lon="4.79889">
        <ele>597.86102294922</ele>
        <time>2010-01-30T14:36:09Z</time>
      </trkpt>
      <trkpt lat="44.97242" lon="4.79884">
        <ele>596.73101806641</ele>
        <time>2010-01-30T14:36:13Z</time>
      </trkpt>
      <trkpt lat="44.97217" lon="4.79881">
        <ele>594.08599853516</ele>
        <time>2010-01-30T14:36:17Z</time>
      </trkpt>
      <trkpt lat="44.97211" lon="4.79884">
        <ele>593.99298095703</ele>
        <time>2010-01-30T14:36:18Z</time>
      </trkpt>
      <trkpt lat="44.97201" lon="4.79897">
        <ele>593.08801269531</ele>
        <time>2010-01-30T14:36:20Z</time>
      </trkpt>
      <trkpt lat="44.97191" lon="4.79911">
        <ele>591.86199951172</ele>
        <time>2010-01-30T14:36:22Z</time>
      </trkpt>
      <trkpt lat="44.97168" lon="4.7994">
        <ele>589.72802734375</ele>
        <time>2010-01-30T14:36:26Z</time>
      </trkpt>
      <trkpt lat="44.97159" lon="4.79942">
        <ele>589.66198730469</ele>
        <time>2010-01-30T14:36:27Z</time>
      </trkpt>
      <trkpt lat="44.9715" lon="4.79944">
        <ele>588.74200439453</ele>
        <time>2010-01-30T14:36:28Z</time>
      </trkpt>
      <trkpt lat="44.97131" lon="4.79948">
        <ele>587.86199951172</ele>
        <time>2010-01-30T14:36:30Z</time>
      </trkpt>
      <trkpt lat="44.97081" lon="4.79959">
        <ele>584.57098388672</ele>
        <time>2010-01-30T14:36:35Z</time>
      </trkpt>
      <trkpt lat="44.97007" lon="4.79979">
        <ele>580.80297851562</ele>
        <time>2010-01-30T14:36:42Z</time>
      </trkpt>
      <trkpt lat="44.96944" lon="4.80009">
        <ele>576.01000976562</ele>
        <time>2010-01-30T14:36:48Z</time>
      </trkpt>
      <trkpt lat="44.96915" lon="4.8003">
        <ele>574.05603027344</ele>
        <time>2010-01-30T14:36:51Z</time>
      </trkpt>
      <trkpt lat="44.96868" lon="4.80051">
        <ele>570.79302978516</ele>
        <time>2010-01-30T14:36:56Z</time>
      </trkpt>
      <trkpt lat="44.96848" lon="4.8005">
        <ele>570.07299804688</ele>
        <time>2010-01-30T14:36:58Z</time>
      </trkpt>
      <trkpt lat="44.96812" lon="4.80046">
        <ele>568.15301513672</ele>
        <time>2010-01-30T14:37:02Z</time>
      </trkpt>
      <trkpt lat="44.96806" lon="4.80045">
        <ele>567.86401367188</ele>
        <time>2010-01-30T14:37:03Z</time>
      </trkpt>
      <trkpt lat="44.968" lon="4.80044">
        <ele>567.625</ele>
        <time>2010-01-30T14:37:04Z</time>
      </trkpt>
      <trkpt lat="44.96784" lon="4.80048">
        <ele>566.35601806641</ele>
        <time>2010-01-30T14:37:08Z</time>
      </trkpt>
      <trkpt lat="44.96783" lon="4.80061">
        <ele>565.85198974609</ele>
        <time>2010-01-30T14:37:11Z</time>
      </trkpt>
      <trkpt lat="44.9679" lon="4.80072">
        <ele>565.69299316406</ele>
        <time>2010-01-30T14:37:13Z</time>
      </trkpt>
      <trkpt lat="44.96816" lon="4.80104">
        <ele>563.32202148438</ele>
        <time>2010-01-30T14:37:19Z</time>
      </trkpt>
      <trkpt lat="44.96844" lon="4.80142">
        <ele>560.00500488281</ele>
        <time>2010-01-30T14:37:24Z</time>
      </trkpt>
      <trkpt lat="44.96867" lon="4.8018">
        <ele>558.18402099609</ele>
        <time>2010-01-30T14:37:28Z</time>
      </trkpt>
      <trkpt lat="44.96893" lon="4.80223">
        <ele>555.07299804688</ele>
        <time>2010-01-30T14:37:33Z</time>
      </trkpt>
      <trkpt lat="44.96912" lon="4.80256">
        <ele>553.03698730469</ele>
        <time>2010-01-30T14:37:37Z</time>
      </trkpt>
      <trkpt lat="44.96916" lon="4.80264">
        <ele>552.66998291016</ele>
        <time>2010-01-30T14:37:38Z</time>
      </trkpt>
      <trkpt lat="44.96926" lon="4.80296">
        <ele>550.166015625</ele>
        <time>2010-01-30T14:37:42Z</time>
      </trkpt>
      <trkpt lat="44.96917" lon="4.80309">
        <ele>549.67498779297</ele>
        <time>2010-01-30T14:37:44Z</time>
      </trkpt>
      <trkpt lat="44.96907" lon="4.80318">
        <ele>548.76397705078</ele>
        <time>2010-01-30T14:37:46Z</time>
      </trkpt>
      <trkpt lat="44.96889" lon="4.80338">
        <ele>546.90002441406</ele>
        <time>2010-01-30T14:37:50Z</time>
      </trkpt>
      <trkpt lat="44.96885" lon="4.80346">
        <ele>546.62799072266</ele>
        <time>2010-01-30T14:37:51Z</time>
      </trkpt>
      <trkpt lat="44.96891" lon="4.80377">
        <ele>545.13299560547</ele>
        <time>2010-01-30T14:37:54Z</time>
      </trkpt>
      <trkpt lat="44.96895" lon="4.80388">
        <ele>544.49401855469</ele>
        <time>2010-01-30T14:37:55Z</time>
      </trkpt>
      <trkpt lat="44.96914" lon="4.80411">
        <ele>542.50598144531</ele>
        <time>2010-01-30T14:37:58Z</time>
      </trkpt>
      <trkpt lat="44.9693" lon="4.80455">
        <ele>540.54797363281</ele>
        <time>2010-01-30T14:38:02Z</time>
      </trkpt>
      <trkpt lat="44.9692" lon="4.80481">
        <ele>538.75402832031</ele>
        <time>2010-01-30T14:38:05Z</time>
      </trkpt>
      <trkpt lat="44.96916" lon="4.80516">
        <ele>537.93902587891</ele>
        <time>2010-01-30T14:38:08Z</time>
      </trkpt>
      <trkpt lat="44.96919" lon="4.80527">
        <ele>537.47198486328</ele>
        <time>2010-01-30T14:38:09Z</time>
      </trkpt>
      <trkpt lat="44.96925" lon="4.80548">
        <ele>536.09399414062</ele>
        <time>2010-01-30T14:38:11Z</time>
      </trkpt>
      <trkpt lat="44.96928" lon="4.8059">
        <ele>533.78399658203</ele>
        <time>2010-01-30T14:38:15Z</time>
      </trkpt>
      <trkpt lat="44.96913" lon="4.80618">
        <ele>532.16302490234</ele>
        <time>2010-01-30T14:38:18Z</time>
      </trkpt>
      <trkpt lat="44.9688" lon="4.80637">
        <ele>530.38702392578</ele>
        <time>2010-01-30T14:38:22Z</time>
      </trkpt>
      <trkpt lat="44.96862" lon="4.80645">
        <ele>529.51702880859</ele>
        <time>2010-01-30T14:38:24Z</time>
      </trkpt>
      <trkpt lat="44.96843" lon="4.80651">
        <ele>528.40399169922</ele>
        <time>2010-01-30T14:38:26Z</time>
      </trkpt>
      <trkpt lat="44.96804" lon="4.80643">
        <ele>526.05700683594</ele>
        <time>2010-01-30T14:38:30Z</time>
      </trkpt>
      <trkpt lat="44.96775" lon="4.80646">
        <ele>524.50799560547</ele>
        <time>2010-01-30T14:38:33Z</time>
      </trkpt>
      <trkpt lat="44.96767" lon="4.80652">
        <ele>524.34002685547</ele>
        <time>2010-01-30T14:38:34Z</time>
      </trkpt>
      <trkpt lat="44.96756" lon="4.80672">
        <ele>523.51898193359</ele>
        <time>2010-01-30T14:38:36Z</time>
      </trkpt>
      <trkpt lat="44.96756" lon="4.80699">
        <ele>521.91802978516</ele>
        <time>2010-01-30T14:38:38Z</time>
      </trkpt>
      <trkpt lat="44.96758" lon="4.80751">
        <ele>520.61602783203</ele>
        <time>2010-01-30T14:38:42Z</time>
      </trkpt>
      <trkpt lat="44.9677" lon="4.80791">
        <ele>520.11901855469</ele>
        <time>2010-01-30T14:38:46Z</time>
      </trkpt>
      <trkpt lat="44.96782" lon="4.80807">
        <ele>519.43103027344</ele>
        <time>2010-01-30T14:38:48Z</time>
      </trkpt>
      <trkpt lat="44.96814" lon="4.80852">
        <ele>517.96502685547</ele>
        <time>2010-01-30T14:38:54Z</time>
      </trkpt>
      <trkpt lat="44.96827" lon="4.80879">
        <ele>516.04699707031</ele>
        <time>2010-01-30T14:38:57Z</time>
      </trkpt>
      <trkpt lat="44.96828" lon="4.8089">
        <ele>515.79901123047</ele>
        <time>2010-01-30T14:38:58Z</time>
      </trkpt>
      <trkpt lat="44.9682" lon="4.80909">
        <ele>515.36798095703</ele>
        <time>2010-01-30T14:39:00Z</time>
      </trkpt>
      <trkpt lat="44.96813" lon="4.80914">
        <ele>515.16802978516</ele>
        <time>2010-01-30T14:39:01Z</time>
      </trkpt>
      <trkpt lat="44.968" lon="4.80924">
        <ele>514.66802978516</ele>
        <time>2010-01-30T14:39:03Z</time>
      </trkpt>
      <trkpt lat="44.96783" lon="4.80942">
        <ele>513.4580078125</ele>
        <time>2010-01-30T14:39:06Z</time>
      </trkpt>
      <trkpt lat="44.96784" lon="4.8097">
        <ele>512.75897216797</ele>
        <time>2010-01-30T14:39:09Z</time>
      </trkpt>
      <trkpt lat="44.96792" lon="4.80986">
        <ele>512.15100097656</ele>
        <time>2010-01-30T14:39:11Z</time>
      </trkpt>
      <trkpt lat="44.96833" lon="4.8104">
        <ele>508.77899169922</ele>
        <time>2010-01-30T14:39:18Z</time>
      </trkpt>
      <trkpt lat="44.96849" lon="4.81079">
        <ele>506.12799072266</ele>
        <time>2010-01-30T14:39:22Z</time>
      </trkpt>
      <trkpt lat="44.96845" lon="4.81088">
        <ele>505.84600830078</ele>
        <time>2010-01-30T14:39:23Z</time>
      </trkpt>
      <trkpt lat="44.96836" lon="4.81107">
        <ele>504.9049987793</ele>
        <time>2010-01-30T14:39:25Z</time>
      </trkpt>
      <trkpt lat="44.96803" lon="4.8114">
        <ele>502.14801025391</ele>
        <time>2010-01-30T14:39:30Z</time>
      </trkpt>
      <trkpt lat="44.96796" lon="4.81163">
        <ele>501.14498901367</ele>
        <time>2010-01-30T14:39:32Z</time>
      </trkpt>
      <trkpt lat="44.96797" lon="4.81175">
        <ele>500.73400878906</ele>
        <time>2010-01-30T14:39:33Z</time>
      </trkpt>
      <trkpt lat="44.96807" lon="4.81235">
        <ele>498.20001220703</ele>
        <time>2010-01-30T14:39:38Z</time>
      </trkpt>
      <trkpt lat="44.96798" lon="4.81257">
        <ele>497.02499389648</ele>
        <time>2010-01-30T14:39:40Z</time>
      </trkpt>
      <trkpt lat="44.9679" lon="4.81262">
        <ele>496.74099731445</ele>
        <time>2010-01-30T14:39:41Z</time>
      </trkpt>
      <trkpt lat="44.96765" lon="4.81279">
        <ele>494.54998779297</ele>
        <time>2010-01-30T14:39:44Z</time>
      </trkpt>
      <trkpt lat="44.96731" lon="4.81307">
        <ele>492.46499633789</ele>
        <time>2010-01-30T14:39:48Z</time>
      </trkpt>
      <trkpt lat="44.96711" lon="4.81337">
        <ele>490.85000610352</ele>
        <time>2010-01-30T14:39:51Z</time>
      </trkpt>
      <trkpt lat="44.96704" lon="4.81347">
        <ele>488.93301391602</ele>
        <time>2010-01-30T14:39:54Z</time>
      </trkpt>
      <trkpt lat="44.96647" lon="4.8139">
        <ele>486.96099853516</ele>
        <time>2010-01-30T14:39:58Z</time>
      </trkpt>
      <trkpt lat="44.96636" lon="4.8139">
        <ele>486.39199829102</ele>
        <time>2010-01-30T14:39:59Z</time>
      </trkpt>
      <trkpt lat="44.96631" lon="4.8139">
        <ele>484.51599121094</ele>
        <time>2010-01-30T14:40:01Z</time>
      </trkpt>
      <trkpt lat="44.96579" lon="4.81396">
        <ele>483.07299804688</ele>
        <time>2010-01-30T14:40:04Z</time>
      </trkpt>
      <trkpt lat="44.96532" lon="4.81412">
        <ele>480.46099853516</ele>
        <time>2010-01-30T14:40:08Z</time>
      </trkpt>
      <trkpt lat="44.96475" lon="4.81432">
        <ele>477.35299682617</ele>
        <time>2010-01-30T14:40:13Z</time>
      </trkpt>
      <trkpt lat="44.96428" lon="4.81451">
        <ele>473.81698608398</ele>
        <time>2010-01-30T14:40:17Z</time>
      </trkpt>
      <trkpt lat="44.96386" lon="4.81486">
        <ele>469.88400268555</ele>
        <time>2010-01-30T14:40:21Z</time>
      </trkpt>
      <trkpt lat="44.96356" lon="4.81519">
        <ele>468.04800415039</ele>
        <time>2010-01-30T14:40:24Z</time>
      </trkpt>
      <trkpt lat="44.96342" lon="4.81523">
        <ele>467.22100830078</ele>
        <time>2010-01-30T14:40:25Z</time>
      </trkpt>
      <trkpt lat="44.96317" lon="4.81523">
        <ele>465.52499389648</ele>
        <time>2010-01-30T14:40:27Z</time>
      </trkpt>
      <trkpt lat="44.96263" lon="4.81518">
        <ele>461.4580078125</ele>
        <time>2010-01-30T14:40:31Z</time>
      </trkpt>
      <trkpt lat="44.96207" lon="4.81504">
        <ele>457.07598876953</ele>
        <time>2010-01-30T14:40:35Z</time>
      </trkpt>
      <trkpt lat="44.96164" lon="4.81494">
        <ele>454.07598876953</ele>
        <time>2010-01-30T14:40:38Z</time>
      </trkpt>
      <trkpt lat="44.96122" lon="4.81485">
        <ele>451.21701049805</ele>
        <time>2010-01-30T14:40:41Z</time>
      </trkpt>
      <trkpt lat="44.96096" lon="4.81501">
        <ele>448.61199951172</ele>
        <time>2010-01-30T14:40:43Z</time>
      </trkpt>
      <trkpt lat="44.96061" lon="4.81539">
        <ele>444.81799316406</ele>
        <time>2010-01-30T14:40:46Z</time>
      </trkpt>
      <trkpt lat="44.96043" lon="4.81557">
        <ele>443.46200561523</ele>
        <time>2010-01-30T14:40:48Z</time>
      </trkpt>
      <trkpt lat="44.96024" lon="4.81566">
        <ele>442.29699707031</ele>
        <time>2010-01-30T14:40:49Z</time>
      </trkpt>
      <trkpt lat="44.95999" lon="4.81561">
        <ele>440.35101318359</ele>
        <time>2010-01-30T14:40:51Z</time>
      </trkpt>
      <trkpt lat="44.95934" lon="4.81538">
        <ele>434.86999511719</ele>
        <time>2010-01-30T14:40:56Z</time>
      </trkpt>
      <trkpt lat="44.95907" lon="4.81527">
        <ele>431.86999511719</ele>
        <time>2010-01-30T14:40:58Z</time>
      </trkpt>
      <trkpt lat="44.95876" lon="4.81497">
        <ele>428.6130065918</ele>
        <time>2010-01-30T14:41:01Z</time>
      </trkpt>
      <trkpt lat="44.95867" lon="4.81468">
        <ele>426.62100219727</ele>
        <time>2010-01-30T14:41:03Z</time>
      </trkpt>
      <trkpt lat="44.9587" lon="4.81426">
        <ele>424.50201416016</ele>
        <time>2010-01-30T14:41:05Z</time>
      </trkpt>
      <trkpt lat="44.95882" lon="4.81373">
        <ele>420.76501464844</ele>
        <time>2010-01-30T14:41:08Z</time>
      </trkpt>
      <trkpt lat="44.95885" lon="4.81336">
        <ele>418.65200805664</ele>
        <time>2010-01-30T14:41:11Z</time>
      </trkpt>
      <trkpt lat="44.95879" lon="4.8132">
        <ele>417.15600585938</ele>
        <time>2010-01-30T14:41:13Z</time>
      </trkpt>
      <trkpt lat="44.95862" lon="4.81313">
        <ele>415.64001464844</ele>
        <time>2010-01-30T14:41:15Z</time>
      </trkpt>
      <trkpt lat="44.9584" lon="4.81328">
        <ele>412.92599487305</ele>
        <time>2010-01-30T14:41:18Z</time>
      </trkpt>
      <trkpt lat="44.95823" lon="4.81356">
        <ele>412.20001220703</ele>
        <time>2010-01-30T14:41:21Z</time>
      </trkpt>
      <trkpt lat="44.958" lon="4.8139">
        <ele>408.72299194336</ele>
        <time>2010-01-30T14:41:27Z</time>
      </trkpt>
      <trkpt lat="44.95789" lon="4.81397">
        <ele>407.47799682617</ele>
        <time>2010-01-30T14:41:30Z</time>
      </trkpt>
      <trkpt lat="44.95776" lon="4.81406">
        <ele>406.30200195312</ele>
        <time>2010-01-30T14:41:33Z</time>
      </trkpt>
      <trkpt lat="44.9575" lon="4.81431">
        <ele>403.21200561523</ele>
        <time>2010-01-30T14:41:38Z</time>
      </trkpt>
      <trkpt lat="44.9574" lon="4.81448">
        <ele>402.80999755859</ele>
        <time>2010-01-30T14:41:40Z</time>
      </trkpt>
      <trkpt lat="44.95721" lon="4.81531">
        <ele>397.78799438477</ele>
        <time>2010-01-30T14:41:47Z</time>
      </trkpt>
      <trkpt lat="44.95716" lon="4.81569">
        <ele>394.70599365234</ele>
        <time>2010-01-30T14:41:50Z</time>
      </trkpt>
      <trkpt lat="44.95712" lon="4.81603">
        <ele>392.70700073242</ele>
        <time>2010-01-30T14:41:53Z</time>
      </trkpt>
      <trkpt lat="44.95699" lon="4.8162">
        <ele>390.9469909668</ele>
        <time>2010-01-30T14:41:55Z</time>
      </trkpt>
      <trkpt lat="44.95642" lon="4.81647">
        <ele>386.52899169922</ele>
        <time>2010-01-30T14:42:01Z</time>
      </trkpt>
      <trkpt lat="44.95623" lon="4.81656">
        <ele>384.4289855957</ele>
        <time>2010-01-30T14:42:03Z</time>
      </trkpt>
      <trkpt lat="44.95606" lon="4.81671">
        <ele>383.4580078125</ele>
        <time>2010-01-30T14:42:05Z</time>
      </trkpt>
      <trkpt lat="44.95591" lon="4.81691">
        <ele>381.84600830078</ele>
        <time>2010-01-30T14:42:07Z</time>
      </trkpt>
      <trkpt lat="44.95578" lon="4.81729">
        <ele>379.67401123047</ele>
        <time>2010-01-30T14:42:10Z</time>
      </trkpt>
      <trkpt lat="44.95563" lon="4.81748">
        <ele>378.05700683594</ele>
        <time>2010-01-30T14:42:12Z</time>
      </trkpt>
      <trkpt lat="44.95533" lon="4.8176">
        <ele>375.44299316406</ele>
        <time>2010-01-30T14:42:15Z</time>
      </trkpt>
      <trkpt lat="44.95501" lon="4.81769">
        <ele>372.08801269531</ele>
        <time>2010-01-30T14:42:19Z</time>
      </trkpt>
      <trkpt lat="44.95497" lon="4.8178">
        <ele>371.28900146484</ele>
        <time>2010-01-30T14:42:20Z</time>
      </trkpt>
      <trkpt lat="44.95469" lon="4.81839">
        <ele>367.7919921875</ele>
        <time>2010-01-30T14:42:25Z</time>
      </trkpt>
      <trkpt lat="44.95434" lon="4.81875">
        <ele>363.09600830078</ele>
        <time>2010-01-30T14:42:29Z</time>
      </trkpt>
      <trkpt lat="44.95415" lon="4.81893">
        <ele>361.6780090332</ele>
        <time>2010-01-30T14:42:31Z</time>
      </trkpt>
      <trkpt lat="44.95391" lon="4.81929">
        <ele>359.01998901367</ele>
        <time>2010-01-30T14:42:34Z</time>
      </trkpt>
      <trkpt lat="44.95358" lon="4.81971">
        <ele>355.39199829102</ele>
        <time>2010-01-30T14:42:38Z</time>
      </trkpt>
      <trkpt lat="44.95339" lon="4.81975">
        <ele>353.54098510742</ele>
        <time>2010-01-30T14:42:40Z</time>
      </trkpt>
      <trkpt lat="44.95319" lon="4.81963">
        <ele>351.07998657227</ele>
        <time>2010-01-30T14:42:42Z</time>
      </trkpt>
      <trkpt lat="44.95286" lon="4.81943">
        <ele>348.78500366211</ele>
        <time>2010-01-30T14:42:45Z</time>
      </trkpt>
      <trkpt lat="44.95242" lon="4.81916">
        <ele>345.61700439453</ele>
        <time>2010-01-30T14:42:49Z</time>
      </trkpt>
      <trkpt lat="44.95207" lon="4.81901">
        <ele>343.41598510742</ele>
        <time>2010-01-30T14:42:52Z</time>
      </trkpt>
      <trkpt lat="44.95184" lon="4.81891">
        <ele>342.16000366211</ele>
        <time>2010-01-30T14:42:54Z</time>
      </trkpt>
      <trkpt lat="44.95166" lon="4.81884">
        <ele>341.39498901367</ele>
        <time>2010-01-30T14:42:56Z</time>
      </trkpt>
      <trkpt lat="44.95149" lon="4.81887">
        <ele>340.65701293945</ele>
        <time>2010-01-30T14:42:58Z</time>
      </trkpt>
      <trkpt lat="44.9514" lon="4.819">
        <ele>339.87100219727</ele>
        <time>2010-01-30T14:43:00Z</time>
      </trkpt>
      <trkpt lat="44.9514" lon="4.81919">
        <ele>340.08999633789</ele>
        <time>2010-01-30T14:43:02Z</time>
      </trkpt>
      <trkpt lat="44.95148" lon="4.81938">
        <ele>338.67498779297</ele>
        <time>2010-01-30T14:43:04Z</time>
      </trkpt>
      <trkpt lat="44.95155" lon="4.81958">
        <ele>337.89700317383</ele>
        <time>2010-01-30T14:43:06Z</time>
      </trkpt>
      <trkpt lat="44.9516" lon="4.81968">
        <ele>336.75299072266</ele>
        <time>2010-01-30T14:43:07Z</time>
      </trkpt>
      <trkpt lat="44.95171" lon="4.82018">
        <ele>333.40200805664</ele>
        <time>2010-01-30T14:43:11Z</time>
      </trkpt>
      <trkpt lat="44.95182" lon="4.82055">
        <ele>330.85101318359</ele>
        <time>2010-01-30T14:43:14Z</time>
      </trkpt>
      <trkpt lat="44.95196" lon="4.82092">
        <ele>328.1549987793</ele>
        <time>2010-01-30T14:43:17Z</time>
      </trkpt>
      <trkpt lat="44.95192" lon="4.82131">
        <ele>324.98098754883</ele>
        <time>2010-01-30T14:43:20Z</time>
      </trkpt>
      <trkpt lat="44.95189" lon="4.82146">
        <ele>324.01998901367</ele>
        <time>2010-01-30T14:43:21Z</time>
      </trkpt>
      <trkpt lat="44.95184" lon="4.82196">
        <ele>321.04598999023</ele>
        <time>2010-01-30T14:43:25Z</time>
      </trkpt>
      <trkpt lat="44.95177" lon="4.82232">
        <ele>319.43099975586</ele>
        <time>2010-01-30T14:43:28Z</time>
      </trkpt>
      <trkpt lat="44.95189" lon="4.82236">
        <ele>318.72601318359</ele>
        <time>2010-01-30T14:43:30Z</time>
      </trkpt>
      <trkpt lat="44.95215" lon="4.82261">
        <ele>315.27200317383</ele>
        <time>2010-01-30T14:43:34Z</time>
      </trkpt>
      <trkpt lat="44.95215" lon="4.8227">
        <ele>315.06900024414</ele>
        <time>2010-01-30T14:43:35Z</time>
      </trkpt>
      <trkpt lat="44.95221" lon="4.82319">
        <ele>313.60400390625</ele>
        <time>2010-01-30T14:43:39Z</time>
      </trkpt>
      <trkpt lat="44.95222" lon="4.8235">
        <ele>311.31799316406</ele>
        <time>2010-01-30T14:43:42Z</time>
      </trkpt>
      <trkpt lat="44.95206" lon="4.82351">
        <ele>310.29998779297</ele>
        <time>2010-01-30T14:43:44Z</time>
      </trkpt>
      <trkpt lat="44.95198" lon="4.82349">
        <ele>309.44100952148</ele>
        <time>2010-01-30T14:43:45Z</time>
      </trkpt>
      <trkpt lat="44.95174" lon="4.82346">
        <ele>307.85501098633</ele>
        <time>2010-01-30T14:43:48Z</time>
      </trkpt>
      <trkpt lat="44.95159" lon="4.82351">
        <ele>306.53698730469</ele>
        <time>2010-01-30T14:43:50Z</time>
      </trkpt>
      <trkpt lat="44.95148" lon="4.82372">
        <ele>304.9049987793</ele>
        <time>2010-01-30T14:43:52Z</time>
      </trkpt>
      <trkpt lat="44.95152" lon="4.824">
        <ele>304.03698730469</ele>
        <time>2010-01-30T14:43:54Z</time>
      </trkpt>
      <trkpt lat="44.95158" lon="4.82427">
        <ele>302.75698852539</ele>
        <time>2010-01-30T14:43:56Z</time>
      </trkpt>
      <trkpt lat="44.95169" lon="4.825">
        <ele>298.40600585938</ele>
        <time>2010-01-30T14:44:01Z</time>
      </trkpt>
      <trkpt lat="44.95172" lon="4.82544">
        <ele>295.72900390625</ele>
        <time>2010-01-30T14:44:04Z</time>
      </trkpt>
      <trkpt lat="44.95158" lon="4.82557">
        <ele>293.80099487305</ele>
        <time>2010-01-30T14:44:06Z</time>
      </trkpt>
      <trkpt lat="44.95149" lon="4.82564">
        <ele>293.63299560547</ele>
        <time>2010-01-30T14:44:07Z</time>
      </trkpt>
      <trkpt lat="44.95135" lon="4.82581">
        <ele>291.89300537109</ele>
        <time>2010-01-30T14:44:09Z</time>
      </trkpt>
      <trkpt lat="44.95122" lon="4.82605">
        <ele>290.06600952148</ele>
        <time>2010-01-30T14:44:11Z</time>
      </trkpt>
      <trkpt lat="44.951" lon="4.82659">
        <ele>286.92999267578</ele>
        <time>2010-01-30T14:44:15Z</time>
      </trkpt>
      <trkpt lat="44.9508" lon="4.82671">
        <ele>285.17599487305</ele>
        <time>2010-01-30T14:44:17Z</time>
      </trkpt>
      <trkpt lat="44.95043" lon="4.82677">
        <ele>281.38598632812</ele>
        <time>2010-01-30T14:44:20Z</time>
      </trkpt>
      <trkpt lat="44.9502" lon="4.82671">
        <ele>279.58999633789</ele>
        <time>2010-01-30T14:44:22Z</time>
      </trkpt>
      <trkpt lat="44.9501" lon="4.82664">
        <ele>278.67098999023</ele>
        <time>2010-01-30T14:44:23Z</time>
      </trkpt>
      <trkpt lat="44.94976" lon="4.82618">
        <ele>275.23199462891</ele>
        <time>2010-01-30T14:44:27Z</time>
      </trkpt>
      <trkpt lat="44.94965" lon="4.82619">
        <ele>274.09399414062</ele>
        <time>2010-01-30T14:44:28Z</time>
      </trkpt>
      <trkpt lat="44.94903" lon="4.82625">
        <ele>268.7799987793</ele>
        <time>2010-01-30T14:44:33Z</time>
      </trkpt>
      <trkpt lat="44.94891" lon="4.82624">
        <ele>267.36199951172</ele>
        <time>2010-01-30T14:44:34Z</time>
      </trkpt>
      <trkpt lat="44.94839" lon="4.8262">
        <ele>263.05700683594</ele>
        <time>2010-01-30T14:44:38Z</time>
      </trkpt>
      <trkpt lat="44.948" lon="4.82621">
        <ele>260.31201171875</ele>
        <time>2010-01-30T14:44:41Z</time>
      </trkpt>
      <trkpt lat="44.94788" lon="4.82628">
        <ele>258.80599975586</ele>
        <time>2010-01-30T14:44:42Z</time>
      </trkpt>
      <trkpt lat="44.94762" lon="4.82642">
        <ele>256.36401367188</ele>
        <time>2010-01-30T14:44:44Z</time>
      </trkpt>
      <trkpt lat="44.94729" lon="4.82664">
        <ele>253.34199523926</ele>
        <time>2010-01-30T14:44:47Z</time>
      </trkpt>
      <trkpt lat="44.94721" lon="4.8269">
        <ele>251.71600341797</ele>
        <time>2010-01-30T14:44:49Z</time>
      </trkpt>
      <trkpt lat="44.94717" lon="4.82703">
        <ele>249.56500244141</ele>
        <time>2010-01-30T14:44:51Z</time>
      </trkpt>
      <trkpt lat="44.94739" lon="4.82726">
        <ele>246.94000244141</ele>
        <time>2010-01-30T14:44:53Z</time>
      </trkpt>
      <trkpt lat="44.94799" lon="4.8276">
        <ele>243.40400695801</ele>
        <time>2010-01-30T14:44:59Z</time>
      </trkpt>
      <trkpt lat="44.9482" lon="4.82772">
        <ele>238.42199707031</ele>
        <time>2010-01-30T14:45:04Z</time>
      </trkpt>
      <trkpt lat="44.94886" lon="4.82808">
        <ele>234.60699462891</ele>
        <time>2010-01-30T14:45:07Z</time>
      </trkpt>
      <trkpt lat="44.94923" lon="4.82846">
        <ele>232.38000488281</ele>
        <time>2010-01-30T14:45:11Z</time>
      </trkpt>
      <trkpt lat="44.94939" lon="4.8287">
        <ele>231.58799743652</ele>
        <time>2010-01-30T14:45:13Z</time>
      </trkpt>
      <trkpt lat="44.94953" lon="4.82903">
        <ele>229.09100341797</ele>
        <time>2010-01-30T14:45:16Z</time>
      </trkpt>
      <trkpt lat="44.94949" lon="4.82918">
        <ele>227.51699829102</ele>
        <time>2010-01-30T14:45:18Z</time>
      </trkpt>
      <trkpt lat="44.94925" lon="4.82935">
        <ele>225.08799743652</ele>
        <time>2010-01-30T14:45:21Z</time>
      </trkpt>
      <trkpt lat="44.94896" lon="4.82936">
        <ele>222.98599243164</ele>
        <time>2010-01-30T14:45:24Z</time>
      </trkpt>
      <trkpt lat="44.94878" lon="4.8292">
        <ele>220.81700134277</ele>
        <time>2010-01-30T14:45:26Z</time>
      </trkpt>
      <trkpt lat="44.94873" lon="4.82908">
        <ele>220.59800720215</ele>
        <time>2010-01-30T14:45:27Z</time>
      </trkpt>
      <trkpt lat="44.9486" lon="4.82875">
        <ele>218.52799987793</ele>
        <time>2010-01-30T14:45:30Z</time>
      </trkpt>
      <trkpt lat="44.94844" lon="4.82867">
        <ele>217.12100219727</ele>
        <time>2010-01-30T14:45:32Z</time>
      </trkpt>
      <trkpt lat="44.94826" lon="4.82876">
        <ele>215.07099914551</ele>
        <time>2010-01-30T14:45:34Z</time>
      </trkpt>
      <trkpt lat="44.94798" lon="4.82902">
        <ele>213.03199768066</ele>
        <time>2010-01-30T14:45:37Z</time>
      </trkpt>
      <trkpt lat="44.94763" lon="4.82918">
        <ele>209.11099243164</ele>
        <time>2010-01-30T14:45:40Z</time>
      </trkpt>
      <trkpt lat="44.9472" lon="4.82949">
        <ele>205.25799560547</ele>
        <time>2010-01-30T14:45:44Z</time>
      </trkpt>
      <trkpt lat="44.94709" lon="4.82951">
        <ele>204.28799438477</ele>
        <time>2010-01-30T14:45:45Z</time>
      </trkpt>
      <trkpt lat="44.94673" lon="4.82959">
        <ele>201.42300415039</ele>
        <time>2010-01-30T14:45:48Z</time>
      </trkpt>
      <trkpt lat="44.94645" lon="4.82975">
        <ele>199.63000488281</ele>
        <time>2010-01-30T14:45:51Z</time>
      </trkpt>
      <trkpt lat="44.94639" lon="4.82999">
        <ele>198.24600219727</ele>
        <time>2010-01-30T14:45:53Z</time>
      </trkpt>
      <trkpt lat="44.94645" lon="4.83049">
        <ele>194.84599304199</ele>
        <time>2010-01-30T14:45:57Z</time>
      </trkpt>
      <trkpt lat="44.9465" lon="4.83062">
        <ele>194.22200012207</ele>
        <time>2010-01-30T14:45:58Z</time>
      </trkpt>
      <trkpt lat="44.94691" lon="4.83169">
        <ele>187.41499328613</ele>
        <time>2010-01-30T14:46:06Z</time>
      </trkpt>
      <trkpt lat="44.94709" lon="4.83227">
        <ele>183.52799987793</ele>
        <time>2010-01-30T14:46:10Z</time>
      </trkpt>
      <trkpt lat="44.94708" lon="4.83244">
        <ele>182.24800109863</ele>
        <time>2010-01-30T14:46:11Z</time>
      </trkpt>
      <trkpt lat="44.94703" lon="4.83276">
        <ele>180.24200439453</ele>
        <time>2010-01-30T14:46:13Z</time>
      </trkpt>
      <trkpt lat="44.947" lon="4.83343">
        <ele>178.89100646973</ele>
        <time>2010-01-30T14:46:17Z</time>
      </trkpt>
      <trkpt lat="44.94706" lon="4.83357">
        <ele>178.79899597168</ele>
        <time>2010-01-30T14:46:18Z</time>
      </trkpt>
      <trkpt lat="44.94726" lon="4.83403">
        <ele>177.93099975586</ele>
        <time>2010-01-30T14:46:23Z</time>
      </trkpt>
      <trkpt lat="44.94728" lon="4.83433">
        <ele>177.67399597168</ele>
        <time>2010-01-30T14:46:24Z</time>
      </trkpt>
      <trkpt lat="44.94721" lon="4.83522">
        <ele>174.14599609375</ele>
        <time>2010-01-30T14:46:31Z</time>
      </trkpt>
      <trkpt lat="44.9472" lon="4.83536">
        <ele>174.0059967041</ele>
        <time>2010-01-30T14:46:32Z</time>
      </trkpt>
      <trkpt lat="44.94718" lon="4.83577">
        <ele>172.19400024414</ele>
        <time>2010-01-30T14:46:35Z</time>
      </trkpt>
      <trkpt lat="44.94726" lon="4.83647">
        <ele>168.10299682617</ele>
        <time>2010-01-30T14:46:40Z</time>
      </trkpt>
      <trkpt lat="44.94735" lon="4.8371">
        <ele>165.85099792481</ele>
        <time>2010-01-30T14:46:44Z</time>
      </trkpt>
      <trkpt lat="44.94742" lon="4.83752">
        <ele>164.25900268555</ele>
        <time>2010-01-30T14:46:47Z</time>
      </trkpt>
      <trkpt lat="44.94746" lon="4.83778">
        <ele>164.54200744629</ele>
        <time>2010-01-30T14:46:49Z</time>
      </trkpt>
      <trkpt lat="44.9473" lon="4.83838">
        <ele>164.27099609375</ele>
        <time>2010-01-30T14:46:54Z</time>
      </trkpt>
      <trkpt lat="44.94727" lon="4.83849">
        <ele>164.17700195312</ele>
        <time>2010-01-30T14:46:55Z</time>
      </trkpt>
      <trkpt lat="44.94722" lon="4.83901">
        <ele>163.20899963379</ele>
        <time>2010-01-30T14:47:00Z</time>
      </trkpt>
      <trkpt lat="44.94722" lon="4.83944">
        <ele>162.45599365234</ele>
        <time>2010-01-30T14:47:07Z</time>
      </trkpt>
      <trkpt lat="44.94722" lon="4.83991">
        <ele>162.02099609375</ele>
        <time>2010-01-30T14:47:09Z</time>
      </trkpt>
      <trkpt lat="44.94722" lon="4.83999">
        <ele>161.58399963379</ele>
        <time>2010-01-30T14:47:12Z</time>
      </trkpt>
      <trkpt lat="44.94711" lon="4.84052">
        <ele>160.03300476074</ele>
        <time>2010-01-30T14:47:16Z</time>
      </trkpt>
      <trkpt lat="44.94698" lon="4.84058">
        <ele>159.07200622559</ele>
        <time>2010-01-30T14:47:18Z</time>
      </trkpt>
      <trkpt lat="44.94683" lon="4.84059">
        <ele>158.50100708008</ele>
        <time>2010-01-30T14:47:20Z</time>
      </trkpt>
      <trkpt lat="44.94672" lon="4.84044">
        <ele>156.54800415039</ele>
        <time>2010-01-30T14:47:22Z</time>
      </trkpt>
      <trkpt lat="44.94658" lon="4.83978">
        <ele>153.15800476074</ele>
        <time>2010-01-30T14:47:27Z</time>
      </trkpt>
      <trkpt lat="44.9464" lon="4.83873">
        <ele>148.52400207519</ele>
        <time>2010-01-30T14:47:34Z</time>
      </trkpt>
      <trkpt lat="44.94629" lon="4.83812">
        <ele>145.52900695801</ele>
        <time>2010-01-30T14:47:38Z</time>
      </trkpt>
      <trkpt lat="44.94608" lon="4.83753">
        <ele>142.26100158691</ele>
        <time>2010-01-30T14:47:42Z</time>
      </trkpt>
      <trkpt lat="44.94569" lon="4.8368">
        <ele>138.31900024414</ele>
        <time>2010-01-30T14:47:47Z</time>
      </trkpt>
      <trkpt lat="44.94545" lon="4.83656">
        <ele>136.04200744629</ele>
        <time>2010-01-30T14:47:50Z</time>
      </trkpt>
      <trkpt lat="44.94526" lon="4.8366">
        <ele>134.69400024414</ele>
        <time>2010-01-30T14:47:52Z</time>
      </trkpt>
      <trkpt lat="44.94456" lon="4.83702">
        <ele>128.83599853516</ele>
        <time>2010-01-30T14:47:59Z</time>
      </trkpt>
      <trkpt lat="44.94434" lon="4.83715">
        <ele>126.66100311279</ele>
        <time>2010-01-30T14:48:01Z</time>
      </trkpt>
      <trkpt lat="44.94405" lon="4.83744">
        <ele>125.09300231934</ele>
        <time>2010-01-30T14:48:05Z</time>
      </trkpt>
      <trkpt lat="44.94404" lon="4.83772">
        <ele>124.13200378418</ele>
        <time>2010-01-30T14:48:08Z</time>
      </trkpt>
      <trkpt lat="44.94404" lon="4.83772">
        <ele>125.43099975586</ele>
        <time>2010-01-30T14:48:11Z</time>
      </trkpt>
      <trkpt lat="44.94412" lon="4.83825">
        <ele>124.7559967041</ele>
        <time>2010-01-30T14:48:13Z</time>
      </trkpt>
      <trkpt lat="44.94418" lon="4.83862">
        <ele>123.72899627685</ele>
        <time>2010-01-30T14:48:19Z</time>
      </trkpt>
      <trkpt lat="44.94423" lon="4.83887">
        <ele>124.05699920654</ele>
        <time>2010-01-30T14:48:24Z</time>
      </trkpt>
      <trkpt lat="44.94427" lon="4.83899">
        <ele>124.40599822998</ele>
        <time>2010-01-30T14:48:27Z</time>
      </trkpt>
      <trkpt lat="44.9443" lon="4.83919">
        <ele>123.33699798584</ele>
        <time>2010-01-30T14:48:32Z</time>
      </trkpt>
      <trkpt lat="44.9443" lon="4.83924">
        <ele>122.9700012207</ele>
        <time>2010-01-30T14:48:34Z</time>
      </trkpt>
      <trkpt lat="44.94431" lon="4.83927">
        <ele>123.01599884033</ele>
        <time>2010-01-30T14:48:35Z</time>
      </trkpt>
      <trkpt lat="44.94424" lon="4.83946">
        <ele>122.80699920654</ele>
        <time>2010-01-30T14:48:40Z</time>
      </trkpt>
      <trkpt lat="44.94433" lon="4.83925">
        <ele>122.69300079346</ele>
        <time>2010-01-30T14:48:44Z</time>
      </trkpt>
      <trkpt lat="44.94435" lon="4.83926">
        <ele>123.53199768066</ele>
        <time>2010-01-30T14:50:52Z</time>
      </trkpt>
      <trkpt lat="44.94432" lon="4.83953">
        <ele>123.577003479</ele>
        <time>2010-01-30T14:50:55Z</time>
      </trkpt>
      <trkpt lat="44.94431" lon="4.83973">
        <ele>123.76699829102</ele>
        <time>2010-01-30T14:51:02Z</time>
      </trkpt>
      <trkpt lat="44.94429" lon="4.83989">
        <ele>123.82299804688</ele>
        <time>2010-01-30T14:51:06Z</time>
      </trkpt>
      <trkpt lat="44.94428" lon="4.83996">
        <ele>124.00399780273</ele>
        <time>2010-01-30T14:51:08Z</time>
      </trkpt>
      <trkpt lat="44.94427" lon="4.84">
        <ele>123.76399993897</ele>
        <time>2010-01-30T14:51:09Z</time>
      </trkpt>
      <trkpt lat="44.94421" lon="4.8402">
        <ele>124.06300354004</ele>
        <time>2010-01-30T14:51:14Z</time>
      </trkpt>
      <trkpt lat="44.94421" lon="4.84029">
        <ele>123.41600036621</ele>
        <time>2010-01-30T14:51:17Z</time>
      </trkpt>
      <trkpt lat="44.94407" lon="4.84051">
        <ele>122.97200012207</ele>
        <time>2010-01-30T14:51:22Z</time>
      </trkpt>
      <trkpt lat="44.94396" lon="4.84069">
        <ele>122.77700042725</ele>
        <time>2010-01-30T14:51:27Z</time>
      </trkpt>
      <trkpt lat="44.94391" lon="4.84076">
        <ele>123.07099914551</ele>
        <time>2010-01-30T14:51:31Z</time>
      </trkpt>
      <trkpt lat="44.94368" lon="4.84118">
        <ele>123.26699829102</ele>
        <time>2010-01-30T14:51:38Z</time>
      </trkpt>
      <trkpt lat="44.94352" lon="4.84168">
        <ele>123.44300079346</ele>
        <time>2010-01-30T14:51:45Z</time>
      </trkpt>
      <trkpt lat="44.94348" lon="4.84191">
        <ele>123.44599914551</ele>
        <time>2010-01-30T14:51:48Z</time>
      </trkpt>
      <trkpt lat="44.94347" lon="4.84199">
        <ele>123.55599975586</ele>
        <time>2010-01-30T14:51:49Z</time>
      </trkpt>
      <trkpt lat="44.94344" lon="4.84243">
        <ele>122.61499786377</ele>
        <time>2010-01-30T14:51:54Z</time>
      </trkpt>
      <trkpt lat="44.94348" lon="4.84278">
        <ele>122.79900360107</ele>
        <time>2010-01-30T14:51:58Z</time>
      </trkpt>
      <trkpt lat="44.94365" lon="4.84331">
        <ele>122.78299713135</ele>
        <time>2010-01-30T14:52:05Z</time>
      </trkpt>
      <trkpt lat="44.94389" lon="4.84381">
        <ele>122.19499969482</ele>
        <time>2010-01-30T14:52:12Z</time>
      </trkpt>
      <trkpt lat="44.94416" lon="4.84419">
        <ele>121.02799987793</ele>
        <time>2010-01-30T14:52:19Z</time>
      </trkpt>
      <trkpt lat="44.94417" lon="4.8442">
        <ele>121.84200286865</ele>
        <time>2010-01-30T14:52:21Z</time>
      </trkpt>
      <trkpt lat="44.94459" lon="4.84481">
        <ele>121.07099914551</ele>
        <time>2010-01-30T14:52:29Z</time>
      </trkpt>
      <trkpt lat="44.94492" lon="4.8453">
        <ele>120.78099822998</ele>
        <time>2010-01-30T14:52:37Z</time>
      </trkpt>
      <trkpt lat="44.94526" lon="4.84587">
        <ele>119.62999725342</ele>
        <time>2010-01-30T14:52:46Z</time>
      </trkpt>
      <trkpt lat="44.94537" lon="4.84613">
        <ele>120.67800140381</ele>
        <time>2010-01-30T14:52:50Z</time>
      </trkpt>
      <trkpt lat="44.94556" lon="4.84652">
        <ele>121.10500335693</ele>
        <time>2010-01-30T14:52:57Z</time>
      </trkpt>
      <trkpt lat="44.94565" lon="4.84669">
        <ele>120.80500030518</ele>
        <time>2010-01-30T14:53:02Z</time>
      </trkpt>
      <trkpt lat="44.94572" lon="4.84696">
        <ele>121.58100128174</ele>
        <time>2010-01-30T14:53:07Z</time>
      </trkpt>
      <trkpt lat="44.94572" lon="4.847">
        <ele>121.56300354004</ele>
        <time>2010-01-30T14:53:11Z</time>
      </trkpt>
      <trkpt lat="44.94573" lon="4.84702">
        <ele>121.72799682617</ele>
        <time>2010-01-30T14:53:14Z</time>
      </trkpt>
      <trkpt lat="44.94574" lon="4.84707">
        <ele>121.952003479</ele>
        <time>2010-01-30T14:53:18Z</time>
      </trkpt>
      <trkpt lat="44.94574" lon="4.84707">
        <ele>121.6549987793</ele>
        <time>2010-01-30T14:53:20Z</time>
      </trkpt>
      <trkpt lat="44.94576" lon="4.84715">
        <ele>122.2080001831</ele>
        <time>2010-01-30T14:53:25Z</time>
      </trkpt>
      <trkpt lat="44.94566" lon="4.84729">
        <ele>121.95300292969</ele>
        <time>2010-01-30T14:53:27Z</time>
      </trkpt>
      <trkpt lat="44.94555" lon="4.84747">
        <ele>122.05799865723</ele>
        <time>2010-01-30T14:53:31Z</time>
      </trkpt>
      <trkpt lat="44.94558" lon="4.84767">
        <ele>120.9700012207</ele>
        <time>2010-01-30T14:53:34Z</time>
      </trkpt>
      <trkpt lat="44.94566" lon="4.84775">
        <ele>120.81300354004</ele>
        <time>2010-01-30T14:53:38Z</time>
      </trkpt>
      <trkpt lat="44.94566" lon="4.84775">
        <ele>120.44300079346</ele>
        <time>2010-01-30T14:53:39Z</time>
      </trkpt>
      <trkpt lat="44.94571" lon="4.8478">
        <ele>120.78299713135</ele>
        <time>2010-01-30T14:54:01Z</time>
      </trkpt>
      <trkpt lat="44.94584" lon="4.84771">
        <ele>120.75399780273</ele>
        <time>2010-01-30T14:54:05Z</time>
      </trkpt>
      <trkpt lat="44.94601" lon="4.84746">
        <ele>121.01899719238</ele>
        <time>2010-01-30T14:54:11Z</time>
      </trkpt>
      <trkpt lat="44.94601" lon="4.84746">
        <ele>121.21299743652</ele>
        <time>2010-01-30T14:54:13Z</time>
      </trkpt>
      <trkpt lat="44.94603" lon="4.8469">
        <ele>121.83499908447</ele>
        <time>2010-01-30T14:54:19Z</time>
      </trkpt>
      <trkpt lat="44.94608" lon="4.84674">
        <ele>122.0419998169</ele>
        <time>2010-01-30T14:54:21Z</time>
      </trkpt>
      <trkpt lat="44.94622" lon="4.84653">
        <ele>122.38300323486</ele>
        <time>2010-01-30T14:54:25Z</time>
      </trkpt>
      <trkpt lat="44.94653" lon="4.84608">
        <ele>122.03399658203</ele>
        <time>2010-01-30T14:54:34Z</time>
      </trkpt>
      <trkpt lat="44.94674" lon="4.8458">
        <ele>122.66799926758</ele>
        <time>2010-01-30T14:54:39Z</time>
      </trkpt>
      <trkpt lat="44.94695" lon="4.84552">
        <ele>122.35500335693</ele>
        <time>2010-01-30T14:54:44Z</time>
      </trkpt>
      <trkpt lat="44.94731" lon="4.84503">
        <ele>122.39700317383</ele>
        <time>2010-01-30T14:54:52Z</time>
      </trkpt>
      <trkpt lat="44.94741" lon="4.8449">
        <ele>122.14700317383</ele>
        <time>2010-01-30T14:54:54Z</time>
      </trkpt>
      <trkpt lat="44.94769" lon="4.84453">
        <ele>122.32599639893</ele>
        <time>2010-01-30T14:55:00Z</time>
      </trkpt>
      <trkpt lat="44.94813" lon="4.84393">
        <ele>123.3809967041</ele>
        <time>2010-01-30T14:55:10Z</time>
      </trkpt>
      <trkpt lat="44.94834" lon="4.84364">
        <ele>124.35500335693</ele>
        <time>2010-01-30T14:55:15Z</time>
      </trkpt>
      <trkpt lat="44.94863" lon="4.84349">
        <ele>125.5179977417</ele>
        <time>2010-01-30T14:55:21Z</time>
      </trkpt>
      <trkpt lat="44.94881" lon="4.84352">
        <ele>126.24700164795</ele>
        <time>2010-01-30T14:55:26Z</time>
      </trkpt>
      <trkpt lat="44.94887" lon="4.84355">
        <ele>126.172996521</ele>
        <time>2010-01-30T14:55:28Z</time>
      </trkpt>
      <trkpt lat="44.9491" lon="4.84364">
        <ele>126.42500305176</ele>
        <time>2010-01-30T14:55:35Z</time>
      </trkpt>
      <trkpt lat="44.94956" lon="4.84377">
        <ele>126.15200042725</ele>
        <time>2010-01-30T14:55:42Z</time>
      </trkpt>
      <trkpt lat="44.95016" lon="4.84397">
        <ele>124.90399932861</ele>
        <time>2010-01-30T14:55:51Z</time>
      </trkpt>
      <trkpt lat="44.9506" lon="4.84418">
        <ele>123.96199798584</ele>
        <time>2010-01-30T14:55:58Z</time>
      </trkpt>
      <trkpt lat="44.95106" lon="4.84439">
        <ele>125.07800292969</ele>
        <time>2010-01-30T14:56:05Z</time>
      </trkpt>
      <trkpt lat="44.95163" lon="4.84464">
        <ele>123.36599731445</ele>
        <time>2010-01-30T14:56:14Z</time>
      </trkpt>
      <trkpt lat="44.95186" lon="4.84474">
        <ele>122.19400024414</ele>
        <time>2010-01-30T14:56:18Z</time>
      </trkpt>
      <trkpt lat="44.95225" lon="4.84491">
        <ele>122.93099975586</ele>
        <time>2010-01-30T14:56:24Z</time>
      </trkpt>
      <trkpt lat="44.95244" lon="4.84499">
        <ele>121.99600219727</ele>
        <time>2010-01-30T14:56:27Z</time>
      </trkpt>
      <trkpt lat="44.9526" lon="4.84506">
        <ele>121.47100067139</ele>
        <time>2010-01-30T14:56:30Z</time>
      </trkpt>
      <trkpt lat="44.95286" lon="4.84517">
        <ele>121.58100128174</ele>
        <time>2010-01-30T14:56:36Z</time>
      </trkpt>
      <trkpt lat="44.95293" lon="4.8452">
        <ele>121.22200012207</ele>
        <time>2010-01-30T14:56:39Z</time>
      </trkpt>
      <trkpt lat="44.95293" lon="4.8452">
        <ele>121.18299865723</ele>
        <time>2010-01-30T14:56:40Z</time>
      </trkpt>
      <trkpt lat="44.95293" lon="4.8452">
        <ele>121.71399688721</ele>
        <time>2010-01-30T14:56:47Z</time>
      </trkpt>
      <trkpt lat="44.95295" lon="4.84521">
        <ele>121.42800140381</ele>
        <time>2010-01-30T14:57:57Z</time>
      </trkpt>
      <trkpt lat="44.95297" lon="4.84522">
        <ele>121.59799957275</ele>
        <time>2010-01-30T14:57:58Z</time>
      </trkpt>
      <trkpt lat="44.95303" lon="4.84524">
        <ele>121.63600158691</ele>
        <time>2010-01-30T14:58:01Z</time>
      </trkpt>
      <trkpt lat="44.95309" lon="4.84527">
        <ele>122.14099884033</ele>
        <time>2010-01-30T14:58:03Z</time>
      </trkpt>
      <trkpt lat="44.95331" lon="4.84536">
        <ele>122.34200286865</ele>
        <time>2010-01-30T14:58:10Z</time>
      </trkpt>
      <trkpt lat="44.95364" lon="4.84547">
        <ele>122.55100250244</ele>
        <time>2010-01-30T14:58:17Z</time>
      </trkpt>
      <trkpt lat="44.95395" lon="4.84559">
        <ele>122.29699707031</ele>
        <time>2010-01-30T14:58:23Z</time>
      </trkpt>
      <trkpt lat="44.95417" lon="4.84569">
        <ele>122.4940032959</ele>
        <time>2010-01-30T14:58:27Z</time>
      </trkpt>
      <trkpt lat="44.95446" lon="4.84581">
        <ele>122.75499725342</ele>
        <time>2010-01-30T14:58:32Z</time>
      </trkpt>
      <trkpt lat="44.95499" lon="4.84603">
        <ele>123.47799682617</ele>
        <time>2010-01-30T14:58:41Z</time>
      </trkpt>
      <trkpt lat="44.95535" lon="4.84618">
        <ele>122.85600280762</ele>
        <time>2010-01-30T14:58:47Z</time>
      </trkpt>
      <trkpt lat="44.95588" lon="4.84639">
        <ele>122.05799865723</ele>
        <time>2010-01-30T14:58:56Z</time>
      </trkpt>
      <trkpt lat="44.95663" lon="4.84666">
        <ele>122.36699676514</ele>
        <time>2010-01-30T14:59:07Z</time>
      </trkpt>
      <trkpt lat="44.95747" lon="4.84696">
        <ele>122.30100250244</ele>
        <time>2010-01-30T14:59:20Z</time>
      </trkpt>
      <trkpt lat="44.95816" lon="4.8472">
        <ele>121.5</ele>
        <time>2010-01-30T14:59:31Z</time>
      </trkpt>
      <trkpt lat="44.95871" lon="4.84744">
        <ele>121.62000274658</ele>
        <time>2010-01-30T14:59:40Z</time>
      </trkpt>
      <trkpt lat="44.95922" lon="4.84755">
        <ele>122.00900268555</ele>
        <time>2010-01-30T14:59:50Z</time>
      </trkpt>
      <trkpt lat="44.95971" lon="4.84766">
        <ele>123.01000213623</ele>
        <time>2010-01-30T15:00:00Z</time>
      </trkpt>
      <trkpt lat="44.96008" lon="4.84777">
        <ele>123.17500305176</ele>
        <time>2010-01-30T15:00:08Z</time>
      </trkpt>
      <trkpt lat="44.96046" lon="4.84789">
        <ele>123.43399810791</ele>
        <time>2010-01-30T15:00:15Z</time>
      </trkpt>
      <trkpt lat="44.96092" lon="4.84802">
        <ele>123.48300170898</ele>
        <time>2010-01-30T15:00:23Z</time>
      </trkpt>
      <trkpt lat="44.96149" lon="4.8482">
        <ele>123.41799926758</ele>
        <time>2010-01-30T15:00:32Z</time>
      </trkpt>
      <trkpt lat="44.96203" lon="4.84837">
        <ele>122.79100036621</ele>
        <time>2010-01-30T15:00:40Z</time>
      </trkpt>
      <trkpt lat="44.96259" lon="4.84854">
        <ele>122.69400024414</ele>
        <time>2010-01-30T15:00:48Z</time>
      </trkpt>
      <trkpt lat="44.96327" lon="4.84873">
        <ele>122.61000061035</ele>
        <time>2010-01-30T15:00:58Z</time>
      </trkpt>
      <trkpt lat="44.96387" lon="4.84891">
        <ele>121.72599792481</ele>
        <time>2010-01-30T15:01:07Z</time>
      </trkpt>
      <trkpt lat="44.96457" lon="4.8491">
        <ele>121.10600280762</ele>
        <time>2010-01-30T15:01:17Z</time>
      </trkpt>
      <trkpt lat="44.96512" lon="4.84929">
        <ele>121.07599639893</ele>
        <time>2010-01-30T15:01:25Z</time>
      </trkpt>
      <trkpt lat="44.96567" lon="4.84948">
        <ele>121.58599853516</ele>
        <time>2010-01-30T15:01:35Z</time>
      </trkpt>
      <trkpt lat="44.96643" lon="4.8497">
        <ele>121.94899749756</ele>
        <time>2010-01-30T15:01:44Z</time>
      </trkpt>
      <trkpt lat="44.96703" lon="4.8499">
        <ele>122.01599884033</ele>
        <time>2010-01-30T15:01:53Z</time>
      </trkpt>
      <trkpt lat="44.96761" lon="4.85006">
        <ele>122.51499938965</ele>
        <time>2010-01-30T15:02:02Z</time>
      </trkpt>
      <trkpt lat="44.9683" lon="4.85023">
        <ele>121.84899902344</ele>
        <time>2010-01-30T15:02:12Z</time>
      </trkpt>
      <trkpt lat="44.96894" lon="4.85041">
        <ele>121.01399993897</ele>
        <time>2010-01-30T15:02:21Z</time>
      </trkpt>
      <trkpt lat="44.96975" lon="4.85071">
        <ele>120.64399719238</ele>
        <time>2010-01-30T15:02:32Z</time>
      </trkpt>
      <trkpt lat="44.97009" lon="4.85085">
        <ele>119.06199645996</ele>
        <time>2010-01-30T15:02:40Z</time>
      </trkpt>
      <trkpt lat="44.97115" lon="4.85142">
        <ele>117.59899902344</ele>
        <time>2010-01-30T15:02:51Z</time>
      </trkpt>
      <trkpt lat="44.97189" lon="4.85183">
        <ele>116.42500305176</ele>
        <time>2010-01-30T15:03:01Z</time>
      </trkpt>
      <trkpt lat="44.97238" lon="4.85194">
        <ele>115.30200195312</ele>
        <time>2010-01-30T15:03:07Z</time>
      </trkpt>
      <trkpt lat="44.97302" lon="4.85188">
        <ele>113.80899810791</ele>
        <time>2010-01-30T15:03:15Z</time>
      </trkpt>
      <trkpt lat="44.97368" lon="4.85188">
        <ele>113.50199890137</ele>
        <time>2010-01-30T15:03:23Z</time>
      </trkpt>
      <trkpt lat="44.97461" lon="4.85191">
        <ele>110.827003479</ele>
        <time>2010-01-30T15:03:34Z</time>
      </trkpt>
      <trkpt lat="44.97529" lon="4.85188">
        <ele>109.87799835205</ele>
        <time>2010-01-30T15:03:42Z</time>
      </trkpt>
      <trkpt lat="44.9759" lon="4.85167">
        <ele>110.02200317383</ele>
        <time>2010-01-30T15:03:50Z</time>
      </trkpt>
      <trkpt lat="44.97637" lon="4.85151">
        <ele>111.96399688721</ele>
        <time>2010-01-30T15:03:57Z</time>
      </trkpt>
      <trkpt lat="44.97691" lon="4.85133">
        <ele>113.89700317383</ele>
        <time>2010-01-30T15:04:06Z</time>
      </trkpt>
      <trkpt lat="44.97732" lon="4.85119">
        <ele>114.10500335693</ele>
        <time>2010-01-30T15:04:13Z</time>
      </trkpt>
      <trkpt lat="44.97781" lon="4.85103">
        <ele>112.05400085449</ele>
        <time>2010-01-30T15:04:20Z</time>
      </trkpt>
      <trkpt lat="44.97863" lon="4.85075">
        <ele>110.73500061035</ele>
        <time>2010-01-30T15:04:31Z</time>
      </trkpt>
      <trkpt lat="44.97923" lon="4.85055">
        <ele>109.92700195312</ele>
        <time>2010-01-30T15:04:41Z</time>
      </trkpt>
      <trkpt lat="44.97996" lon="4.85033">
        <ele>110.3629989624</ele>
        <time>2010-01-30T15:04:49Z</time>
      </trkpt>
      <trkpt lat="44.98059" lon="4.85013">
        <ele>112.87899780273</ele>
        <time>2010-01-30T15:04:58Z</time>
      </trkpt>
      <trkpt lat="44.98119" lon="4.84992">
        <ele>113.12000274658</ele>
        <time>2010-01-30T15:05:07Z</time>
      </trkpt>
      <trkpt lat="44.98187" lon="4.8497">
        <ele>111.53099822998</ele>
        <time>2010-01-30T15:05:16Z</time>
      </trkpt>
      <trkpt lat="44.98259" lon="4.84946">
        <ele>108.65000152588</ele>
        <time>2010-01-30T15:05:25Z</time>
      </trkpt>
      <trkpt lat="44.9832" lon="4.84923">
        <ele>108.31199645996</ele>
        <time>2010-01-30T15:05:33Z</time>
      </trkpt>
      <trkpt lat="44.98375" lon="4.84891">
        <ele>108.6309967041</ele>
        <time>2010-01-30T15:05:41Z</time>
      </trkpt>
      <trkpt lat="44.98457" lon="4.84842">
        <ele>108.60500335693</ele>
        <time>2010-01-30T15:05:53Z</time>
      </trkpt>
      <trkpt lat="44.9851" lon="4.84812">
        <ele>109.92400360107</ele>
        <time>2010-01-30T15:06:01Z</time>
      </trkpt>
      <trkpt lat="44.98563" lon="4.84784">
        <ele>109.94799804688</ele>
        <time>2010-01-30T15:06:09Z</time>
      </trkpt>
      <trkpt lat="44.98616" lon="4.84763">
        <ele>110.33499908447</ele>
        <time>2010-01-30T15:06:17Z</time>
      </trkpt>
      <trkpt lat="44.9867" lon="4.84749">
        <ele>110.84899902344</ele>
        <time>2010-01-30T15:06:25Z</time>
      </trkpt>
      <trkpt lat="44.98728" lon="4.84744">
        <ele>111.27500152588</ele>
        <time>2010-01-30T15:06:33Z</time>
      </trkpt>
      <trkpt lat="44.988" lon="4.8474">
        <ele>110.40699768066</ele>
        <time>2010-01-30T15:06:43Z</time>
      </trkpt>
      <trkpt lat="44.98878" lon="4.84736">
        <ele>110.05999755859</ele>
        <time>2010-01-30T15:06:54Z</time>
      </trkpt>
      <trkpt lat="44.98964" lon="4.84731">
        <ele>110.50199890137</ele>
        <time>2010-01-30T15:07:06Z</time>
      </trkpt>
      <trkpt lat="44.99025" lon="4.84725">
        <ele>111.28600311279</ele>
        <time>2010-01-30T15:07:15Z</time>
      </trkpt>
      <trkpt lat="44.99092" lon="4.84713">
        <ele>110.69599914551</ele>
        <time>2010-01-30T15:07:25Z</time>
      </trkpt>
      <trkpt lat="44.99154" lon="4.84695">
        <ele>111.23000335693</ele>
        <time>2010-01-30T15:07:34Z</time>
      </trkpt>
      <trkpt lat="44.9921" lon="4.84669">
        <ele>111.24500274658</ele>
        <time>2010-01-30T15:07:43Z</time>
      </trkpt>
      <trkpt lat="44.9925" lon="4.84644">
        <ele>112.03199768066</ele>
        <time>2010-01-30T15:07:50Z</time>
      </trkpt>
      <trkpt lat="44.99305" lon="4.846">
        <ele>112.55100250244</ele>
        <time>2010-01-30T15:08:00Z</time>
      </trkpt>
      <trkpt lat="44.99368" lon="4.84547">
        <ele>114.47399902344</ele>
        <time>2010-01-30T15:08:11Z</time>
      </trkpt>
      <trkpt lat="44.99412" lon="4.84508">
        <ele>116.14199829102</ele>
        <time>2010-01-30T15:08:19Z</time>
      </trkpt>
      <trkpt lat="44.99469" lon="4.8446">
        <ele>118.1070022583</ele>
        <time>2010-01-30T15:08:29Z</time>
      </trkpt>
      <trkpt lat="44.99502" lon="4.84431">
        <ele>119.51699829102</ele>
        <time>2010-01-30T15:08:35Z</time>
      </trkpt>
      <trkpt lat="44.99564" lon="4.84384">
        <ele>121.5950012207</ele>
        <time>2010-01-30T15:08:46Z</time>
      </trkpt>
      <trkpt lat="44.99615" lon="4.84333">
        <ele>123.37899780273</ele>
        <time>2010-01-30T15:08:56Z</time>
      </trkpt>
      <trkpt lat="44.99662" lon="4.84285">
        <ele>122.94499969482</ele>
        <time>2010-01-30T15:09:05Z</time>
      </trkpt>
      <trkpt lat="44.997" lon="4.84248">
        <ele>123.68900299072</ele>
        <time>2010-01-30T15:09:12Z</time>
      </trkpt>
      <trkpt lat="44.99746" lon="4.84202">
        <ele>123.08200073242</ele>
        <time>2010-01-30T15:09:21Z</time>
      </trkpt>
      <trkpt lat="44.99751" lon="4.84197">
        <ele>123.11000061035</ele>
        <time>2010-01-30T15:09:22Z</time>
      </trkpt>
      <trkpt lat="44.99802" lon="4.84146">
        <ele>122.02899932861</ele>
        <time>2010-01-30T15:09:31Z</time>
      </trkpt>
      <trkpt lat="44.99849" lon="4.84099">
        <ele>121.40100097656</ele>
        <time>2010-01-30T15:09:39Z</time>
      </trkpt>
      <trkpt lat="44.99916" lon="4.84095">
        <ele>120.20099639893</ele>
        <time>2010-01-30T15:09:46Z</time>
      </trkpt>
      <trkpt lat="44.99968" lon="4.84074">
        <ele>118.90299987793</ele>
        <time>2010-01-30T15:09:53Z</time>
      </trkpt>
      <trkpt lat="45.00026" lon="4.84048">
        <ele>118.297996521</ele>
        <time>2010-01-30T15:10:02Z</time>
      </trkpt>
      <trkpt lat="45.00079" lon="4.84028">
        <ele>118.2620010376</ele>
        <time>2010-01-30T15:10:09Z</time>
      </trkpt>
      <trkpt lat="45.00135" lon="4.84006">
        <ele>117.98500061035</ele>
        <time>2010-01-30T15:10:17Z</time>
      </trkpt>
      <trkpt lat="45.0019" lon="4.83981">
        <ele>118.7559967041</ele>
        <time>2010-01-30T15:10:25Z</time>
      </trkpt>
      <trkpt lat="45.00226" lon="4.83961">
        <ele>118.52700042725</ele>
        <time>2010-01-30T15:10:31Z</time>
      </trkpt>
      <trkpt lat="45.00273" lon="4.83922">
        <ele>118.44699859619</ele>
        <time>2010-01-30T15:10:39Z</time>
      </trkpt>
      <trkpt lat="45.00293" lon="4.83898">
        <ele>118.6549987793</ele>
        <time>2010-01-30T15:10:43Z</time>
      </trkpt>
      <trkpt lat="45.0032" lon="4.83858">
        <ele>118.24500274658</ele>
        <time>2010-01-30T15:10:49Z</time>
      </trkpt>
      <trkpt lat="45.00358" lon="4.83804">
        <ele>117.84999847412</ele>
        <time>2010-01-30T15:10:57Z</time>
      </trkpt>
      <trkpt lat="45.00397" lon="4.83733">
        <ele>117.65599822998</ele>
        <time>2010-01-30T15:11:06Z</time>
      </trkpt>
      <trkpt lat="45.00433" lon="4.83665">
        <ele>117.7799987793</ele>
        <time>2010-01-30T15:11:14Z</time>
      </trkpt>
      <trkpt lat="45.00472" lon="4.83593">
        <ele>118.65699768066</ele>
        <time>2010-01-30T15:11:22Z</time>
      </trkpt>
      <trkpt lat="45.00493" lon="4.83553">
        <ele>120.45500183106</ele>
        <time>2010-01-30T15:11:27Z</time>
      </trkpt>
      <trkpt lat="45.0053" lon="4.835">
        <ele>121.50700378418</ele>
        <time>2010-01-30T15:11:35Z</time>
      </trkpt>
      <trkpt lat="45.00562" lon="4.83468">
        <ele>122.3450012207</ele>
        <time>2010-01-30T15:11:41Z</time>
      </trkpt>
      <trkpt lat="45.00629" lon="4.83436">
        <ele>123.2919998169</ele>
        <time>2010-01-30T15:11:52Z</time>
      </trkpt>
      <trkpt lat="45.00687" lon="4.83413">
        <ele>123.19999694824</ele>
        <time>2010-01-30T15:12:01Z</time>
      </trkpt>
      <trkpt lat="45.0075" lon="4.83389">
        <ele>123.98000335693</ele>
        <time>2010-01-30T15:12:11Z</time>
      </trkpt>
      <trkpt lat="45.00814" lon="4.83366">
        <ele>125.27799987793</ele>
        <time>2010-01-30T15:12:21Z</time>
      </trkpt>
      <trkpt lat="45.00865" lon="4.83349">
        <ele>125.39600372315</ele>
        <time>2010-01-30T15:12:29Z</time>
      </trkpt>
      <trkpt lat="45.00909" lon="4.83347">
        <ele>123.97200012207</ele>
        <time>2010-01-30T15:12:35Z</time>
      </trkpt>
      <trkpt lat="45.00957" lon="4.83355">
        <ele>123.28299713135</ele>
        <time>2010-01-30T15:12:41Z</time>
      </trkpt>
      <trkpt lat="45.01012" lon="4.83363">
        <ele>121.25399780273</ele>
        <time>2010-01-30T15:12:48Z</time>
      </trkpt>
      <trkpt lat="45.01066" lon="4.83358">
        <ele>120.24299621582</ele>
        <time>2010-01-30T15:12:55Z</time>
      </trkpt>
      <trkpt lat="45.01112" lon="4.83347">
        <ele>118.67700195312</ele>
        <time>2010-01-30T15:13:01Z</time>
      </trkpt>
      <trkpt lat="45.01169" lon="4.83332">
        <ele>117.96399688721</ele>
        <time>2010-01-30T15:13:08Z</time>
      </trkpt>
      <trkpt lat="45.01208" lon="4.83324">
        <ele>117.25099945068</ele>
        <time>2010-01-30T15:13:13Z</time>
      </trkpt>
      <trkpt lat="45.01273" lon="4.83314">
        <ele>115.05599975586</ele>
        <time>2010-01-30T15:13:21Z</time>
      </trkpt>
      <trkpt lat="45.01335" lon="4.83317">
        <ele>113.31099700928</ele>
        <time>2010-01-30T15:13:28Z</time>
      </trkpt>
      <trkpt lat="45.01413" lon="4.83324">
        <ele>111.31600189209</ele>
        <time>2010-01-30T15:13:37Z</time>
      </trkpt>
      <trkpt lat="45.01498" lon="4.8333">
        <ele>110.99199676514</ele>
        <time>2010-01-30T15:13:47Z</time>
      </trkpt>
      <trkpt lat="45.01546" lon="4.8333">
        <ele>112.7679977417</ele>
        <time>2010-01-30T15:13:53Z</time>
      </trkpt>
      <trkpt lat="45.01591" lon="4.83322">
        <ele>114.64800262451</ele>
        <time>2010-01-30T15:13:59Z</time>
      </trkpt>
      <trkpt lat="45.0164" lon="4.83314">
        <ele>115.23000335693</ele>
        <time>2010-01-30T15:14:06Z</time>
      </trkpt>
      <trkpt lat="45.0168" lon="4.8331">
        <ele>116.18499755859</ele>
        <time>2010-01-30T15:14:12Z</time>
      </trkpt>
      <trkpt lat="45.01758" lon="4.83307">
        <ele>117.0179977417</ele>
        <time>2010-01-30T15:14:23Z</time>
      </trkpt>
      <trkpt lat="45.01815" lon="4.83312">
        <ele>116.81300354004</ele>
        <time>2010-01-30T15:14:31Z</time>
      </trkpt>
      <trkpt lat="45.01881" lon="4.83328">
        <ele>114.23999786377</ele>
        <time>2010-01-30T15:14:40Z</time>
      </trkpt>
      <trkpt lat="45.01908" lon="4.83337">
        <ele>113.59700012207</ele>
        <time>2010-01-30T15:14:44Z</time>
      </trkpt>
      <trkpt lat="45.01927" lon="4.83344">
        <ele>113.27400207519</ele>
        <time>2010-01-30T15:14:47Z</time>
      </trkpt>
      <trkpt lat="45.01924" lon="4.83376">
        <ele>113.56500244141</ele>
        <time>2010-01-30T15:14:50Z</time>
      </trkpt>
      <trkpt lat="45.01919" lon="4.83387">
        <ele>114.23100280762</ele>
        <time>2010-01-30T15:14:52Z</time>
      </trkpt>
      <trkpt lat="45.01909" lon="4.8341">
        <ele>114.71900177002</ele>
        <time>2010-01-30T15:14:56Z</time>
      </trkpt>
      <trkpt lat="45.01901" lon="4.83428">
        <ele>113.94000244141</ele>
        <time>2010-01-30T15:15:01Z</time>
      </trkpt>
      <trkpt lat="45.01876" lon="4.83471">
        <ele>113.34700012207</ele>
        <time>2010-01-30T15:15:07Z</time>
      </trkpt>
      <trkpt lat="45.01833" lon="4.83512">
        <ele>113.13300323486</ele>
        <time>2010-01-30T15:15:14Z</time>
      </trkpt>
      <trkpt lat="45.0179" lon="4.83544">
        <ele>112.93599700928</ele>
        <time>2010-01-30T15:15:22Z</time>
      </trkpt>
      <trkpt lat="45.01747" lon="4.83569">
        <ele>112.30599975586</ele>
        <time>2010-01-30T15:15:29Z</time>
      </trkpt>
      <trkpt lat="45.01716" lon="4.83587">
        <ele>112.12200164795</ele>
        <time>2010-01-30T15:15:34Z</time>
      </trkpt>
      <trkpt lat="45.01665" lon="4.83609">
        <ele>111.87200164795</ele>
        <time>2010-01-30T15:15:42Z</time>
      </trkpt>
      <trkpt lat="45.01616" lon="4.8364">
        <ele>112.21099853516</ele>
        <time>2010-01-30T15:15:50Z</time>
      </trkpt>
      <trkpt lat="45.01551" lon="4.83682">
        <ele>112.00900268555</ele>
        <time>2010-01-30T15:16:00Z</time>
      </trkpt>
      <trkpt lat="45.01507" lon="4.83694">
        <ele>111.67700195312</ele>
        <time>2010-01-30T15:16:06Z</time>
      </trkpt>
      <trkpt lat="45.01469" lon="4.8369">
        <ele>111.87100219727</ele>
        <time>2010-01-30T15:16:11Z</time>
      </trkpt>
      <trkpt lat="45.01446" lon="4.83686">
        <ele>112.19899749756</ele>
        <time>2010-01-30T15:16:17Z</time>
      </trkpt>
      <trkpt lat="45.01374" lon="4.8365">
        <ele>111.97299957275</ele>
        <time>2010-01-30T15:16:24Z</time>
      </trkpt>
      <trkpt lat="45.01322" lon="4.83625">
        <ele>112.12000274658</ele>
        <time>2010-01-30T15:16:31Z</time>
      </trkpt>
      <trkpt lat="45.01266" lon="4.83596">
        <ele>112.81900024414</ele>
        <time>2010-01-30T15:16:39Z</time>
      </trkpt>
      <trkpt lat="45.01218" lon="4.83576">
        <ele>112.75399780273</ele>
        <time>2010-01-30T15:16:46Z</time>
      </trkpt>
      <trkpt lat="45.01191" lon="4.83578">
        <ele>112.94999694824</ele>
        <time>2010-01-30T15:16:50Z</time>
      </trkpt>
      <trkpt lat="45.01155" lon="4.83597">
        <ele>113.16500091553</ele>
        <time>2010-01-30T15:16:56Z</time>
      </trkpt>
      <trkpt lat="45.01145" lon="4.83607">
        <ele>113.03299713135</ele>
        <time>2010-01-30T15:16:58Z</time>
      </trkpt>
      <trkpt lat="45.01109" lon="4.83669">
        <ele>113.28099822998</ele>
        <time>2010-01-30T15:17:06Z</time>
      </trkpt>
      <trkpt lat="45.01078" lon="4.83724">
        <ele>113.2440032959</ele>
        <time>2010-01-30T15:17:13Z</time>
      </trkpt>
      <trkpt lat="45.01077" lon="4.83725">
        <ele>113.72200012207</ele>
        <time>2010-01-30T15:17:16Z</time>
      </trkpt>
      <trkpt lat="45.01061" lon="4.8378">
        <ele>115.04499816894</ele>
        <time>2010-01-30T15:17:19Z</time>
      </trkpt>
      <trkpt lat="45.01052" lon="4.83829">
        <ele>117.53900146484</ele>
        <time>2010-01-30T15:17:25Z</time>
      </trkpt>
      <trkpt lat="45.01045" lon="4.83874">
        <ele>117.69200134277</ele>
        <time>2010-01-30T15:17:31Z</time>
      </trkpt>
      <trkpt lat="45.01036" lon="4.83932">
        <ele>117.86499786377</ele>
        <time>2010-01-30T15:17:38Z</time>
      </trkpt>
      <trkpt lat="45.01027" lon="4.84">
        <ele>118.60399627685</ele>
        <time>2010-01-30T15:17:46Z</time>
      </trkpt>
      <trkpt lat="45.01018" lon="4.84062">
        <ele>117.81900024414</ele>
        <time>2010-01-30T15:17:53Z</time>
      </trkpt>
      <trkpt lat="45.01012" lon="4.84094">
        <ele>117.87699890137</ele>
        <time>2010-01-30T15:17:57Z</time>
      </trkpt>
      <trkpt lat="45.01012" lon="4.8413">
        <ele>115.72599792481</ele>
        <time>2010-01-30T15:18:01Z</time>
      </trkpt>
      <trkpt lat="45.01016" lon="4.84137">
        <ele>115.64199829102</ele>
        <time>2010-01-30T15:18:02Z</time>
      </trkpt>
      <trkpt lat="45.01026" lon="4.84154">
        <ele>114.2799987793</ele>
        <time>2010-01-30T15:18:05Z</time>
      </trkpt>
      <trkpt lat="45.01059" lon="4.84157">
        <ele>113.08100128174</ele>
        <time>2010-01-30T15:18:08Z</time>
      </trkpt>
      <trkpt lat="45.01068" lon="4.84169">
        <ele>112.53199768066</ele>
        <time>2010-01-30T15:18:10Z</time>
      </trkpt>
      <trkpt lat="45.01062" lon="4.84194">
        <ele>112.68399810791</ele>
        <time>2010-01-30T15:18:12Z</time>
      </trkpt>
      <trkpt lat="45.01081" lon="4.8425">
        <ele>112.08499908447</ele>
        <time>2010-01-30T15:18:19Z</time>
      </trkpt>
      <trkpt lat="45.01076" lon="4.84327">
        <ele>112.17400360107</ele>
        <time>2010-01-30T15:18:26Z</time>
      </trkpt>
      <trkpt lat="45.01073" lon="4.8442">
        <ele>112.2440032959</ele>
        <time>2010-01-30T15:18:34Z</time>
      </trkpt>
      <trkpt lat="45.01073" lon="4.84497">
        <ele>112.99900054932</ele>
        <time>2010-01-30T15:18:41Z</time>
      </trkpt>
      <trkpt lat="45.0108" lon="4.84529">
        <ele>113.75499725342</ele>
        <time>2010-01-30T15:18:45Z</time>
      </trkpt>
      <trkpt lat="45.01081" lon="4.84536">
        <ele>114.52400207519</ele>
        <time>2010-01-30T15:18:49Z</time>
      </trkpt>
      <trkpt lat="45.01125" lon="4.84637">
        <ele>115.14600372315</ele>
        <time>2010-01-30T15:18:59Z</time>
      </trkpt>
      <trkpt lat="45.01187" lon="4.84713">
        <ele>114.73899841309</ele>
        <time>2010-01-30T15:19:11Z</time>
      </trkpt>
      <trkpt lat="45.01245" lon="4.84784">
        <ele>115.39099884033</ele>
        <time>2010-01-30T15:19:22Z</time>
      </trkpt>
      <trkpt lat="45.0127" lon="4.8482">
        <ele>115.07900238037</ele>
        <time>2010-01-30T15:19:27Z</time>
      </trkpt>
      <trkpt lat="45.01285" lon="4.84864">
        <ele>115.34200286865</ele>
        <time>2010-01-30T15:19:32Z</time>
      </trkpt>
      <trkpt lat="45.01292" lon="4.84896">
        <ele>114.69300079346</ele>
        <time>2010-01-30T15:19:37Z</time>
      </trkpt>
      <trkpt lat="45.01292" lon="4.84896">
        <ele>114.3690032959</ele>
        <time>2010-01-30T15:19:39Z</time>
      </trkpt>
      <trkpt lat="45.0132" lon="4.84987">
        <ele>114.87699890137</ele>
        <time>2010-01-30T15:19:46Z</time>
      </trkpt>
      <trkpt lat="45.01343" lon="4.85063">
        <ele>115.37300109863</ele>
        <time>2010-01-30T15:19:55Z</time>
      </trkpt>
      <trkpt lat="45.01358" lon="4.85115">
        <ele>116.1070022583</ele>
        <time>2010-01-30T15:20:02Z</time>
      </trkpt>
      <trkpt lat="45.01375" lon="4.85158">
        <ele>117.93900299072</ele>
        <time>2010-01-30T15:20:09Z</time>
      </trkpt>
      <trkpt lat="45.01392" lon="4.85202">
        <ele>119.80699920654</ele>
        <time>2010-01-30T15:20:17Z</time>
      </trkpt>
      <trkpt lat="45.01416" lon="4.85263">
        <ele>122.76999664307</ele>
        <time>2010-01-30T15:20:28Z</time>
      </trkpt>
      <trkpt lat="45.01429" lon="4.85291">
        <ele>123.14800262451</ele>
        <time>2010-01-30T15:20:36Z</time>
      </trkpt>
      <trkpt lat="45.01456" lon="4.85362">
        <ele>124.08100128174</ele>
        <time>2010-01-30T15:20:44Z</time>
      </trkpt>
      <trkpt lat="45.01484" lon="4.85435">
        <ele>123.52200317383</ele>
        <time>2010-01-30T15:20:54Z</time>
      </trkpt>
      <trkpt lat="45.01507" lon="4.85496">
        <ele>122.08699798584</ele>
        <time>2010-01-30T15:21:01Z</time>
      </trkpt>
      <trkpt lat="45.01529" lon="4.85557">
        <ele>123.66300201416</ele>
        <time>2010-01-30T15:21:08Z</time>
      </trkpt>
      <trkpt lat="45.01535" lon="4.85594">
        <ele>125.03500366211</ele>
        <time>2010-01-30T15:21:13Z</time>
      </trkpt>
      <trkpt lat="45.01541" lon="4.85625">
        <ele>125.91799926758</ele>
        <time>2010-01-30T15:21:18Z</time>
      </trkpt>
      <trkpt lat="45.01541" lon="4.85626">
        <ele>127.25900268555</ele>
        <time>2010-01-30T15:21:22Z</time>
      </trkpt>
      <trkpt lat="45.01552" lon="4.85679">
        <ele>128.57299804688</ele>
        <time>2010-01-30T15:21:26Z</time>
      </trkpt>
      <trkpt lat="45.01553" lon="4.85687">
        <ele>128.92700195312</ele>
        <time>2010-01-30T15:21:27Z</time>
      </trkpt>
      <trkpt lat="45.0156" lon="4.85738">
        <ele>129.84800720215</ele>
        <time>2010-01-30T15:21:33Z</time>
      </trkpt>
      <trkpt lat="45.01574" lon="4.8576">
        <ele>131.28399658203</ele>
        <time>2010-01-30T15:21:37Z</time>
      </trkpt>
      <trkpt lat="45.01586" lon="4.85763">
        <ele>131.64700317383</ele>
        <time>2010-01-30T15:21:39Z</time>
      </trkpt>
      <trkpt lat="45.01632" lon="4.85763">
        <ele>132.19099426269</ele>
        <time>2010-01-30T15:21:47Z</time>
      </trkpt>
      <trkpt lat="45.01657" lon="4.85759">
        <ele>130.68400573731</ele>
        <time>2010-01-30T15:21:51Z</time>
      </trkpt>
      <trkpt lat="45.01715" lon="4.8575">
        <ele>127.13999938965</ele>
        <time>2010-01-30T15:21:59Z</time>
      </trkpt>
      <trkpt lat="45.01762" lon="4.85756">
        <ele>125.93099975586</ele>
        <time>2010-01-30T15:22:05Z</time>
      </trkpt>
      <trkpt lat="45.0182" lon="4.85769">
        <ele>125.87699890137</ele>
        <time>2010-01-30T15:22:14Z</time>
      </trkpt>
      <trkpt lat="45.01851" lon="4.85776">
        <ele>125.99900054932</ele>
        <time>2010-01-30T15:22:19Z</time>
      </trkpt>
      <trkpt lat="45.01894" lon="4.85786">
        <ele>125.5120010376</ele>
        <time>2010-01-30T15:22:26Z</time>
      </trkpt>
      <trkpt lat="45.01966" lon="4.85802">
        <ele>123.43199920654</ele>
        <time>2010-01-30T15:22:37Z</time>
      </trkpt>
      <trkpt lat="45.01994" lon="4.85818">
        <ele>123.20500183106</ele>
        <time>2010-01-30T15:22:41Z</time>
      </trkpt>
      <trkpt lat="45.01999" lon="4.85829">
        <ele>123.14499664307</ele>
        <time>2010-01-30T15:22:42Z</time>
      </trkpt>
      <trkpt lat="45.02023" lon="4.85905">
        <ele>124.2679977417</ele>
        <time>2010-01-30T15:22:51Z</time>
      </trkpt>
      <trkpt lat="45.02053" lon="4.85966">
        <ele>124.38200378418</ele>
        <time>2010-01-30T15:22:59Z</time>
      </trkpt>
      <trkpt lat="45.02082" lon="4.86023">
        <ele>126.53199768066</ele>
        <time>2010-01-30T15:23:07Z</time>
      </trkpt>
      <trkpt lat="45.02099" lon="4.86064">
        <ele>127.65200042725</ele>
        <time>2010-01-30T15:23:12Z</time>
      </trkpt>
      <trkpt lat="45.02107" lon="4.86083">
        <ele>127.92700195312</ele>
        <time>2010-01-30T15:23:14Z</time>
      </trkpt>
      <trkpt lat="45.02134" lon="4.86139">
        <ele>130.11399841309</ele>
        <time>2010-01-30T15:23:20Z</time>
      </trkpt>
      <trkpt lat="45.02144" lon="4.86156">
        <ele>130.68899536133</ele>
        <time>2010-01-30T15:23:22Z</time>
      </trkpt>
      <trkpt lat="45.02159" lon="4.86182">
        <ele>131.44299316406</ele>
        <time>2010-01-30T15:23:25Z</time>
      </trkpt>
      <trkpt lat="45.02172" lon="4.86206">
        <ele>133.00300598144</ele>
        <time>2010-01-30T15:23:28Z</time>
      </trkpt>
      <trkpt lat="45.02193" lon="4.86248">
        <ele>135.25199890137</ele>
        <time>2010-01-30T15:23:34Z</time>
      </trkpt>
      <trkpt lat="45.02217" lon="4.86295">
        <ele>136.8690032959</ele>
        <time>2010-01-30T15:23:42Z</time>
      </trkpt>
      <trkpt lat="45.0225" lon="4.86353">
        <ele>136.33599853516</ele>
        <time>2010-01-30T15:23:52Z</time>
      </trkpt>
      <trkpt lat="45.02267" lon="4.86383">
        <ele>136.22300720215</ele>
        <time>2010-01-30T15:23:57Z</time>
      </trkpt>
      <trkpt lat="45.02273" lon="4.86395">
        <ele>136.41299438477</ele>
        <time>2010-01-30T15:23:59Z</time>
      </trkpt>
      <trkpt lat="45.02276" lon="4.86401">
        <ele>136.37899780273</ele>
        <time>2010-01-30T15:24:00Z</time>
      </trkpt>
      <trkpt lat="45.02291" lon="4.8643">
        <ele>136.25500488281</ele>
        <time>2010-01-30T15:24:05Z</time>
      </trkpt>
      <trkpt lat="45.02297" lon="4.86442">
        <ele>136.36500549316</ele>
        <time>2010-01-30T15:24:07Z</time>
      </trkpt>
      <trkpt lat="45.02306" lon="4.86459">
        <ele>136.73100280762</ele>
        <time>2010-01-30T15:24:10Z</time>
      </trkpt>
      <trkpt lat="45.02322" lon="4.86491">
        <ele>136.38900756836</ele>
        <time>2010-01-30T15:24:15Z</time>
      </trkpt>
      <trkpt lat="45.02326" lon="4.86497">
        <ele>136.51400756836</ele>
        <time>2010-01-30T15:24:16Z</time>
      </trkpt>
      <trkpt lat="45.02337" lon="4.86518">
        <ele>136.82299804688</ele>
        <time>2010-01-30T15:24:19Z</time>
      </trkpt>
      <trkpt lat="45.02369" lon="4.86581">
        <ele>137.53500366211</ele>
        <time>2010-01-30T15:24:28Z</time>
      </trkpt>
      <trkpt lat="45.02401" lon="4.86644">
        <ele>137.62199401856</ele>
        <time>2010-01-30T15:24:37Z</time>
      </trkpt>
      <trkpt lat="45.02435" lon="4.86715">
        <ele>138.23899841309</ele>
        <time>2010-01-30T15:24:47Z</time>
      </trkpt>
      <trkpt lat="45.02459" lon="4.86763">
        <ele>138.03700256348</ele>
        <time>2010-01-30T15:24:54Z</time>
      </trkpt>
      <trkpt lat="45.0248" lon="4.86804">
        <ele>138.77200317383</ele>
        <time>2010-01-30T15:25:01Z</time>
      </trkpt>
      <trkpt lat="45.02486" lon="4.86818">
        <ele>138.73199462891</ele>
        <time>2010-01-30T15:25:06Z</time>
      </trkpt>
      <trkpt lat="45.02486" lon="4.86818">
        <ele>138.73899841309</ele>
        <time>2010-01-30T15:25:07Z</time>
      </trkpt>
      <trkpt lat="45.02489" lon="4.86823">
        <ele>139.30999755859</ele>
        <time>2010-01-30T15:25:20Z</time>
      </trkpt>
      <trkpt lat="45.02498" lon="4.86848">
        <ele>138.42700195312</ele>
        <time>2010-01-30T15:25:27Z</time>
      </trkpt>
      <trkpt lat="45.02507" lon="4.86874">
        <ele>138.3390045166</ele>
        <time>2010-01-30T15:25:33Z</time>
      </trkpt>
      <trkpt lat="45.02518" lon="4.86903">
        <ele>138.18699645996</ele>
        <time>2010-01-30T15:25:39Z</time>
      </trkpt>
      <trkpt lat="45.02534" lon="4.8695">
        <ele>138.30599975586</ele>
        <time>2010-01-30T15:25:46Z</time>
      </trkpt>
      <trkpt lat="45.02549" lon="4.86992">
        <ele>138.12600708008</ele>
        <time>2010-01-30T15:25:52Z</time>
      </trkpt>
      <trkpt lat="45.02566" lon="4.8704">
        <ele>137.42599487305</ele>
        <time>2010-01-30T15:25:59Z</time>
      </trkpt>
      <trkpt lat="45.02593" lon="4.8711">
        <ele>136.25100708008</ele>
        <time>2010-01-30T15:26:09Z</time>
      </trkpt>
      <trkpt lat="45.02615" lon="4.87162">
        <ele>136.17500305176</ele>
        <time>2010-01-30T15:26:16Z</time>
      </trkpt>
      <trkpt lat="45.02642" lon="4.87225">
        <ele>135.82299804688</ele>
        <time>2010-01-30T15:26:24Z</time>
      </trkpt>
      <trkpt lat="45.02669" lon="4.87285">
        <ele>136.02900695801</ele>
        <time>2010-01-30T15:26:32Z</time>
      </trkpt>
      <trkpt lat="45.02688" lon="4.87329">
        <ele>137.01699829102</ele>
        <time>2010-01-30T15:26:38Z</time>
      </trkpt>
      <trkpt lat="45.02711" lon="4.87382">
        <ele>137.82400512695</ele>
        <time>2010-01-30T15:26:46Z</time>
      </trkpt>
      <trkpt lat="45.02732" lon="4.87427">
        <ele>140.09199523926</ele>
        <time>2010-01-30T15:26:54Z</time>
      </trkpt>
      <trkpt lat="45.02742" lon="4.87448">
        <ele>141.49099731445</ele>
        <time>2010-01-30T15:26:58Z</time>
      </trkpt>
      <trkpt lat="45.02746" lon="4.87458">
        <ele>141.7140045166</ele>
        <time>2010-01-30T15:27:00Z</time>
      </trkpt>
      <trkpt lat="45.02763" lon="4.87496">
        <ele>142.80799865723</ele>
        <time>2010-01-30T15:27:07Z</time>
      </trkpt>
      <trkpt lat="45.02769" lon="4.87505">
        <ele>142.69000244141</ele>
        <time>2010-01-30T15:27:09Z</time>
      </trkpt>
      <trkpt lat="45.02777" lon="4.87515">
        <ele>143.06399536133</ele>
        <time>2010-01-30T15:27:11Z</time>
      </trkpt>
      <trkpt lat="45.02797" lon="4.87562">
        <ele>141.35800170898</ele>
        <time>2010-01-30T15:27:18Z</time>
      </trkpt>
      <trkpt lat="45.02819" lon="4.87612">
        <ele>140.92700195312</ele>
        <time>2010-01-30T15:27:24Z</time>
      </trkpt>
      <trkpt lat="45.02854" lon="4.8769">
        <ele>140.19000244141</ele>
        <time>2010-01-30T15:27:33Z</time>
      </trkpt>
      <trkpt lat="45.0288" lon="4.87751">
        <ele>140.15800476074</ele>
        <time>2010-01-30T15:27:40Z</time>
      </trkpt>
      <trkpt lat="45.02916" lon="4.87816">
        <ele>139.51800537109</ele>
        <time>2010-01-30T15:27:48Z</time>
      </trkpt>
      <trkpt lat="45.02951" lon="4.87881">
        <ele>139.84700012207</ele>
        <time>2010-01-30T15:27:56Z</time>
      </trkpt>
      <trkpt lat="45.02958" lon="4.87887">
        <ele>139.49699401856</ele>
        <time>2010-01-30T15:27:57Z</time>
      </trkpt>
      <trkpt lat="45.0297" lon="4.87896">
        <ele>138.91999816894</ele>
        <time>2010-01-30T15:27:59Z</time>
      </trkpt>
      <trkpt lat="45.03007" lon="4.87923">
        <ele>139.70300292969</ele>
        <time>2010-01-30T15:28:05Z</time>
      </trkpt>
      <trkpt lat="45.03055" lon="4.87955">
        <ele>139.74000549316</ele>
        <time>2010-01-30T15:28:13Z</time>
      </trkpt>
      <trkpt lat="45.03104" lon="4.87987">
        <ele>140.3390045166</ele>
        <time>2010-01-30T15:28:21Z</time>
      </trkpt>
      <trkpt lat="45.03114" lon="4.87998">
        <ele>140.77200317383</ele>
        <time>2010-01-30T15:28:23Z</time>
      </trkpt>
      <trkpt lat="45.03168" lon="4.88046">
        <ele>140.9940032959</ele>
        <time>2010-01-30T15:28:33Z</time>
      </trkpt>
      <trkpt lat="45.03213" lon="4.88082">
        <ele>142.08599853516</ele>
        <time>2010-01-30T15:28:41Z</time>
      </trkpt>
      <trkpt lat="45.03254" lon="4.88115">
        <ele>142.05099487305</ele>
        <time>2010-01-30T15:28:49Z</time>
      </trkpt>
      <trkpt lat="45.03298" lon="4.88151">
        <ele>142.13499450684</ele>
        <time>2010-01-30T15:28:57Z</time>
      </trkpt>
      <trkpt lat="45.03349" lon="4.88187">
        <ele>141.92599487305</ele>
        <time>2010-01-30T15:29:06Z</time>
      </trkpt>
      <trkpt lat="45.03405" lon="4.88228">
        <ele>142.69299316406</ele>
        <time>2010-01-30T15:29:16Z</time>
      </trkpt>
      <trkpt lat="45.0346" lon="4.88268">
        <ele>142.3690032959</ele>
        <time>2010-01-30T15:29:26Z</time>
      </trkpt>
      <trkpt lat="45.03506" lon="4.88301">
        <ele>142.34399414062</ele>
        <time>2010-01-30T15:29:34Z</time>
      </trkpt>
      <trkpt lat="45.03551" lon="4.88333">
        <ele>143.11199951172</ele>
        <time>2010-01-30T15:29:42Z</time>
      </trkpt>
      <trkpt lat="45.03597" lon="4.88371">
        <ele>143.7140045166</ele>
        <time>2010-01-30T15:29:51Z</time>
      </trkpt>
      <trkpt lat="45.03653" lon="4.88423">
        <ele>142.90899658203</ele>
        <time>2010-01-30T15:30:02Z</time>
      </trkpt>
      <trkpt lat="45.03694" lon="4.88461">
        <ele>142.89199829102</ele>
        <time>2010-01-30T15:30:10Z</time>
      </trkpt>
      <trkpt lat="45.03753" lon="4.88516">
        <ele>142.71099853516</ele>
        <time>2010-01-30T15:30:21Z</time>
      </trkpt>
      <trkpt lat="45.03805" lon="4.88564">
        <ele>142.20199584961</ele>
        <time>2010-01-30T15:30:30Z</time>
      </trkpt>
      <trkpt lat="45.03867" lon="4.88622">
        <ele>142.68800354004</ele>
        <time>2010-01-30T15:30:41Z</time>
      </trkpt>
      <trkpt lat="45.03914" lon="4.88665">
        <ele>142.56799316406</ele>
        <time>2010-01-30T15:30:50Z</time>
      </trkpt>
      <trkpt lat="45.0393" lon="4.88681">
        <ele>142.28399658203</ele>
        <time>2010-01-30T15:30:54Z</time>
      </trkpt>
      <trkpt lat="45.03941" lon="4.88695">
        <ele>143.25799560547</ele>
        <time>2010-01-30T15:30:58Z</time>
      </trkpt>
      <trkpt lat="45.03943" lon="4.88699">
        <ele>142.66299438477</ele>
        <time>2010-01-30T15:30:59Z</time>
      </trkpt>
      <trkpt lat="45.03948" lon="4.88706">
        <ele>142.6549987793</ele>
        <time>2010-01-30T15:31:01Z</time>
      </trkpt>
      <trkpt lat="45.03954" lon="4.88716">
        <ele>142.35699462891</ele>
        <time>2010-01-30T15:31:03Z</time>
      </trkpt>
      <trkpt lat="45.0396" lon="4.88751">
        <ele>142.13900756836</ele>
        <time>2010-01-30T15:31:08Z</time>
      </trkpt>
      <trkpt lat="45.03964" lon="4.88801">
        <ele>141.85400390625</ele>
        <time>2010-01-30T15:31:15Z</time>
      </trkpt>
      <trkpt lat="45.03972" lon="4.88881">
        <ele>142.2440032959</ele>
        <time>2010-01-30T15:31:24Z</time>
      </trkpt>
      <trkpt lat="45.0398" lon="4.88971">
        <ele>142.75500488281</ele>
        <time>2010-01-30T15:31:34Z</time>
      </trkpt>
      <trkpt lat="45.03988" lon="4.89055">
        <ele>142.49200439453</ele>
        <time>2010-01-30T15:31:43Z</time>
      </trkpt>
      <trkpt lat="45.03995" lon="4.8913">
        <ele>142.68200683594</ele>
        <time>2010-01-30T15:31:51Z</time>
      </trkpt>
      <trkpt lat="45.04002" lon="4.89208">
        <ele>142.79699707031</ele>
        <time>2010-01-30T15:31:59Z</time>
      </trkpt>
      <trkpt lat="45.04007" lon="4.89299">
        <ele>143.66600036621</ele>
        <time>2010-01-30T15:32:08Z</time>
      </trkpt>
      <trkpt lat="45.0401" lon="4.89372">
        <ele>143.25199890137</ele>
        <time>2010-01-30T15:32:15Z</time>
      </trkpt>
      <trkpt lat="45.04013" lon="4.89463">
        <ele>142.97300720215</ele>
        <time>2010-01-30T15:32:24Z</time>
      </trkpt>
      <trkpt lat="45.04017" lon="4.89552">
        <ele>143.43800354004</ele>
        <time>2010-01-30T15:32:33Z</time>
      </trkpt>
      <trkpt lat="45.04024" lon="4.8963">
        <ele>143.6369934082</ele>
        <time>2010-01-30T15:32:41Z</time>
      </trkpt>
      <trkpt lat="45.04033" lon="4.89731">
        <ele>144.86599731445</ele>
        <time>2010-01-30T15:32:51Z</time>
      </trkpt>
      <trkpt lat="45.04039" lon="4.898">
        <ele>144.88299560547</ele>
        <time>2010-01-30T15:32:58Z</time>
      </trkpt>
      <trkpt lat="45.04047" lon="4.89865">
        <ele>145.06799316406</ele>
        <time>2010-01-30T15:33:05Z</time>
      </trkpt>
      <trkpt lat="45.04068" lon="4.89953">
        <ele>145.3869934082</ele>
        <time>2010-01-30T15:33:15Z</time>
      </trkpt>
      <trkpt lat="45.04083" lon="4.90021">
        <ele>145.53100585938</ele>
        <time>2010-01-30T15:33:23Z</time>
      </trkpt>
      <trkpt lat="45.04097" lon="4.90081">
        <ele>145.46899414062</ele>
        <time>2010-01-30T15:33:30Z</time>
      </trkpt>
      <trkpt lat="45.0411" lon="4.90138">
        <ele>145.82200622559</ele>
        <time>2010-01-30T15:33:37Z</time>
      </trkpt>
      <trkpt lat="45.04124" lon="4.90199">
        <ele>146.00700378418</ele>
        <time>2010-01-30T15:33:45Z</time>
      </trkpt>
      <trkpt lat="45.04154" lon="4.90276">
        <ele>146.125</ele>
        <time>2010-01-30T15:33:56Z</time>
      </trkpt>
      <trkpt lat="45.04179" lon="4.90324">
        <ele>146.47300720215</ele>
        <time>2010-01-30T15:34:03Z</time>
      </trkpt>
      <trkpt lat="45.04185" lon="4.90339">
        <ele>146.51100158691</ele>
        <time>2010-01-30T15:34:05Z</time>
      </trkpt>
      <trkpt lat="45.04206" lon="4.90385">
        <ele>146.38299560547</ele>
        <time>2010-01-30T15:34:12Z</time>
      </trkpt>
      <trkpt lat="45.04213" lon="4.90402">
        <ele>146.35899353027</ele>
        <time>2010-01-30T15:34:15Z</time>
      </trkpt>
      <trkpt lat="45.04234" lon="4.90452">
        <ele>146.56700134277</ele>
        <time>2010-01-30T15:34:25Z</time>
      </trkpt>
      <trkpt lat="45.04239" lon="4.90464">
        <ele>146.47200012207</ele>
        <time>2010-01-30T15:34:28Z</time>
      </trkpt>
      <trkpt lat="45.0424" lon="4.90467">
        <ele>146.5059967041</ele>
        <time>2010-01-30T15:34:32Z</time>
      </trkpt>
      <trkpt lat="45.04236" lon="4.90457">
        <ele>146.69500732422</ele>
        <time>2010-01-30T15:34:35Z</time>
      </trkpt>
      <trkpt lat="45.04222" lon="4.90422">
        <ele>147.32200622559</ele>
        <time>2010-01-30T15:34:41Z</time>
      </trkpt>
      <trkpt lat="45.04198" lon="4.90367">
        <ele>147.56300354004</ele>
        <time>2010-01-30T15:34:49Z</time>
      </trkpt>
      <trkpt lat="45.04171" lon="4.90307">
        <ele>146.54600524902</ele>
        <time>2010-01-30T15:34:57Z</time>
      </trkpt>
      <trkpt lat="45.04152" lon="4.90272">
        <ele>147.13000488281</ele>
        <time>2010-01-30T15:35:02Z</time>
      </trkpt>
      <trkpt lat="45.04137" lon="4.90233">
        <ele>147.01300048828</ele>
        <time>2010-01-30T15:35:08Z</time>
      </trkpt>
      <trkpt lat="45.04121" lon="4.90186">
        <ele>146.18899536133</ele>
        <time>2010-01-30T15:35:15Z</time>
      </trkpt>
      <trkpt lat="45.04115" lon="4.90159">
        <ele>146.05900573731</ele>
        <time>2010-01-30T15:35:20Z</time>
      </trkpt>
      <trkpt lat="45.04114" lon="4.90155">
        <ele>145.7559967041</ele>
        <time>2010-01-30T15:35:21Z</time>
      </trkpt>
      <trkpt lat="45.04107" lon="4.90149">
        <ele>146.22300720215</ele>
        <time>2010-01-30T15:35:25Z</time>
      </trkpt>
      <trkpt lat="45.04107" lon="4.90149">
        <ele>146.33399963379</ele>
        <time>2010-01-30T15:35:26Z</time>
      </trkpt>
      <trkpt lat="45.04113" lon="4.90152">
        <ele>145.92500305176</ele>
        <time>2010-01-30T15:35:39Z</time>
      </trkpt>
      <trkpt lat="45.04118" lon="4.90172">
        <ele>146.05299377441</ele>
        <time>2010-01-30T15:35:45Z</time>
      </trkpt>
      <trkpt lat="45.04122" lon="4.90192">
        <ele>145.98599243164</ele>
        <time>2010-01-30T15:35:51Z</time>
      </trkpt>
      <trkpt lat="45.04129" lon="4.90213">
        <ele>146.44099426269</ele>
        <time>2010-01-30T15:35:57Z</time>
      </trkpt>
      <trkpt lat="45.04139" lon="4.90238">
        <ele>146.30099487305</ele>
        <time>2010-01-30T15:36:04Z</time>
      </trkpt>
      <trkpt lat="45.04151" lon="4.9027">
        <ele>146.19299316406</ele>
        <time>2010-01-30T15:36:11Z</time>
      </trkpt>
      <trkpt lat="45.04175" lon="4.90315">
        <ele>146.39700317383</ele>
        <time>2010-01-30T15:36:20Z</time>
      </trkpt>
      <trkpt lat="45.04195" lon="4.90362">
        <ele>146.36799621582</ele>
        <time>2010-01-30T15:36:28Z</time>
      </trkpt>
      <trkpt lat="45.04223" lon="4.90423">
        <ele>147.01600646973</ele>
        <time>2010-01-30T15:36:38Z</time>
      </trkpt>
      <trkpt lat="45.04245" lon="4.90482">
        <ele>146.63000488281</ele>
        <time>2010-01-30T15:36:47Z</time>
      </trkpt>
      <trkpt lat="45.04276" lon="4.9056">
        <ele>146.45799255371</ele>
        <time>2010-01-30T15:36:58Z</time>
      </trkpt>
      <trkpt lat="45.04305" lon="4.90643">
        <ele>146.26400756836</ele>
        <time>2010-01-30T15:37:09Z</time>
      </trkpt>
      <trkpt lat="45.04326" lon="4.90707">
        <ele>146.13400268555</ele>
        <time>2010-01-30T15:37:20Z</time>
      </trkpt>
      <trkpt lat="45.04363" lon="4.90811">
        <ele>147.13800048828</ele>
        <time>2010-01-30T15:37:32Z</time>
      </trkpt>
      <trkpt lat="45.04391" lon="4.90886">
        <ele>147.82400512695</ele>
        <time>2010-01-30T15:37:43Z</time>
      </trkpt>
      <trkpt lat="45.04412" lon="4.90939">
        <ele>148.35400390625</ele>
        <time>2010-01-30T15:37:51Z</time>
      </trkpt>
      <trkpt lat="45.04432" lon="4.90982">
        <ele>149.1369934082</ele>
        <time>2010-01-30T15:37:58Z</time>
      </trkpt>
      <trkpt lat="45.04462" lon="4.91039">
        <ele>149.0059967041</ele>
        <time>2010-01-30T15:38:07Z</time>
      </trkpt>
      <trkpt lat="45.04493" lon="4.91096">
        <ele>149.17799377441</ele>
        <time>2010-01-30T15:38:16Z</time>
      </trkpt>
      <trkpt lat="45.04524" lon="4.91146">
        <ele>149.375</ele>
        <time>2010-01-30T15:38:24Z</time>
      </trkpt>
      <trkpt lat="45.04565" lon="4.91213">
        <ele>149.32200622559</ele>
        <time>2010-01-30T15:38:35Z</time>
      </trkpt>
      <trkpt lat="45.04604" lon="4.91281">
        <ele>149.85699462891</ele>
        <time>2010-01-30T15:38:46Z</time>
      </trkpt>
      <trkpt lat="45.04646" lon="4.91356">
        <ele>149.83999633789</ele>
        <time>2010-01-30T15:38:58Z</time>
      </trkpt>
      <trkpt lat="45.0469" lon="4.91438">
        <ele>150.22799682617</ele>
        <time>2010-01-30T15:39:11Z</time>
      </trkpt>
      <trkpt lat="45.04717" lon="4.91489">
        <ele>150.59100341797</ele>
        <time>2010-01-30T15:39:19Z</time>
      </trkpt>
      <trkpt lat="45.04742" lon="4.91535">
        <ele>150.52200317383</ele>
        <time>2010-01-30T15:39:29Z</time>
      </trkpt>
      <trkpt lat="45.04774" lon="4.91619">
        <ele>150.50399780273</ele>
        <time>2010-01-30T15:39:38Z</time>
      </trkpt>
      <trkpt lat="45.04789" lon="4.9166">
        <ele>150.73899841309</ele>
        <time>2010-01-30T15:39:47Z</time>
      </trkpt>
      <trkpt lat="45.04817" lon="4.91753">
        <ele>150.34100341797</ele>
        <time>2010-01-30T15:39:56Z</time>
      </trkpt>
      <trkpt lat="45.04837" lon="4.91823">
        <ele>150.29800415039</ele>
        <time>2010-01-30T15:40:05Z</time>
      </trkpt>
      <trkpt lat="45.04863" lon="4.91902">
        <ele>150.21099853516</ele>
        <time>2010-01-30T15:40:15Z</time>
      </trkpt>
      <trkpt lat="45.04892" lon="4.91974">
        <ele>150.40199279785</ele>
        <time>2010-01-30T15:40:25Z</time>
      </trkpt>
      <trkpt lat="45.04923" lon="4.92051">
        <ele>150.76300048828</ele>
        <time>2010-01-30T15:40:36Z</time>
      </trkpt>
      <trkpt lat="45.0496" lon="4.92145">
        <ele>151.44099426269</ele>
        <time>2010-01-30T15:40:49Z</time>
      </trkpt>
      <trkpt lat="45.04987" lon="4.92206">
        <ele>152.19400024414</ele>
        <time>2010-01-30T15:40:58Z</time>
      </trkpt>
      <trkpt lat="45.05009" lon="4.92257">
        <ele>151.19299316406</ele>
        <time>2010-01-30T15:41:06Z</time>
      </trkpt>
      <trkpt lat="45.05038" lon="4.92315">
        <ele>151.96600341797</ele>
        <time>2010-01-30T15:41:15Z</time>
      </trkpt>
      <trkpt lat="45.0507" lon="4.92362">
        <ele>152.25500488281</ele>
        <time>2010-01-30T15:41:24Z</time>
      </trkpt>
      <trkpt lat="45.05077" lon="4.92371">
        <ele>152.40899658203</ele>
        <time>2010-01-30T15:41:26Z</time>
      </trkpt>
      <trkpt lat="45.05083" lon="4.92397">
        <ele>152.19700622559</ele>
        <time>2010-01-30T15:41:30Z</time>
      </trkpt>
      <trkpt lat="45.05088" lon="4.92451">
        <ele>151.90800476074</ele>
        <time>2010-01-30T15:41:37Z</time>
      </trkpt>
      <trkpt lat="45.05089" lon="4.92468">
        <ele>151.47799682617</ele>
        <time>2010-01-30T15:41:39Z</time>
      </trkpt>
      <trkpt lat="45.05103" lon="4.92525">
        <ele>151.46600341797</ele>
        <time>2010-01-30T15:41:46Z</time>
      </trkpt>
      <trkpt lat="45.05127" lon="4.92592">
        <ele>151.90400695801</ele>
        <time>2010-01-30T15:41:55Z</time>
      </trkpt>
      <trkpt lat="45.05145" lon="4.92644">
        <ele>152.56599426269</ele>
        <time>2010-01-30T15:42:02Z</time>
      </trkpt>
      <trkpt lat="45.05169" lon="4.9272">
        <ele>152.19599914551</ele>
        <time>2010-01-30T15:42:11Z</time>
      </trkpt>
      <trkpt lat="45.05194" lon="4.92802">
        <ele>151.72500610352</ele>
        <time>2010-01-30T15:42:21Z</time>
      </trkpt>
      <trkpt lat="45.05223" lon="4.92892">
        <ele>152.64799499512</ele>
        <time>2010-01-30T15:42:32Z</time>
      </trkpt>
      <trkpt lat="45.05244" lon="4.92936">
        <ele>152.875</ele>
        <time>2010-01-30T15:42:38Z</time>
      </trkpt>
      <trkpt lat="45.05276" lon="4.92986">
        <ele>153.31399536133</ele>
        <time>2010-01-30T15:42:46Z</time>
      </trkpt>
      <trkpt lat="45.05302" lon="4.93028">
        <ele>153.92700195312</ele>
        <time>2010-01-30T15:42:53Z</time>
      </trkpt>
      <trkpt lat="45.05317" lon="4.93054">
        <ele>153.22399902344</ele>
        <time>2010-01-30T15:42:58Z</time>
      </trkpt>
      <trkpt lat="45.05317" lon="4.93054">
        <ele>153.46099853516</ele>
        <time>2010-01-30T15:43:00Z</time>
      </trkpt>
      <trkpt lat="45.0536" lon="4.93092">
        <ele>154.17399597168</ele>
        <time>2010-01-30T15:43:07Z</time>
      </trkpt>
      <trkpt lat="45.0538" lon="4.9311">
        <ele>153.9049987793</ele>
        <time>2010-01-30T15:43:11Z</time>
      </trkpt>
      <trkpt lat="45.0539" lon="4.93119">
        <ele>154.31700134277</ele>
        <time>2010-01-30T15:43:14Z</time>
      </trkpt>
      <trkpt lat="45.05354" lon="4.93223">
        <ele>154.08299255371</ele>
        <time>2010-01-30T15:43:23Z</time>
      </trkpt>
      <trkpt lat="45.05334" lon="4.93282">
        <ele>154.32800292969</ele>
        <time>2010-01-30T15:43:30Z</time>
      </trkpt>
      <trkpt lat="45.05305" lon="4.93375">
        <ele>154.67100524902</ele>
        <time>2010-01-30T15:43:40Z</time>
      </trkpt>
      <trkpt lat="45.0527" lon="4.93504">
        <ele>155.4700012207</ele>
        <time>2010-01-30T15:43:54Z</time>
      </trkpt>
      <trkpt lat="45.05247" lon="4.93587">
        <ele>155.96200561523</ele>
        <time>2010-01-30T15:44:03Z</time>
      </trkpt>
      <trkpt lat="45.05222" lon="4.93676">
        <ele>155.30900573731</ele>
        <time>2010-01-30T15:44:12Z</time>
      </trkpt>
      <trkpt lat="45.05191" lon="4.93789">
        <ele>155.9049987793</ele>
        <time>2010-01-30T15:44:23Z</time>
      </trkpt>
      <trkpt lat="45.05175" lon="4.93867">
        <ele>157.32400512695</ele>
        <time>2010-01-30T15:44:31Z</time>
      </trkpt>
      <trkpt lat="45.05162" lon="4.93938">
        <ele>158.38499450684</ele>
        <time>2010-01-30T15:44:38Z</time>
      </trkpt>
      <trkpt lat="45.05154" lon="4.94009">
        <ele>159.19900512695</ele>
        <time>2010-01-30T15:44:45Z</time>
      </trkpt>
      <trkpt lat="45.05154" lon="4.94092">
        <ele>159.10200500488</ele>
        <time>2010-01-30T15:44:53Z</time>
      </trkpt>
      <trkpt lat="45.05154" lon="4.94166">
        <ele>158.80900573731</ele>
        <time>2010-01-30T15:45:00Z</time>
      </trkpt>
      <trkpt lat="45.0516" lon="4.94262">
        <ele>158.23300170898</ele>
        <time>2010-01-30T15:45:09Z</time>
      </trkpt>
      <trkpt lat="45.05173" lon="4.94335">
        <ele>157.95300292969</ele>
        <time>2010-01-30T15:45:16Z</time>
      </trkpt>
      <trkpt lat="45.0518" lon="4.94367">
        <ele>157.80299377441</ele>
        <time>2010-01-30T15:45:19Z</time>
      </trkpt>
      <trkpt lat="45.05195" lon="4.94454">
        <ele>157.5</ele>
        <time>2010-01-30T15:45:27Z</time>
      </trkpt>
      <trkpt lat="45.0521" lon="4.94556">
        <ele>156.32400512695</ele>
        <time>2010-01-30T15:45:37Z</time>
      </trkpt>
      <trkpt lat="45.05219" lon="4.94665">
        <ele>155.41000366211</ele>
        <time>2010-01-30T15:45:45Z</time>
      </trkpt>
      <trkpt lat="45.05234" lon="4.94731">
        <ele>152.63999938965</ele>
        <time>2010-01-30T15:45:51Z</time>
      </trkpt>
      <trkpt lat="45.05239" lon="4.94753">
        <ele>151.58599853516</ele>
        <time>2010-01-30T15:45:53Z</time>
      </trkpt>
      <trkpt lat="45.05248" lon="4.94791">
        <ele>150.25999450684</ele>
        <time>2010-01-30T15:45:57Z</time>
      </trkpt>
      <trkpt lat="45.05253" lon="4.94812">
        <ele>149.4700012207</ele>
        <time>2010-01-30T15:45:59Z</time>
      </trkpt>
      <trkpt lat="45.05259" lon="4.94835">
        <ele>148.70199584961</ele>
        <time>2010-01-30T15:46:01Z</time>
      </trkpt>
      <trkpt lat="45.05272" lon="4.94884">
        <ele>147.90400695801</ele>
        <time>2010-01-30T15:46:05Z</time>
      </trkpt>
      <trkpt lat="45.0531" lon="4.94899">
        <ele>147.01300048828</ele>
        <time>2010-01-30T15:46:08Z</time>
      </trkpt>
      <trkpt lat="45.05349" lon="4.94947">
        <ele>146.75999450684</ele>
        <time>2010-01-30T15:46:14Z</time>
      </trkpt>
      <trkpt lat="45.05368" lon="4.94985">
        <ele>146.6549987793</ele>
        <time>2010-01-30T15:46:18Z</time>
      </trkpt>
      <trkpt lat="45.05382" lon="4.95028">
        <ele>146.47300720215</ele>
        <time>2010-01-30T15:46:22Z</time>
      </trkpt>
      <trkpt lat="45.05385" lon="4.95076">
        <ele>146.25799560547</ele>
        <time>2010-01-30T15:46:26Z</time>
      </trkpt>
      <trkpt lat="45.05381" lon="4.95119">
        <ele>146.32899475098</ele>
        <time>2010-01-30T15:46:30Z</time>
      </trkpt>
      <trkpt lat="45.0538" lon="4.95127">
        <ele>146.60299682617</ele>
        <time>2010-01-30T15:46:31Z</time>
      </trkpt>
      <trkpt lat="45.05402" lon="4.95144">
        <ele>146.52699279785</ele>
        <time>2010-01-30T15:46:33Z</time>
      </trkpt>
      <trkpt lat="45.05433" lon="4.95187">
        <ele>147.10099792481</ele>
        <time>2010-01-30T15:46:39Z</time>
      </trkpt>
      <trkpt lat="45.05459" lon="4.9525">
        <ele>148.69200134277</ele>
        <time>2010-01-30T15:46:47Z</time>
      </trkpt>
      <trkpt lat="45.05474" lon="4.95309">
        <ele>149.60800170898</ele>
        <time>2010-01-30T15:46:54Z</time>
      </trkpt>
      <trkpt lat="45.05482" lon="4.9536">
        <ele>149.74000549316</ele>
        <time>2010-01-30T15:47:00Z</time>
      </trkpt>
      <trkpt lat="45.05493" lon="4.95424">
        <ele>150.23399353027</ele>
        <time>2010-01-30T15:47:08Z</time>
      </trkpt>
      <trkpt lat="45.055" lon="4.95464">
        <ele>151.03500366211</ele>
        <time>2010-01-30T15:47:14Z</time>
      </trkpt>
      <trkpt lat="45.05508" lon="4.95512">
        <ele>152.95300292969</ele>
        <time>2010-01-30T15:47:23Z</time>
      </trkpt>
      <trkpt lat="45.05514" lon="4.95548">
        <ele>152.81500244141</ele>
        <time>2010-01-30T15:47:29Z</time>
      </trkpt>
      <trkpt lat="45.05515" lon="4.95555">
        <ele>152.81900024414</ele>
        <time>2010-01-30T15:47:30Z</time>
      </trkpt>
      <trkpt lat="45.0552" lon="4.95582">
        <ele>151.85400390625</ele>
        <time>2010-01-30T15:47:34Z</time>
      </trkpt>
      <trkpt lat="45.05531" lon="4.95647">
        <ele>150.13900756836</ele>
        <time>2010-01-30T15:47:42Z</time>
      </trkpt>
      <trkpt lat="45.05534" lon="4.95662">
        <ele>150.34100341797</ele>
        <time>2010-01-30T15:47:44Z</time>
      </trkpt>
      <trkpt lat="45.05545" lon="4.95731">
        <ele>150.6369934082</ele>
        <time>2010-01-30T15:47:53Z</time>
      </trkpt>
      <trkpt lat="45.05555" lon="4.95788">
        <ele>150.79400634766</ele>
        <time>2010-01-30T15:48:01Z</time>
      </trkpt>
      <trkpt lat="45.05566" lon="4.95853">
        <ele>150.8690032959</ele>
        <time>2010-01-30T15:48:10Z</time>
      </trkpt>
      <trkpt lat="45.05576" lon="4.9591">
        <ele>150.78199768066</ele>
        <time>2010-01-30T15:48:18Z</time>
      </trkpt>
      <trkpt lat="45.05586" lon="4.95973">
        <ele>151.26800537109</ele>
        <time>2010-01-30T15:48:27Z</time>
      </trkpt>
      <trkpt lat="45.05593" lon="4.96025">
        <ele>151.20700073242</ele>
        <time>2010-01-30T15:48:34Z</time>
      </trkpt>
      <trkpt lat="45.05602" lon="4.96096">
        <ele>151.64399719238</ele>
        <time>2010-01-30T15:48:43Z</time>
      </trkpt>
      <trkpt lat="45.05615" lon="4.96176">
        <ele>151.82800292969</ele>
        <time>2010-01-30T15:48:53Z</time>
      </trkpt>
      <trkpt lat="45.05631" lon="4.96242">
        <ele>152.50399780273</ele>
        <time>2010-01-30T15:49:02Z</time>
      </trkpt>
      <trkpt lat="45.05648" lon="4.96312">
        <ele>153.55099487305</ele>
        <time>2010-01-30T15:49:13Z</time>
      </trkpt>
      <trkpt lat="45.05655" lon="4.9634">
        <ele>154.56599426269</ele>
        <time>2010-01-30T15:49:19Z</time>
      </trkpt>
      <trkpt lat="45.05659" lon="4.96359">
        <ele>155.375</ele>
        <time>2010-01-30T15:49:24Z</time>
      </trkpt>
      <trkpt lat="45.0566" lon="4.96361">
        <ele>155.15800476074</ele>
        <time>2010-01-30T15:49:25Z</time>
      </trkpt>
      <trkpt lat="45.05661" lon="4.96363">
        <ele>155.32400512695</ele>
        <time>2010-01-30T15:49:29Z</time>
      </trkpt>
      <trkpt lat="45.05661" lon="4.96363">
        <ele>155.2859954834</ele>
        <time>2010-01-30T15:49:30Z</time>
      </trkpt>
      <trkpt lat="45.05661" lon="4.96363">
        <ele>155.34700012207</ele>
        <time>2010-01-30T15:49:32Z</time>
      </trkpt>
      <trkpt lat="45.05676" lon="4.96367">
        <ele>155.66799926758</ele>
        <time>2010-01-30T15:49:38Z</time>
      </trkpt>
      <trkpt lat="45.05691" lon="4.96371">
        <ele>156.00799560547</ele>
        <time>2010-01-30T15:49:44Z</time>
      </trkpt>
      <trkpt lat="45.05706" lon="4.96374">
        <ele>156.35499572754</ele>
        <time>2010-01-30T15:49:49Z</time>
      </trkpt>
      <trkpt lat="45.05733" lon="4.96381">
        <ele>157.12699890137</ele>
        <time>2010-01-30T15:49:56Z</time>
      </trkpt>
      <trkpt lat="45.05782" lon="4.96393">
        <ele>158.33299255371</ele>
        <time>2010-01-30T15:50:07Z</time>
      </trkpt>
      <trkpt lat="45.05829" lon="4.96405">
        <ele>159.63600158691</ele>
        <time>2010-01-30T15:50:17Z</time>
      </trkpt>
      <trkpt lat="45.05884" lon="4.96419">
        <ele>160.62899780273</ele>
        <time>2010-01-30T15:50:28Z</time>
      </trkpt>
      <trkpt lat="45.05935" lon="4.96432">
        <ele>161.87600708008</ele>
        <time>2010-01-30T15:50:38Z</time>
      </trkpt>
      <trkpt lat="45.05984" lon="4.96444">
        <ele>161.98500061035</ele>
        <time>2010-01-30T15:50:47Z</time>
      </trkpt>
      <trkpt lat="45.06036" lon="4.96448">
        <ele>162.37899780273</ele>
        <time>2010-01-30T15:50:56Z</time>
      </trkpt>
      <trkpt lat="45.06096" lon="4.96441">
        <ele>161.77900695801</ele>
        <time>2010-01-30T15:51:06Z</time>
      </trkpt>
      <trkpt lat="45.06154" lon="4.96431">
        <ele>162.44000244141</ele>
        <time>2010-01-30T15:51:16Z</time>
      </trkpt>
      <trkpt lat="45.06211" lon="4.96407">
        <ele>163.21699523926</ele>
        <time>2010-01-30T15:51:26Z</time>
      </trkpt>
      <trkpt lat="45.06264" lon="4.96381">
        <ele>162.42900085449</ele>
        <time>2010-01-30T15:51:35Z</time>
      </trkpt>
      <trkpt lat="45.06313" lon="4.96377">
        <ele>161.95300292969</ele>
        <time>2010-01-30T15:51:42Z</time>
      </trkpt>
      <trkpt lat="45.06373" lon="4.96372">
        <ele>160.55099487305</ele>
        <time>2010-01-30T15:51:50Z</time>
      </trkpt>
      <trkpt lat="45.0643" lon="4.96367">
        <ele>159.21699523926</ele>
        <time>2010-01-30T15:51:57Z</time>
      </trkpt>
      <trkpt lat="45.06477" lon="4.96363">
        <ele>157.28300476074</ele>
        <time>2010-01-30T15:52:03Z</time>
      </trkpt>
      <trkpt lat="45.06527" lon="4.96359">
        <ele>155.97300720215</ele>
        <time>2010-01-30T15:52:10Z</time>
      </trkpt>
      <trkpt lat="45.06585" lon="4.96327">
        <ele>156.42500305176</ele>
        <time>2010-01-30T15:52:17Z</time>
      </trkpt>
      <trkpt lat="45.06651" lon="4.96289">
        <ele>156.12600708008</ele>
        <time>2010-01-30T15:52:26Z</time>
      </trkpt>
      <trkpt lat="45.06707" lon="4.96261">
        <ele>155.68800354004</ele>
        <time>2010-01-30T15:52:34Z</time>
      </trkpt>
      <trkpt lat="45.06762" lon="4.96237">
        <ele>156.71800231934</ele>
        <time>2010-01-30T15:52:42Z</time>
      </trkpt>
      <trkpt lat="45.06783" lon="4.96218">
        <ele>156.95599365234</ele>
        <time>2010-01-30T15:52:46Z</time>
      </trkpt>
      <trkpt lat="45.06802" lon="4.96196">
        <ele>157.22700500488</ele>
        <time>2010-01-30T15:52:52Z</time>
      </trkpt>
      <trkpt lat="45.06851" lon="4.96117">
        <ele>155.97500610352</ele>
        <time>2010-01-30T15:53:00Z</time>
      </trkpt>
      <trkpt lat="45.06881" lon="4.96081">
        <ele>155.52600097656</ele>
        <time>2010-01-30T15:53:05Z</time>
      </trkpt>
      <trkpt lat="45.0692" lon="4.96043">
        <ele>155.19200134277</ele>
        <time>2010-01-30T15:53:11Z</time>
      </trkpt>
      <trkpt lat="45.06973" lon="4.96004">
        <ele>155.00799560547</ele>
        <time>2010-01-30T15:53:19Z</time>
      </trkpt>
      <trkpt lat="45.07038" lon="4.95961">
        <ele>155.29299926758</ele>
        <time>2010-01-30T15:53:29Z</time>
      </trkpt>
      <trkpt lat="45.07087" lon="4.95922">
        <ele>155.06399536133</ele>
        <time>2010-01-30T15:53:37Z</time>
      </trkpt>
      <trkpt lat="45.07135" lon="4.95882">
        <ele>156.56799316406</ele>
        <time>2010-01-30T15:53:45Z</time>
      </trkpt>
      <trkpt lat="45.07178" lon="4.95861">
        <ele>155.93200683594</ele>
        <time>2010-01-30T15:53:52Z</time>
      </trkpt>
      <trkpt lat="45.07228" lon="4.95846">
        <ele>156.44299316406</ele>
        <time>2010-01-30T15:53:59Z</time>
      </trkpt>
      <trkpt lat="45.07261" lon="4.95842">
        <ele>157.14799499512</ele>
        <time>2010-01-30T15:54:04Z</time>
      </trkpt>
      <trkpt lat="45.07302" lon="4.95854">
        <ele>158.26600646973</ele>
        <time>2010-01-30T15:54:11Z</time>
      </trkpt>
      <trkpt lat="45.07359" lon="4.95864">
        <ele>160.06399536133</ele>
        <time>2010-01-30T15:54:20Z</time>
      </trkpt>
      <trkpt lat="45.07406" lon="4.95862">
        <ele>160.24600219727</ele>
        <time>2010-01-30T15:54:27Z</time>
      </trkpt>
      <trkpt lat="45.07458" lon="4.9586">
        <ele>161.32200622559</ele>
        <time>2010-01-30T15:54:35Z</time>
      </trkpt>
      <trkpt lat="45.07495" lon="4.95855">
        <ele>161.22700500488</ele>
        <time>2010-01-30T15:54:41Z</time>
      </trkpt>
      <trkpt lat="45.07534" lon="4.9585">
        <ele>160.59700012207</ele>
        <time>2010-01-30T15:54:47Z</time>
      </trkpt>
      <trkpt lat="45.07562" lon="4.95846">
        <ele>160.88499450684</ele>
        <time>2010-01-30T15:54:51Z</time>
      </trkpt>
      <trkpt lat="45.07575" lon="4.95844">
        <ele>160.80999755859</ele>
        <time>2010-01-30T15:54:53Z</time>
      </trkpt>
      <trkpt lat="45.07631" lon="4.95835">
        <ele>160.92700195312</ele>
        <time>2010-01-30T15:55:01Z</time>
      </trkpt>
      <trkpt lat="45.07677" lon="4.95831">
        <ele>160.71499633789</ele>
        <time>2010-01-30T15:55:08Z</time>
      </trkpt>
      <trkpt lat="45.07677" lon="4.95831">
        <ele>160.43899536133</ele>
        <time>2010-01-30T15:55:13Z</time>
      </trkpt>
      <trkpt lat="45.07725" lon="4.95835">
        <ele>160.91000366211</ele>
        <time>2010-01-30T15:55:16Z</time>
      </trkpt>
      <trkpt lat="45.07768" lon="4.95829">
        <ele>161.20300292969</ele>
        <time>2010-01-30T15:55:21Z</time>
      </trkpt>
      <trkpt lat="45.07822" lon="4.95835">
        <ele>161.22999572754</ele>
        <time>2010-01-30T15:55:29Z</time>
      </trkpt>
      <trkpt lat="45.0787" lon="4.95847">
        <ele>161.51699829102</ele>
        <time>2010-01-30T15:55:36Z</time>
      </trkpt>
      <trkpt lat="45.07907" lon="4.95854">
        <ele>161.47999572754</ele>
        <time>2010-01-30T15:55:42Z</time>
      </trkpt>
      <trkpt lat="45.07958" lon="4.9586">
        <ele>162.03700256348</ele>
        <time>2010-01-30T15:55:50Z</time>
      </trkpt>
      <trkpt lat="45.07989" lon="4.95864">
        <ele>162.36099243164</ele>
        <time>2010-01-30T15:55:55Z</time>
      </trkpt>
      <trkpt lat="45.07999" lon="4.95865">
        <ele>162.76699829102</ele>
        <time>2010-01-30T15:55:59Z</time>
      </trkpt>
      <trkpt lat="45.07999" lon="4.95865">
        <ele>163.44599914551</ele>
        <time>2010-01-30T15:56:01Z</time>
      </trkpt>
      <trkpt lat="45.08051" lon="4.9587">
        <ele>164.16900634766</ele>
        <time>2010-01-30T15:56:08Z</time>
      </trkpt>
      <trkpt lat="45.08078" lon="4.95871">
        <ele>164.69700622559</ele>
        <time>2010-01-30T15:56:14Z</time>
      </trkpt>
      <trkpt lat="45.08112" lon="4.95873">
        <ele>164.97999572754</ele>
        <time>2010-01-30T15:56:21Z</time>
      </trkpt>
      <trkpt lat="45.0815" lon="4.95882">
        <ele>166.28300476074</ele>
        <time>2010-01-30T15:56:29Z</time>
      </trkpt>
      <trkpt lat="45.08185" lon="4.95896">
        <ele>167.90100097656</ele>
        <time>2010-01-30T15:56:37Z</time>
      </trkpt>
      <trkpt lat="45.08219" lon="4.95905">
        <ele>168.45100402832</ele>
        <time>2010-01-30T15:56:44Z</time>
      </trkpt>
      <trkpt lat="45.08253" lon="4.95907">
        <ele>169.22099304199</ele>
        <time>2010-01-30T15:56:50Z</time>
      </trkpt>
      <trkpt lat="45.08258" lon="4.95907">
        <ele>168.84800720215</ele>
        <time>2010-01-30T15:56:51Z</time>
      </trkpt>
      <trkpt lat="45.08281" lon="4.95901">
        <ele>169.00999450684</ele>
        <time>2010-01-30T15:56:55Z</time>
      </trkpt>
      <trkpt lat="45.08317" lon="4.9586">
        <ele>169.03999328613</ele>
        <time>2010-01-30T15:57:03Z</time>
      </trkpt>
      <trkpt lat="45.08329" lon="4.95846">
        <ele>168.98399353027</ele>
        <time>2010-01-30T15:57:06Z</time>
      </trkpt>
      <trkpt lat="45.08342" lon="4.95834">
        <ele>168.87600708008</ele>
        <time>2010-01-30T15:57:09Z</time>
      </trkpt>
      <trkpt lat="45.08389" lon="4.9582">
        <ele>168.9640045166</ele>
        <time>2010-01-30T15:57:18Z</time>
      </trkpt>
      <trkpt lat="45.08426" lon="4.95798">
        <ele>169.17799377441</ele>
        <time>2010-01-30T15:57:25Z</time>
      </trkpt>
      <trkpt lat="45.08462" lon="4.95787">
        <ele>169.27799987793</ele>
        <time>2010-01-30T15:57:31Z</time>
      </trkpt>
      <trkpt lat="45.08485" lon="4.95781">
        <ele>169.29699707031</ele>
        <time>2010-01-30T15:57:35Z</time>
      </trkpt>
      <trkpt lat="45.08519" lon="4.95761">
        <ele>169.37399291992</ele>
        <time>2010-01-30T15:57:41Z</time>
      </trkpt>
      <trkpt lat="45.08561" lon="4.9575">
        <ele>169.27799987793</ele>
        <time>2010-01-30T15:57:48Z</time>
      </trkpt>
      <trkpt lat="45.08598" lon="4.95745">
        <ele>169.55299377441</ele>
        <time>2010-01-30T15:57:54Z</time>
      </trkpt>
      <trkpt lat="45.08641" lon="4.95733">
        <ele>169.51600646973</ele>
        <time>2010-01-30T15:58:01Z</time>
      </trkpt>
      <trkpt lat="45.08689" lon="4.95728">
        <ele>170.44099426269</ele>
        <time>2010-01-30T15:58:09Z</time>
      </trkpt>
      <trkpt lat="45.08729" lon="4.95724">
        <ele>171.27000427246</ele>
        <time>2010-01-30T15:58:17Z</time>
      </trkpt>
      <trkpt lat="45.08765" lon="4.95721">
        <ele>171.10000610352</ele>
        <time>2010-01-30T15:58:23Z</time>
      </trkpt>
      <trkpt lat="45.08793" lon="4.9572">
        <ele>171.24800109863</ele>
        <time>2010-01-30T15:58:28Z</time>
      </trkpt>
      <trkpt lat="45.08823" lon="4.95709">
        <ele>170.21600341797</ele>
        <time>2010-01-30T15:58:33Z</time>
      </trkpt>
      <trkpt lat="45.08829" lon="4.95706">
        <ele>170.44700622559</ele>
        <time>2010-01-30T15:58:34Z</time>
      </trkpt>
      <trkpt lat="45.08854" lon="4.95705">
        <ele>170.31199645996</ele>
        <time>2010-01-30T15:58:38Z</time>
      </trkpt>
      <trkpt lat="45.08858" lon="4.9571">
        <ele>169.89500427246</ele>
        <time>2010-01-30T15:58:39Z</time>
      </trkpt>
      <trkpt lat="45.0888" lon="4.95737">
        <ele>170.24299621582</ele>
        <time>2010-01-30T15:58:44Z</time>
      </trkpt>
      <trkpt lat="45.08896" lon="4.95754">
        <ele>170.84599304199</ele>
        <time>2010-01-30T15:58:51Z</time>
      </trkpt>
      <trkpt lat="45.08955" lon="4.95809">
        <ele>171.89999389648</ele>
        <time>2010-01-30T15:59:00Z</time>
      </trkpt>
      <trkpt lat="45.08989" lon="4.9584">
        <ele>171.73199462891</ele>
        <time>2010-01-30T15:59:07Z</time>
      </trkpt>
      <trkpt lat="45.09026" lon="4.95875">
        <ele>171.95300292969</ele>
        <time>2010-01-30T15:59:15Z</time>
      </trkpt>
      <trkpt lat="45.09056" lon="4.95903">
        <ele>172.25</ele>
        <time>2010-01-30T15:59:22Z</time>
      </trkpt>
      <trkpt lat="45.09086" lon="4.95931">
        <ele>173.31799316406</ele>
        <time>2010-01-30T15:59:29Z</time>
      </trkpt>
      <trkpt lat="45.0909" lon="4.95935">
        <ele>173.54699707031</ele>
        <time>2010-01-30T15:59:30Z</time>
      </trkpt>
      <trkpt lat="45.09098" lon="4.95943">
        <ele>173.30400085449</ele>
        <time>2010-01-30T15:59:32Z</time>
      </trkpt>
      <trkpt lat="45.09127" lon="4.96009">
        <ele>174.09399414062</ele>
        <time>2010-01-30T15:59:42Z</time>
      </trkpt>
      <trkpt lat="45.09142" lon="4.96056">
        <ele>174.74200439453</ele>
        <time>2010-01-30T15:59:49Z</time>
      </trkpt>
      <trkpt lat="45.09145" lon="4.96062">
        <ele>174.57299804688</ele>
        <time>2010-01-30T15:59:50Z</time>
      </trkpt>
      <trkpt lat="45.09156" lon="4.96086">
        <ele>174.89300537109</ele>
        <time>2010-01-30T15:59:54Z</time>
      </trkpt>
      <trkpt lat="45.09167" lon="4.96111">
        <ele>175.04200744629</ele>
        <time>2010-01-30T15:59:58Z</time>
      </trkpt>
      <trkpt lat="45.09182" lon="4.96133">
        <ele>176.03799438477</ele>
        <time>2010-01-30T16:00:02Z</time>
      </trkpt>
      <trkpt lat="45.09185" lon="4.96138">
        <ele>175.82600402832</ele>
        <time>2010-01-30T16:00:03Z</time>
      </trkpt>
      <trkpt lat="45.0919" lon="4.96144">
        <ele>176.39300537109</ele>
        <time>2010-01-30T16:00:04Z</time>
      </trkpt>
      <trkpt lat="45.09212" lon="4.96175">
        <ele>176.99600219727</ele>
        <time>2010-01-30T16:00:10Z</time>
      </trkpt>
      <trkpt lat="45.09246" lon="4.96221">
        <ele>177.9109954834</ele>
        <time>2010-01-30T16:00:19Z</time>
      </trkpt>
      <trkpt lat="45.09286" lon="4.96277">
        <ele>179.08599853516</ele>
        <time>2010-01-30T16:00:30Z</time>
      </trkpt>
      <trkpt lat="45.0931" lon="4.96309">
        <ele>180.44200134277</ele>
        <time>2010-01-30T16:00:37Z</time>
      </trkpt>
      <trkpt lat="45.09313" lon="4.96313">
        <ele>180.66299438477</ele>
        <time>2010-01-30T16:00:38Z</time>
      </trkpt>
      <trkpt lat="45.09336" lon="4.96338">
        <ele>181.18200683594</ele>
        <time>2010-01-30T16:00:44Z</time>
      </trkpt>
      <trkpt lat="45.0935" lon="4.9635">
        <ele>180.82499694824</ele>
        <time>2010-01-30T16:00:47Z</time>
      </trkpt>
      <trkpt lat="45.09378" lon="4.96365">
        <ele>182.21899414062</ele>
        <time>2010-01-30T16:00:53Z</time>
      </trkpt>
      <trkpt lat="45.09413" lon="4.96376">
        <ele>183.68600463867</ele>
        <time>2010-01-30T16:01:00Z</time>
      </trkpt>
      <trkpt lat="45.09426" lon="4.9638">
        <ele>184.33000183106</ele>
        <time>2010-01-30T16:01:03Z</time>
      </trkpt>
      <trkpt lat="45.09431" lon="4.96382">
        <ele>184.54299926758</ele>
        <time>2010-01-30T16:01:04Z</time>
      </trkpt>
      <trkpt lat="45.09458" lon="4.96391">
        <ele>185.85600280762</ele>
        <time>2010-01-30T16:01:10Z</time>
      </trkpt>
      <trkpt lat="45.09462" lon="4.96392">
        <ele>186.06599426269</ele>
        <time>2010-01-30T16:01:11Z</time>
      </trkpt>
      <trkpt lat="45.09484" lon="4.96399">
        <ele>186.91200256348</ele>
        <time>2010-01-30T16:01:16Z</time>
      </trkpt>
      <trkpt lat="45.09504" lon="4.96406">
        <ele>187.55900573731</ele>
        <time>2010-01-30T16:01:20Z</time>
      </trkpt>
      <trkpt lat="45.09539" lon="4.96442">
        <ele>188.00900268555</ele>
        <time>2010-01-30T16:01:28Z</time>
      </trkpt>
      <trkpt lat="45.09579" lon="4.96482">
        <ele>188.51100158691</ele>
        <time>2010-01-30T16:01:37Z</time>
      </trkpt>
      <trkpt lat="45.09609" lon="4.96508">
        <ele>190.77400207519</ele>
        <time>2010-01-30T16:01:44Z</time>
      </trkpt>
      <trkpt lat="45.09613" lon="4.96511">
        <ele>190.89900207519</ele>
        <time>2010-01-30T16:01:45Z</time>
      </trkpt>
      <trkpt lat="45.09624" lon="4.9652">
        <ele>192.21200561523</ele>
        <time>2010-01-30T16:01:48Z</time>
      </trkpt>
      <trkpt lat="45.09642" lon="4.96535">
        <ele>194.30999755859</ele>
        <time>2010-01-30T16:01:54Z</time>
      </trkpt>
      <trkpt lat="45.0965" lon="4.96542">
        <ele>195.16600036621</ele>
        <time>2010-01-30T16:01:57Z</time>
      </trkpt>
      <trkpt lat="45.09665" lon="4.96553">
        <ele>196.33999633789</ele>
        <time>2010-01-30T16:02:02Z</time>
      </trkpt>
      <trkpt lat="45.09683" lon="4.96565">
        <ele>197.5119934082</ele>
        <time>2010-01-30T16:02:07Z</time>
      </trkpt>
      <trkpt lat="45.09707" lon="4.96582">
        <ele>200.42799377441</ele>
        <time>2010-01-30T16:02:14Z</time>
      </trkpt>
      <trkpt lat="45.09724" lon="4.96595">
        <ele>203.15800476074</ele>
        <time>2010-01-30T16:02:19Z</time>
      </trkpt>
      <trkpt lat="45.09739" lon="4.96611">
        <ele>206.00700378418</ele>
        <time>2010-01-30T16:02:25Z</time>
      </trkpt>
      <trkpt lat="45.09744" lon="4.96617">
        <ele>206.99699401856</ele>
        <time>2010-01-30T16:02:28Z</time>
      </trkpt>
      <trkpt lat="45.09746" lon="4.96619">
        <ele>207.2380065918</ele>
        <time>2010-01-30T16:02:29Z</time>
      </trkpt>
      <trkpt lat="45.09756" lon="4.9663">
        <ele>208.85400390625</ele>
        <time>2010-01-30T16:02:35Z</time>
      </trkpt>
      <trkpt lat="45.09761" lon="4.96645">
        <ele>209.56500244141</ele>
        <time>2010-01-30T16:02:40Z</time>
      </trkpt>
      <trkpt lat="45.09762" lon="4.96662">
        <ele>209.63999938965</ele>
        <time>2010-01-30T16:02:46Z</time>
      </trkpt>
      <trkpt lat="45.09755" lon="4.96691">
        <ele>209.77000427246</ele>
        <time>2010-01-30T16:02:54Z</time>
      </trkpt>
      <trkpt lat="45.09747" lon="4.96724">
        <ele>209.625</ele>
        <time>2010-01-30T16:03:01Z</time>
      </trkpt>
      <trkpt lat="45.09748" lon="4.96747">
        <ele>209.92500305176</ele>
        <time>2010-01-30T16:03:06Z</time>
      </trkpt>
      <trkpt lat="45.09756" lon="4.96775">
        <ele>210.42399597168</ele>
        <time>2010-01-30T16:03:13Z</time>
      </trkpt>
      <trkpt lat="45.09774" lon="4.96801">
        <ele>210.82699584961</ele>
        <time>2010-01-30T16:03:21Z</time>
      </trkpt>
      <trkpt lat="45.098" lon="4.96831">
        <ele>212.46299743652</ele>
        <time>2010-01-30T16:03:31Z</time>
      </trkpt>
      <trkpt lat="45.09823" lon="4.96856">
        <ele>213.56599426269</ele>
        <time>2010-01-30T16:03:38Z</time>
      </trkpt>
      <trkpt lat="45.09845" lon="4.96882">
        <ele>214.375</ele>
        <time>2010-01-30T16:03:44Z</time>
      </trkpt>
      <trkpt lat="45.09875" lon="4.96905">
        <ele>214.91700744629</ele>
        <time>2010-01-30T16:03:51Z</time>
      </trkpt>
      <trkpt lat="45.09917" lon="4.96927">
        <ele>215.86399841309</ele>
        <time>2010-01-30T16:04:00Z</time>
      </trkpt>
      <trkpt lat="45.09967" lon="4.9695">
        <ele>216.18800354004</ele>
        <time>2010-01-30T16:04:10Z</time>
      </trkpt>
      <trkpt lat="45.10011" lon="4.96969">
        <ele>217.21000671387</ele>
        <time>2010-01-30T16:04:19Z</time>
      </trkpt>
      <trkpt lat="45.10055" lon="4.96989">
        <ele>218.16299438477</ele>
        <time>2010-01-30T16:04:28Z</time>
      </trkpt>
      <trkpt lat="45.10089" lon="4.97004">
        <ele>218.36399841309</ele>
        <time>2010-01-30T16:04:35Z</time>
      </trkpt>
      <trkpt lat="45.1013" lon="4.97022">
        <ele>218.97900390625</ele>
        <time>2010-01-30T16:04:43Z</time>
      </trkpt>
      <trkpt lat="45.10135" lon="4.97024">
        <ele>219.06399536133</ele>
        <time>2010-01-30T16:04:44Z</time>
      </trkpt>
      <trkpt lat="45.10176" lon="4.97042">
        <ele>219.67999267578</ele>
        <time>2010-01-30T16:04:52Z</time>
      </trkpt>
      <trkpt lat="45.10202" lon="4.97038">
        <ele>220.07299804688</ele>
        <time>2010-01-30T16:04:57Z</time>
      </trkpt>
      <trkpt lat="45.10221" lon="4.97019">
        <ele>219.44299316406</ele>
        <time>2010-01-30T16:05:01Z</time>
      </trkpt>
      <trkpt lat="45.10226" lon="4.97014">
        <ele>219.60499572754</ele>
        <time>2010-01-30T16:05:02Z</time>
      </trkpt>
      <trkpt lat="45.10237" lon="4.97002">
        <ele>219.77200317383</ele>
        <time>2010-01-30T16:05:04Z</time>
      </trkpt>
      <trkpt lat="45.10262" lon="4.96991">
        <ele>218.55900573731</ele>
        <time>2010-01-30T16:05:08Z</time>
      </trkpt>
      <trkpt lat="45.10267" lon="4.96996">
        <ele>218.55900573731</ele>
        <time>2010-01-30T16:05:09Z</time>
      </trkpt>
      <trkpt lat="45.10273" lon="4.97002">
        <ele>218.60200500488</ele>
        <time>2010-01-30T16:05:10Z</time>
      </trkpt>
      <trkpt lat="45.10321" lon="4.97052">
        <ele>218.82299804688</ele>
        <time>2010-01-30T16:05:19Z</time>
      </trkpt>
      <trkpt lat="45.1035" lon="4.97082">
        <ele>219.00300598144</ele>
        <time>2010-01-30T16:05:25Z</time>
      </trkpt>
      <trkpt lat="45.10374" lon="4.97106">
        <ele>219.69200134277</ele>
        <time>2010-01-30T16:05:31Z</time>
      </trkpt>
      <trkpt lat="45.10383" lon="4.97115">
        <ele>219.72300720215</ele>
        <time>2010-01-30T16:05:34Z</time>
      </trkpt>
      <trkpt lat="45.10404" lon="4.9713">
        <ele>219.96499633789</ele>
        <time>2010-01-30T16:05:40Z</time>
      </trkpt>
      <trkpt lat="45.10411" lon="4.97136">
        <ele>220.52299499512</ele>
        <time>2010-01-30T16:05:43Z</time>
      </trkpt>
      <trkpt lat="45.10429" lon="4.97097">
        <ele>220.70799255371</ele>
        <time>2010-01-30T16:05:50Z</time>
      </trkpt>
      <trkpt lat="45.10448" lon="4.97054">
        <ele>219.81900024414</ele>
        <time>2010-01-30T16:05:57Z</time>
      </trkpt>
      <trkpt lat="45.10465" lon="4.97012">
        <ele>220.22700500488</ele>
        <time>2010-01-30T16:06:04Z</time>
      </trkpt>
      <trkpt lat="45.10469" lon="4.97">
        <ele>219.84399414062</ele>
        <time>2010-01-30T16:06:06Z</time>
      </trkpt>
      <trkpt lat="45.10477" lon="4.96975">
        <ele>219.80400085449</ele>
        <time>2010-01-30T16:06:11Z</time>
      </trkpt>
      <trkpt lat="45.10495" lon="4.96987">
        <ele>220.13299560547</ele>
        <time>2010-01-30T16:06:14Z</time>
      </trkpt>
      <trkpt lat="45.10542" lon="4.9702">
        <ele>220.71899414062</ele>
        <time>2010-01-30T16:06:24Z</time>
      </trkpt>
      <trkpt lat="45.10577" lon="4.97045">
        <ele>221.06300354004</ele>
        <time>2010-01-30T16:06:31Z</time>
      </trkpt>
      <trkpt lat="45.10613" lon="4.9707">
        <ele>221.10800170898</ele>
        <time>2010-01-30T16:06:38Z</time>
      </trkpt>
      <trkpt lat="45.10643" lon="4.9709">
        <ele>221.2380065918</ele>
        <time>2010-01-30T16:06:44Z</time>
      </trkpt>
      <trkpt lat="45.1068" lon="4.97115">
        <ele>222.27299499512</ele>
        <time>2010-01-30T16:06:52Z</time>
      </trkpt>
      <trkpt lat="45.1071" lon="4.97136">
        <ele>222.99499511719</ele>
        <time>2010-01-30T16:06:59Z</time>
      </trkpt>
      <trkpt lat="45.10743" lon="4.97168">
        <ele>222.50100708008</ele>
        <time>2010-01-30T16:07:07Z</time>
      </trkpt>
      <trkpt lat="45.10772" lon="4.97198">
        <ele>223.07899475098</ele>
        <time>2010-01-30T16:07:14Z</time>
      </trkpt>
      <trkpt lat="45.10806" lon="4.97233">
        <ele>223.08200073242</ele>
        <time>2010-01-30T16:07:23Z</time>
      </trkpt>
      <trkpt lat="45.10819" lon="4.97247">
        <ele>223.42799377441</ele>
        <time>2010-01-30T16:07:30Z</time>
      </trkpt>
      <trkpt lat="45.10858" lon="4.97289">
        <ele>223.83500671387</ele>
        <time>2010-01-30T16:07:37Z</time>
      </trkpt>
      <trkpt lat="45.10888" lon="4.9732">
        <ele>224.36799621582</ele>
        <time>2010-01-30T16:07:46Z</time>
      </trkpt>
      <trkpt lat="45.10936" lon="4.97368">
        <ele>225.13200378418</ele>
        <time>2010-01-30T16:07:57Z</time>
      </trkpt>
      <trkpt lat="45.10971" lon="4.97407">
        <ele>225.45700073242</ele>
        <time>2010-01-30T16:08:06Z</time>
      </trkpt>
      <trkpt lat="45.11012" lon="4.9745">
        <ele>225.75100708008</ele>
        <time>2010-01-30T16:08:16Z</time>
      </trkpt>
      <trkpt lat="45.11048" lon="4.97489">
        <ele>226.55999755859</ele>
        <time>2010-01-30T16:08:25Z</time>
      </trkpt>
      <trkpt lat="45.11085" lon="4.97529">
        <ele>226.92300415039</ele>
        <time>2010-01-30T16:08:34Z</time>
      </trkpt>
      <trkpt lat="45.11111" lon="4.97557">
        <ele>225.86799621582</ele>
        <time>2010-01-30T16:08:40Z</time>
      </trkpt>
      <trkpt lat="45.11145" lon="4.97593">
        <ele>222.83999633789</ele>
        <time>2010-01-30T16:08:47Z</time>
      </trkpt>
      <trkpt lat="45.11171" lon="4.97613">
        <ele>219.28199768066</ele>
        <time>2010-01-30T16:08:51Z</time>
      </trkpt>
      <trkpt lat="45.1118" lon="4.97618">
        <ele>218.87800598144</ele>
        <time>2010-01-30T16:08:52Z</time>
      </trkpt>
      <trkpt lat="45.11209" lon="4.97625">
        <ele>214.49499511719</ele>
        <time>2010-01-30T16:08:55Z</time>
      </trkpt>
      <trkpt lat="45.1122" lon="4.9762">
        <ele>214.21600341797</ele>
        <time>2010-01-30T16:08:56Z</time>
      </trkpt>
      <trkpt lat="45.11254" lon="4.97604">
        <ele>209.37399291992</ele>
        <time>2010-01-30T16:08:59Z</time>
      </trkpt>
      <trkpt lat="45.11292" lon="4.97591">
        <ele>205.16799926758</ele>
        <time>2010-01-30T16:09:02Z</time>
      </trkpt>
      <trkpt lat="45.11316" lon="4.97599">
        <ele>202.23500061035</ele>
        <time>2010-01-30T16:09:04Z</time>
      </trkpt>
      <trkpt lat="45.11372" lon="4.97639">
        <ele>201.04600524902</ele>
        <time>2010-01-30T16:09:09Z</time>
      </trkpt>
      <trkpt lat="45.11383" lon="4.97646">
        <ele>200.62399291992</ele>
        <time>2010-01-30T16:09:10Z</time>
      </trkpt>
      <trkpt lat="45.11407" lon="4.97663">
        <ele>199.11999511719</ele>
        <time>2010-01-30T16:09:14Z</time>
      </trkpt>
      <trkpt lat="45.11451" lon="4.97714">
        <ele>198.53100585938</ele>
        <time>2010-01-30T16:09:18Z</time>
      </trkpt>
      <trkpt lat="45.11469" lon="4.97721">
        <ele>198.4109954834</ele>
        <time>2010-01-30T16:09:20Z</time>
      </trkpt>
      <trkpt lat="45.11493" lon="4.97732">
        <ele>197.20100402832</ele>
        <time>2010-01-30T16:09:24Z</time>
      </trkpt>
      <trkpt lat="45.11503" lon="4.9777">
        <ele>196.72200012207</ele>
        <time>2010-01-30T16:09:27Z</time>
      </trkpt>
      <trkpt lat="45.1152" lon="4.97845">
        <ele>196.87800598144</ele>
        <time>2010-01-30T16:09:34Z</time>
      </trkpt>
      <trkpt lat="45.11533" lon="4.97903">
        <ele>197.33200073242</ele>
        <time>2010-01-30T16:09:40Z</time>
      </trkpt>
      <trkpt lat="45.11535" lon="4.97913">
        <ele>197.37800598144</ele>
        <time>2010-01-30T16:09:41Z</time>
      </trkpt>
      <trkpt lat="45.11554" lon="4.97952">
        <ele>197.53399658203</ele>
        <time>2010-01-30T16:09:46Z</time>
      </trkpt>
      <trkpt lat="45.11559" lon="4.97956">
        <ele>197.84199523926</ele>
        <time>2010-01-30T16:09:47Z</time>
      </trkpt>
      <trkpt lat="45.11586" lon="4.9798">
        <ele>198.09199523926</ele>
        <time>2010-01-30T16:09:52Z</time>
      </trkpt>
      <trkpt lat="45.11613" lon="4.97994">
        <ele>198.64500427246</ele>
        <time>2010-01-30T16:09:57Z</time>
      </trkpt>
      <trkpt lat="45.11623" lon="4.97988">
        <ele>198.62199401856</ele>
        <time>2010-01-30T16:09:59Z</time>
      </trkpt>
      <trkpt lat="45.11678" lon="4.97964">
        <ele>199.55999755859</ele>
        <time>2010-01-30T16:10:09Z</time>
      </trkpt>
      <trkpt lat="45.11729" lon="4.97951">
        <ele>200.03799438477</ele>
        <time>2010-01-30T16:10:18Z</time>
      </trkpt>
      <trkpt lat="45.11739" lon="4.97949">
        <ele>199.95599365234</ele>
        <time>2010-01-30T16:10:20Z</time>
      </trkpt>
      <trkpt lat="45.11762" lon="4.97938">
        <ele>199.49699401856</ele>
        <time>2010-01-30T16:10:25Z</time>
      </trkpt>
      <trkpt lat="45.11776" lon="4.9793">
        <ele>200.03500366211</ele>
        <time>2010-01-30T16:10:32Z</time>
      </trkpt>
      <trkpt lat="45.11821" lon="4.97917">
        <ele>200.07499694824</ele>
        <time>2010-01-30T16:10:37Z</time>
      </trkpt>
      <trkpt lat="45.11823" lon="4.97917">
        <ele>200.09399414062</ele>
        <time>2010-01-30T16:10:39Z</time>
      </trkpt>
      <trkpt lat="45.11845" lon="4.97965">
        <ele>200.67599487305</ele>
        <time>2010-01-30T16:10:46Z</time>
      </trkpt>
      <trkpt lat="45.11851" lon="4.97978">
        <ele>200.82499694824</ele>
        <time>2010-01-30T16:10:48Z</time>
      </trkpt>
      <trkpt lat="45.11872" lon="4.98024">
        <ele>201.00799560547</ele>
        <time>2010-01-30T16:10:55Z</time>
      </trkpt>
      <trkpt lat="45.11894" lon="4.98076">
        <ele>201.61599731445</ele>
        <time>2010-01-30T16:11:03Z</time>
      </trkpt>
      <trkpt lat="45.11906" lon="4.98124">
        <ele>202.40699768066</ele>
        <time>2010-01-30T16:11:10Z</time>
      </trkpt>
      <trkpt lat="45.11911" lon="4.98167">
        <ele>203.19400024414</ele>
        <time>2010-01-30T16:11:17Z</time>
      </trkpt>
      <trkpt lat="45.11913" lon="4.98185">
        <ele>203.41499328613</ele>
        <time>2010-01-30T16:11:20Z</time>
      </trkpt>
      <trkpt lat="45.11916" lon="4.98215">
        <ele>203.41900634766</ele>
        <time>2010-01-30T16:11:25Z</time>
      </trkpt>
      <trkpt lat="45.11919" lon="4.98256">
        <ele>203.44000244141</ele>
        <time>2010-01-30T16:11:32Z</time>
      </trkpt>
      <trkpt lat="45.11921" lon="4.98275">
        <ele>203.19900512695</ele>
        <time>2010-01-30T16:11:36Z</time>
      </trkpt>
      <trkpt lat="45.11922" lon="4.98281">
        <ele>203.83200073242</ele>
        <time>2010-01-30T16:11:40Z</time>
      </trkpt>
      <trkpt lat="45.11922" lon="4.98281">
        <ele>203.29100036621</ele>
        <time>2010-01-30T16:11:44Z</time>
      </trkpt>
      <trkpt lat="45.11937" lon="4.98334">
        <ele>203.47999572754</ele>
        <time>2010-01-30T16:11:47Z</time>
      </trkpt>
      <trkpt lat="45.11946" lon="4.98356">
        <ele>203.61799621582</ele>
        <time>2010-01-30T16:11:51Z</time>
      </trkpt>
      <trkpt lat="45.11956" lon="4.9837">
        <ele>203.38900756836</ele>
        <time>2010-01-30T16:11:54Z</time>
      </trkpt>
      <trkpt lat="45.11968" lon="4.9838">
        <ele>204.05999755859</ele>
        <time>2010-01-30T16:11:58Z</time>
      </trkpt>
      <trkpt lat="45.11978" lon="4.98398">
        <ele>204.07600402832</ele>
        <time>2010-01-30T16:12:02Z</time>
      </trkpt>
      <trkpt lat="45.11978" lon="4.98403">
        <ele>203.92900085449</ele>
        <time>2010-01-30T16:12:03Z</time>
      </trkpt>
      <trkpt lat="45.11978" lon="4.98424">
        <ele>204.11700439453</ele>
        <time>2010-01-30T16:12:09Z</time>
      </trkpt>
      <trkpt lat="45.11978" lon="4.98436">
        <ele>204.4640045166</ele>
        <time>2010-01-30T16:12:15Z</time>
      </trkpt>
      <trkpt lat="45.11978" lon="4.98437">
        <ele>204.5</ele>
        <time>2010-01-30T16:12:18Z</time>
      </trkpt>
      <trkpt lat="45.11978" lon="4.98437">
        <ele>204.57600402832</ele>
        <time>2010-01-30T16:12:43Z</time>
      </trkpt>
      <trkpt lat="45.11978" lon="4.98437">
        <ele>204.49499511719</ele>
        <time>2010-01-30T16:12:44Z</time>
      </trkpt>
      <trkpt lat="45.11978" lon="4.98433">
        <ele>204.31799316406</ele>
        <time>2010-01-30T16:12:48Z</time>
      </trkpt>
      <trkpt lat="45.11985" lon="4.98388">
        <ele>204.06900024414</ele>
        <time>2010-01-30T16:12:54Z</time>
      </trkpt>
      <trkpt lat="45.11978" lon="4.98433">
        <ele>204.26699829102</ele>
        <time>2010-01-30T16:12:58Z</time>
      </trkpt>
      <trkpt lat="45.11978" lon="4.98438">
        <ele>204.44099426269</ele>
        <time>2010-01-30T16:13:00Z</time>
      </trkpt>
      <trkpt lat="45.11987" lon="4.98389">
        <ele>204.23199462891</ele>
        <time>2010-01-30T16:13:02Z</time>
      </trkpt>
      <trkpt lat="45.11988" lon="4.9839">
        <ele>204.41499328613</ele>
        <time>2010-01-30T16:13:03Z</time>
      </trkpt>
      <trkpt lat="45.11992" lon="4.98391">
        <ele>204.47599792481</ele>
        <time>2010-01-30T16:13:06Z</time>
      </trkpt>
      <trkpt lat="45.11952" lon="4.98526">
        <ele>204.57000732422</ele>
        <time>2010-01-30T16:13:09Z</time>
      </trkpt>
      <trkpt lat="45.12029" lon="4.98423">
        <ele>204.57099914551</ele>
        <time>2010-01-30T16:13:10Z</time>
      </trkpt>
      <trkpt lat="45.11978" lon="4.9844">
        <ele>204.66299438477</ele>
        <time>2010-01-30T16:13:12Z</time>
      </trkpt>
      <trkpt lat="45.11998" lon="4.98395">
        <ele>204.75900268555</ele>
        <time>2010-01-30T16:13:16Z</time>
      </trkpt>
      <trkpt lat="45.12" lon="4.98395">
        <ele>204.81799316406</ele>
        <time>2010-01-30T16:13:17Z</time>
      </trkpt>
      <trkpt lat="45.11978" lon="4.98436">
        <ele>204.44999694824</ele>
        <time>2010-01-30T16:13:19Z</time>
      </trkpt>
      <trkpt lat="45.11978" lon="4.98422">
        <ele>204.41400146484</ele>
        <time>2010-01-30T16:13:22Z</time>
      </trkpt>
      <trkpt lat="45.1202" lon="4.98462">
        <ele>204.46699523926</ele>
        <time>2010-01-30T16:13:27Z</time>
      </trkpt>
      <trkpt lat="45.12024" lon="4.98457">
        <ele>204.40899658203</ele>
        <time>2010-01-30T16:13:29Z</time>
      </trkpt>
      <trkpt lat="45.12022" lon="4.98407">
        <ele>205.58299255371</ele>
        <time>2010-01-30T16:13:38Z</time>
      </trkpt>
      <trkpt lat="45.12029" lon="4.9841">
        <ele>205.7380065918</ele>
        <time>2010-01-30T16:13:42Z</time>
      </trkpt>
      <trkpt lat="45.12029" lon="4.9841">
        <ele>205.83099365234</ele>
        <time>2010-01-30T16:13:45Z</time>
      </trkpt>
      <trkpt lat="45.12049" lon="4.98432">
        <ele>206.15600585938</ele>
        <time>2010-01-30T16:13:49Z</time>
      </trkpt>
      <trkpt lat="45.12059" lon="4.9841">
        <ele>206.05000305176</ele>
        <time>2010-01-30T16:13:53Z</time>
      </trkpt>
      <trkpt lat="45.12051" lon="4.98354">
        <ele>205.46000671387</ele>
        <time>2010-01-30T16:13:59Z</time>
      </trkpt>
      <trkpt lat="45.12061" lon="4.9828">
        <ele>204.51699829102</ele>
        <time>2010-01-30T16:14:07Z</time>
      </trkpt>
      <trkpt lat="45.12067" lon="4.98232">
        <ele>204.44999694824</ele>
        <time>2010-01-30T16:14:12Z</time>
      </trkpt>
      <trkpt lat="45.12061" lon="4.98149">
        <ele>203.92300415039</ele>
        <time>2010-01-30T16:14:21Z</time>
      </trkpt>
      <trkpt lat="45.12046" lon="4.9808">
        <ele>202.95100402832</ele>
        <time>2010-01-30T16:14:28Z</time>
      </trkpt>
      <trkpt lat="45.12029" lon="4.97996">
        <ele>202.05000305176</ele>
        <time>2010-01-30T16:14:37Z</time>
      </trkpt>
      <trkpt lat="45.12011" lon="4.9791">
        <ele>201.07800292969</ele>
        <time>2010-01-30T16:14:46Z</time>
      </trkpt>
      <trkpt lat="45.11998" lon="4.97839">
        <ele>200.5890045166</ele>
        <time>2010-01-30T16:14:54Z</time>
      </trkpt>
      <trkpt lat="45.11983" lon="4.97763">
        <ele>199.72599792481</ele>
        <time>2010-01-30T16:15:02Z</time>
      </trkpt>
      <trkpt lat="45.1197" lon="4.97691">
        <ele>199.68299865723</ele>
        <time>2010-01-30T16:15:10Z</time>
      </trkpt>
      <trkpt lat="45.11952" lon="4.97586">
        <ele>199.61099243164</ele>
        <time>2010-01-30T16:15:22Z</time>
      </trkpt>
      <trkpt lat="45.11942" lon="4.97531">
        <ele>199.09800720215</ele>
        <time>2010-01-30T16:15:28Z</time>
      </trkpt>
      <trkpt lat="45.11922" lon="4.97423">
        <ele>197.82499694824</ele>
        <time>2010-01-30T16:15:39Z</time>
      </trkpt>
      <trkpt lat="45.11909" lon="4.97348">
        <ele>197.45399475098</ele>
        <time>2010-01-30T16:15:47Z</time>
      </trkpt>
      <trkpt lat="45.11893" lon="4.97259">
        <ele>197.08299255371</ele>
        <time>2010-01-30T16:15:57Z</time>
      </trkpt>
      <trkpt lat="45.11882" lon="4.97193">
        <ele>197.52000427246</ele>
        <time>2010-01-30T16:16:05Z</time>
      </trkpt>
      <trkpt lat="45.11879" lon="4.9716">
        <ele>197.63600158691</ele>
        <time>2010-01-30T16:16:09Z</time>
      </trkpt>
      <trkpt lat="45.1188" lon="4.97117">
        <ele>198.62899780273</ele>
        <time>2010-01-30T16:16:15Z</time>
      </trkpt>
      <trkpt lat="45.11883" lon="4.97094">
        <ele>199.02099609375</ele>
        <time>2010-01-30T16:16:19Z</time>
      </trkpt>
      <trkpt lat="45.11883" lon="4.97093">
        <ele>199.32000732422</ele>
        <time>2010-01-30T16:16:24Z</time>
      </trkpt>
      <trkpt lat="45.11901" lon="4.97061">
        <ele>199.16700744629</ele>
        <time>2010-01-30T16:16:28Z</time>
      </trkpt>
      <trkpt lat="45.11898" lon="4.97057">
        <ele>199.15699768066</ele>
        <time>2010-01-30T16:16:30Z</time>
      </trkpt>
      <trkpt lat="45.11888" lon="4.97054">
        <ele>198.8630065918</ele>
        <time>2010-01-30T16:16:35Z</time>
      </trkpt>
      <trkpt lat="45.11852" lon="4.97017">
        <ele>198.96000671387</ele>
        <time>2010-01-30T16:16:42Z</time>
      </trkpt>
      <trkpt lat="45.11813" lon="4.96961">
        <ele>198.74200439453</ele>
        <time>2010-01-30T16:16:52Z</time>
      </trkpt>
      <trkpt lat="45.11783" lon="4.96913">
        <ele>198.47500610352</ele>
        <time>2010-01-30T16:17:00Z</time>
      </trkpt>
      <trkpt lat="45.11776" lon="4.96901">
        <ele>198.35800170898</ele>
        <time>2010-01-30T16:17:02Z</time>
      </trkpt>
      <trkpt lat="45.1177" lon="4.96888">
        <ele>198.32600402832</ele>
        <time>2010-01-30T16:17:04Z</time>
      </trkpt>
      <trkpt lat="45.11763" lon="4.96848">
        <ele>198.54400634766</ele>
        <time>2010-01-30T16:17:08Z</time>
      </trkpt>
      <trkpt lat="45.11763" lon="4.96836">
        <ele>198.19999694824</ele>
        <time>2010-01-30T16:17:11Z</time>
      </trkpt>
      <trkpt lat="45.11752" lon="4.96824">
        <ele>198.02200317383</ele>
        <time>2010-01-30T16:17:14Z</time>
      </trkpt>
      <trkpt lat="45.11724" lon="4.96815">
        <ele>197.96099853516</ele>
        <time>2010-01-30T16:17:19Z</time>
      </trkpt>
      <trkpt lat="45.11689" lon="4.96765">
        <ele>197.32800292969</ele>
        <time>2010-01-30T16:17:27Z</time>
      </trkpt>
      <trkpt lat="45.11658" lon="4.96699">
        <ele>196.55599975586</ele>
        <time>2010-01-30T16:17:36Z</time>
      </trkpt>
      <trkpt lat="45.11635" lon="4.96639">
        <ele>195.87600708008</ele>
        <time>2010-01-30T16:17:45Z</time>
      </trkpt>
      <trkpt lat="45.11621" lon="4.96603">
        <ele>195.8630065918</ele>
        <time>2010-01-30T16:17:53Z</time>
      </trkpt>
      <trkpt lat="45.116" lon="4.96554">
        <ele>195.73300170898</ele>
        <time>2010-01-30T16:18:01Z</time>
      </trkpt>
      <trkpt lat="45.11581" lon="4.96511">
        <ele>195.93200683594</ele>
        <time>2010-01-30T16:18:10Z</time>
      </trkpt>
      <trkpt lat="45.11573" lon="4.96496">
        <ele>196.0890045166</ele>
        <time>2010-01-30T16:18:15Z</time>
      </trkpt>
      <trkpt lat="45.1158" lon="4.96463">
        <ele>196.67999267578</ele>
        <time>2010-01-30T16:18:22Z</time>
      </trkpt>
      <trkpt lat="45.11581" lon="4.96454">
        <ele>197.03199768066</ele>
        <time>2010-01-30T16:18:25Z</time>
      </trkpt>
      <trkpt lat="45.11557" lon="4.9647">
        <ele>197.02200317383</ele>
        <time>2010-01-30T16:18:31Z</time>
      </trkpt>
      <trkpt lat="45.11557" lon="4.9647">
        <ele>196.95199584961</ele>
        <time>2010-01-30T16:18:32Z</time>
      </trkpt>
      <trkpt lat="45.1158" lon="4.96456">
        <ele>197.03199768066</ele>
        <time>2010-01-30T16:19:14Z</time>
      </trkpt>
      <trkpt lat="45.11558" lon="4.96471">
        <ele>196.42599487305</ele>
        <time>2010-01-30T16:19:18Z</time>
      </trkpt>
      <trkpt lat="45.11552" lon="4.96461">
        <ele>196.50100708008</ele>
        <time>2010-01-30T16:19:23Z</time>
      </trkpt>
      <trkpt lat="45.11548" lon="4.96456">
        <ele>196.47900390625</ele>
        <time>2010-01-30T16:19:25Z</time>
      </trkpt>
      <trkpt lat="45.11547" lon="4.96454">
        <ele>196.82499694824</ele>
        <time>2010-01-30T16:19:26Z</time>
      </trkpt>
      <trkpt lat="45.11581" lon="4.9643">
        <ele>197.55000305176</ele>
        <time>2010-01-30T16:19:30Z</time>
      </trkpt>
      <trkpt lat="45.11581" lon="4.96428">
        <ele>197.74800109863</ele>
        <time>2010-01-30T16:19:34Z</time>
      </trkpt>
      <trkpt lat="45.11581" lon="4.96429">
        <ele>197.83299255371</ele>
        <time>2010-01-30T16:19:37Z</time>
      </trkpt>
    </trkseg>
  </trk>
</gpx>